GFSNGP_con_3kmhel_000.txt.gz
Helicity
88 63 75 64 89 86 96 103 59 53 47 66 82 71 26 27 137 207 206 219 261 269 244 175 177 220 166 151 145 126 109 99 96 119 126 118 118 104 90 79 70 62 64 65
83 84 59 50 58 49 53 66 47 48 -5 54 75 76 103 109 111 117 134 225 269 252 204 162 183 204 173 147 118 94 85 95 118 137 138 121 105 104 96 87 77 70 68 67
82 85 55 28 30 61 74 80 43 5 57 77 79 85 102 51 72 128 217 233 241 245 220 214 199 166 151 132 104 159 148 160 163 151 133 112 94 86 79 63 50 49 47 47
13 57 34 59 74 63 102 143 99 99 85 70 74 52 79 83 91 172 242 301 297 280 273 236 197 159 87 165 229 200 159 157 150 134 122 90 79 68 63 57 59 64 59 60
45 58 66 74 114 115 110 127 127 119 109 83 61 93 87 44 60 147 259 291 315 305 253 208 127 66 190 261 233 211 192 161 148 126 101 91 88 83 87 83 84 80 65 62
100 68 45 79 114 86 83 97 139 105 106 76 73 43 -49 10 134 310 370 354 315 234 212 149 75 215 279 240 218 186 163 137 120 98 90 91 82 87 93 101 99 97 94 80
79 45 64 62 77 54 104 89 131 107 85 54 31 57 94 197 253 288 296 292 270 198 173 196 207 234 254 206 176 148 127 109 98 91 88 72 88 101 105 105 90 96 98 90
114 77 50 108 111 114 123 126 101 85 65 60 58 85 144 187 168 177 303 344 300 261 218 215 263 247 200 170 144 136 120 104 92 87 86 87 94 108 103 99 98 98 81 78
78 74 106 159 132 124 104 88 65 55 35 41 47 76 100 151 247 285 328 344 301 253 217 245 236 193 163 150 135 121 108 93 87 99 107 92 105 113 113 95 96 91 88 97
117 129 169 84 98 64 26 13 -15 -23 34 70 76 90 152 199 237 276 298 269 202 223 223 204 172 145 139 132 124 117 112 109 112 110 92 116 115 110 113 99 93 93 105 121
88 88 111 135 91 9 -5 18 54 80 82 84 104 117 151 178 194 213 192 180 213 190 168 157 146 136 131 130 125 124 121 113 115 130 129 126 114 115 101 101 89 119 130 131
57 66 109 113 119 99 118 120 87 83 119 156 140 124 161 180 206 200 208 206 188 164 148 130 125 115 126 127 124 128 132 148 159 153 136 128 125 124 75 70 84 85 66 78
93 99 77 93 117 107 120 133 141 161 144 140 165 157 174 193 184 199 206 188 156 135 126 122 129 134 144 140 141 150 167 166 170 150 143 140 137 136 134 122 77 57 35 30
122 151 171 153 146 175 176 156 119 131 139 146 133 146 163 176 196 196 172 150 135 127 134 146 144 135 145 145 156 171 180 126 168 168 157 155 147 150 160 151 125 101 51 28
158 198 173 174 187 162 100 58 59 79 102 120 134 150 170 184 171 161 148 143 147 138 126 131 138 125 139 144 155 172 185 192 183 177 167 142 162 161 148 131 115 114 101 63
177 168 176 157 108 74 54 47 72 97 117 133 141 156 153 148 145 152 155 141 131 109 109 128 122 119 134 164 180 201 210 135 141 171 170 166 163 150 132 119 117 122 106 85
203 186 149 120 79 59 42 57 65 87 113 116 121 133 140 152 148 126 107 102 104 105 102 108 117 138 163 172 195 222 215 196 126 170 168 159 149 131 130 126 121 121 125 110
120 109 85 71 52 51 52 77 91 104 119 113 128 144 134 123 108 110 115 102 100 107 108 128 135 146 161 175 192 206 200 190 178 172 161 150 131 114 113 121 130 130 131 117
43 46 47 45 36 60 77 102 114 124 131 139 143 108 101 109 120 112 105 102 100 107 107 125 106 127 164 161 153 192 184 172 162 152 139 97 121 123 127 130 133 130 123 111
51 61 60 63 77 104 103 123 137 132 126 140 124 122 113 118 122 109 110 112 106 128 121 121 124 149 164 169 129 159 149 138 137 131 125 108 119 135 138 101 105 116 115 101
24 32 57 77 98 107 116 146 157 137 133 130 130 129 130 123 120 115 116 124 114 116 120 106 140 156 173 143 122 136 144 141 130 128 131 129 125 126 123 122 118 119 106 76
78 83 84 100 122 127 144 149 145 158 159 150 146 146 151 129 127 131 129 134 135 84 127 149 156 125 130 80 135 142 139 132 133 136 137 136 141 141 133 131 127 112 69 34
96 98 96 117 127 136 162 152 149 152 147 151 150 153 160 152 145 140 134 123 143 122 129 147 111 81 79 132 149 149 135 130 137 141 148 152 153 156 155 133 105 90 81 56
120 111 109 116 152 179 161 171 154 152 162 164 164 164 159 154 161 147 155 119 97 111 133 131 111 72 69 139 142 140 142 143 148 160 163 117 155 135 115 93 87 98 81 11
115 113 134 163 163 162 176 182 194 193 187 177 169 164 157 161 171 149 156 153 104 116 148 103 70 66 122 139 138 135 140 155 157 142 138 134 122 118 111 96 81 69 61 44
115 115 135 137 150 167 166 186 186 187 189 183 168 154 148 150 159 154 156 120 133 116 143 135 127 114 125 132 128 130 140 145 138 141 115 120 124 120 107 93 3 4 9 17
137 153 187 183 180 171 179 181 182 181 178 165 151 133 136 142 138 129 117 139 143 139 134 128 127 114 114 126 127 137 144 153 117 115 110 114 121 121 108 25 -12 -9 -3 5

GFSNGP_con_3kmhel_003.txt.gz
Helicity
129 95 112 93 150 172 159 157 107 60 78 109 117 123 104 98 119 133 184 253 232 217 218 232 188 186 211 210 175 110 106 100 93 136 118 108 120 121 108 96 90 80 74 70
119 133 94 80 88 115 129 105 82 75 63 71 142 178 169 125 101 121 164 188 201 224 241 208 235 235 206 171 152 126 91 78 168 135 127 138 145 143 128 107 89 76 70 64
91 93 90 79 51 87 106 101 89 86 87 185 156 124 129 112 60 47 96 188 234 245 240 259 265 231 208 186 133 107 63 137 157 148 152 156 140 122 108 86 67 67 72 78
55 105 78 60 102 90 132 180 187 224 193 164 109 115 79 52 14 8 92 186 241 247 292 313 266 260 187 110 110 86 134 164 155 164 159 145 128 109 96 85 81 84 79 79
47 74 81 82 80 122 119 163 213 178 166 142 88 92 78 64 24 7 121 229 261 307 324 299 277 194 125 66 116 167 175 158 154 158 154 144 134 117 102 97 90 85 89 92
50 51 37 41 183 198 154 110 167 157 123 90 49 68 5 2 26 111 203 269 292 294 280 251 160 75 94 91 178 186 151 139 141 146 144 136 123 114 102 104 110 120 117 94
118 58 79 92 129 158 127 77 97 97 64 37 20 -10 8 39 90 142 193 247 277 269 268 209 112 114 133 172 194 148 139 132 134 132 139 125 127 117 121 120 112 108 103 93
139 89 39 115 160 113 97 99 77 60 43 54 49 44 41 67 120 168 230 265 269 257 229 199 152 140 183 202 143 134 129 128 130 133 126 113 121 138 133 131 124 117 99 98
96 95 95 119 96 100 75 59 45 48 18 5 -2 12 37 70 121 163 205 233 230 227 212 168 173 207 187 149 139 123 125 128 132 128 128 128 165 152 144 126 122 110 113 119
113 95 113 98 134 111 78 46 21 5 4 34 55 77 81 128 148 189 209 204 208 207 212 213 193 178 143 122 124 128 128 127 127 145 143 171 175 152 152 142 139 140 136 153
133 122 132 116 111 68 38 47 42 65 82 94 120 128 124 124 149 183 204 220 224 226 202 178 158 136 136 139 135 130 132 140 152 173 172 176 171 170 156 154 138 144 159 163
84 77 137 97 85 79 59 69 101 105 122 149 142 116 136 146 170 202 211 221 209 192 179 158 140 132 143 131 128 138 150 159 167 173 180 185 195 189 125 96 69 53 72 92
70 85 98 118 135 136 137 160 172 173 161 120 125 157 174 194 203 205 216 196 187 161 152 144 132 124 127 131 136 147 161 158 174 179 196 206 208 201 173 131 87 54 49 49
93 113 128 115 132 163 184 176 158 123 100 114 147 167 191 212 214 197 188 168 150 144 141 133 130 128 134 131 141 150 159 121 185 206 209 209 197 182 180 168 146 133 75 47
128 160 149 152 149 153 145 134 113 66 70 94 120 133 166 175 163 156 158 146 137 135 140 143 144 127 131 130 136 148 159 180 185 200 207 178 188 174 160 150 145 143 124 83
160 183 171 170 161 141 122 84 63 62 72 79 88 106 127 144 153 156 143 141 160 154 153 148 122 113 117 128 139 161 168 118 148 189 194 174 171 162 151 145 143 136 129 122
159 167 184 157 105 84 60 62 72 56 73 94 106 125 148 149 148 140 135 150 156 137 119 116 103 108 117 124 135 160 172 175 127 175 170 165 165 155 151 155 156 152 152 134
206 167 113 91 65 54 55 72 89 88 107 108 136 157 149 146 133 134 142 141 130 122 118 115 109 117 123 131 144 161 163 163 162 161 161 161 146 134 140 149 153 152 154 138
125 86 49 32 39 56 78 94 109 122 143 153 167 142 139 141 142 138 141 127 118 120 112 116 101 108 129 124 122 152 155 161 156 158 154 114 136 139 150 150 152 141 133 131
78 22 6 16 35 72 78 103 116 138 147 165 170 157 137 141 144 136 146 140 128 137 129 118 108 127 130 127 101 139 146 147 148 154 154 135 143 144 142 124 131 140 126 112
40 28 29 48 64 80 94 113 132 130 147 167 169 155 144 147 159 155 156 152 134 126 123 97 120 127 138 117 113 144 153 155 154 154 154 148 143 144 143 146 142 136 123 101
85 100 86 77 93 95 102 121 136 152 173 169 164 168 172 154 159 164 158 150 142 91 113 124 132 99 107 87 145 151 152 146 149 148 150 148 150 155 157 154 137 121 99 80
93 99 106 111 110 115 133 143 153 176 173 168 165 166 173 175 176 172 147 122 133 108 119 129 93 82 89 142 157 159 141 135 141 145 152 156 162 170 165 138 114 108 63 -47
104 108 115 130 137 156 141 158 170 170 171 180 180 188 180 173 177 157 147 115 98 101 113 116 105 88 93 154 148 139 134 138 148 161 163 116 160 150 120 114 111 95 -18 -18
112 124 147 150 145 139 139 165 188 190 181 181 185 187 180 171 152 139 129 123 94 110 128 98 83 87 133 134 131 130 132 144 153 146 149 159 145 134 118 114 102 -10 -18 -24
146 146 147 140 149 151 160 177 179 175 174 178 174 179 165 146 138 135 130 109 124 107 131 134 135 121 125 127 118 120 131 137 137 150 130 143 137 123 107 99 48 -14 -14 -8
172 161 169 177 180 180 179 182 183 179 178 167 150 140 134 124 116 119 108 123 124 127 132 132 129 113 109 113 113 128 135 144 116 124 122 125 119 114 99 78 -28 -30 -29 -21

GFSNGP_con_3kmhel_006.txt.gz
Helicity
123 119 188 144 157 195 169 144 120 55 87 93 100 132 138 129 125 138 147 196 236 264 264 253 254 245 248 263 229 174 138 94 71 81 96 85 87 90 92 100 108 97 92 90
124 137 120 115 123 154 208 208 198 155 113 118 138 139 160 178 191 128 131 161 219 259 251 260 265 279 277 238 182 111 74 65 83 98 98 88 89 99 110 107 95 91 95 91
100 88 97 98 64 121 171 183 180 165 127 143 180 179 205 211 149 120 99 148 209 237 257 268 276 261 247 191 105 53 69 62 82 100 96 101 107 110 108 107 109 117 122 125
51 105 89 58 78 95 169 146 148 175 195 208 212 220 193 140 144 111 95 145 230 279 299 280 266 245 178 113 81 96 33 38 78 116 120 111 110 105 115 125 133 134 134 137
78 89 72 68 73 105 147 133 211 260 265 258 212 169 158 130 99 59 56 144 229 249 265 283 248 192 169 125 119 68 50 83 124 122 117 108 115 128 130 133 136 140 147 143
98 68 18 59 127 142 149 112 149 189 187 164 159 142 80 91 57 72 125 191 228 264 264 238 215 182 152 143 112 81 112 116 113 108 113 136 128 115 140 139 149 162 163 139
131 79 101 74 113 136 134 68 187 194 167 131 86 55 54 51 57 90 112 162 205 224 218 204 182 178 164 132 103 114 109 111 118 131 131 114 130 139 142 151 159 165 170 158
125 60 11 169 208 140 121 156 146 119 88 67 39 26 20 8 40 84 123 163 192 218 208 195 196 185 151 125 113 112 116 120 124 123 117 121 129 137 151 162 169 179 176 170
101 97 160 116 124 158 114 88 63 60 40 38 27 24 51 65 72 94 124 172 198 211 217 201 179 167 147 131 127 123 126 126 126 116 123 116 122 130 161 170 192 195 180 169
134 126 153 176 176 126 90 74 64 62 36 22 33 70 76 90 107 136 155 166 200 214 196 180 173 145 135 132 131 133 128 125 124 126 100 131 142 160 184 190 195 174 163 172
145 144 158 118 127 110 123 109 84 80 70 78 78 86 107 107 116 134 151 177 207 206 188 164 152 159 152 139 141 140 136 127 118 122 119 126 147 167 172 184 156 157 162 163
84 83 133 84 116 128 121 107 101 80 84 104 105 97 115 122 133 145 161 193 197 180 175 163 155 141 142 150 147 136 124 110 108 117 132 143 156 167 123 93 71 59 52 94
182 144 167 146 147 127 102 96 108 119 124 122 120 115 119 138 152 157 183 176 168 167 162 148 136 140 146 134 128 119 116 106 120 131 144 148 152 158 161 139 88 62 46 48
101 151 171 111 97 116 107 96 110 107 88 74 81 94 108 141 163 157 162 163 161 154 147 136 129 126 123 115 112 114 127 114 143 152 147 141 140 145 164 170 163 151 89 58
151 128 106 116 113 109 113 111 106 98 91 87 77 83 104 128 146 153 161 153 150 141 131 129 119 111 111 108 125 139 136 136 136 136 136 116 148 155 158 160 159 159 147 112
151 152 130 112 88 98 101 88 107 94 64 53 67 86 109 136 151 148 145 141 139 120 108 111 117 121 120 131 134 137 134 79 95 130 136 144 152 151 154 158 158 150 148 138
136 116 116 149 123 121 111 99 62 54 72 81 84 107 132 141 142 134 126 123 114 95 104 120 119 124 121 117 121 135 142 143 85 136 148 149 150 145 151 157 151 152 151 136
110 133 149 152 141 121 81 44 46 68 93 106 124 142 145 144 135 141 129 130 122 115 123 125 123 114 113 119 125 141 145 142 140 146 149 150 137 131 144 143 138 137 145 141
144 146 141 117 78 45 29 39 53 73 102 122 152 135 143 159 169 159 151 137 133 129 114 116 95 105 126 119 122 146 145 145 149 157 151 113 133 129 144 137 135 138 139 130
155 143 97 63 45 28 31 52 72 93 115 149 167 178 182 181 167 159 161 132 122 127 112 104 104 126 131 126 104 138 142 149 153 158 153 126 136 132 132 111 116 129 124 113
106 108 83 50 40 51 62 75 91 101 120 148 164 170 177 191 183 171 155 144 119 112 120 108 125 133 146 125 116 144 157 159 158 154 145 136 130 129 130 132 137 128 113 111
90 78 67 82 92 84 74 74 95 119 139 158 181 201 198 178 168 151 128 121 122 109 119 128 136 111 116 89 147 155 161 158 154 145 138 133 137 143 145 148 138 121 109 104
85 101 106 102 93 87 94 98 109 131 146 169 187 187 176 164 147 141 128 124 141 118 126 135 109 88 88 141 159 159 150 141 136 133 136 143 146 156 162 148 117 104 98 16
108 108 113 118 114 113 99 114 135 156 167 180 185 186 172 159 149 132 133 115 99 107 125 128 109 91 97 159 151 145 140 134 137 144 139 95 150 152 144 128 114 101 102 8
119 120 125 121 112 102 115 142 197 210 209 212 214 186 159 136 125 128 128 126 105 123 136 104 90 94 134 138 135 131 129 134 138 125 131 145 142 142 132 118 98 84 17 -22
107 117 129 122 126 138 154 185 215 203 198 203 191 162 148 141 131 129 125 113 132 110 132 130 125 115 123 124 114 116 123 131 126 131 116 134 136 130 110 85 75 74 -9 -3
140 146 154 161 173 180 180 191 198 195 192 182 158 143 131 122 117 122 116 125 123 124 125 123 123 110 106 107 106 119 130 140 109 117 121 127 121 108 87 74 64 -0 -1 8

GFSNGP_con_3kmhel_009.txt.gz
Helicity
149 151 213 220 193 197 200 164 156 123 116 71 54 75 138 190 182 158 169 206 223 250 252 250 256 248 232 227 197 167 158 124 112 44 27 107 118 89 79 78 65 57 61 66
131 113 117 145 150 176 147 210 186 149 98 79 131 175 179 162 145 145 154 170 175 209 232 248 256 253 250 228 206 165 121 119 52 31 75 102 89 82 72 65 67 60 64 81
108 104 92 121 81 128 139 175 145 183 110 166 187 176 180 208 221 206 183 129 148 185 229 267 263 263 248 218 172 131 119 90 85 79 88 93 85 81 88 73 59 67 88 94
128 126 94 55 83 105 175 108 197 189 161 190 215 253 255 255 226 218 143 122 163 236 278 283 276 254 222 184 162 123 88 86 84 101 115 102 100 89 78 67 70 80 80 78
113 102 60 48 42 86 130 93 125 170 204 244 280 277 267 239 187 127 106 93 155 227 268 274 255 228 200 181 119 95 101 93 120 117 110 103 95 79 66 72 79 77 78 83
77 83 65 42 52 85 92 67 134 201 224 261 263 224 156 132 117 103 94 126 198 242 263 262 234 208 184 156 124 118 104 113 111 104 96 87 78 71 63 73 80 98 98 103
140 105 78 46 73 83 108 35 180 211 212 197 193 153 137 110 92 87 129 174 201 218 220 214 202 176 181 145 128 115 112 114 101 88 85 75 75 59 71 82 91 105 108 109
127 106 43 136 154 121 98 169 198 198 176 157 123 109 94 80 77 104 133 150 170 203 210 193 189 184 155 126 125 127 114 87 83 93 94 87 66 72 81 88 99 97 104 135
103 81 105 135 149 177 124 118 120 132 106 92 84 63 46 42 58 81 102 127 156 181 196 187 181 171 143 139 128 100 90 98 102 94 87 65 68 82 100 101 114 115 133 156
107 108 117 130 206 167 150 152 131 114 92 87 78 64 63 68 73 83 98 132 166 180 171 172 170 154 144 117 94 98 99 94 93 84 61 77 98 105 113 109 109 115 132 147
124 137 177 172 194 192 201 172 159 143 101 80 67 62 74 80 86 100 128 145 166 176 169 176 158 132 112 104 110 104 96 96 82 75 79 90 99 102 97 93 88 99 118 141
53 75 154 130 195 190 189 156 127 91 90 90 85 75 91 98 110 131 152 184 195 181 170 137 119 119 117 106 101 104 104 87 75 81 97 103 106 117 77 51 30 33 44 90
89 168 216 274 265 217 187 133 109 111 103 89 94 98 111 124 141 167 190 181 170 138 123 118 118 122 105 102 109 104 87 80 87 92 98 108 119 121 124 107 60 46 47 50
105 215 276 203 175 173 139 109 102 89 77 80 85 106 126 146 155 155 154 143 139 131 128 125 121 113 100 97 93 89 88 65 111 116 116 121 106 109 121 126 128 132 88 59
149 182 150 178 165 131 102 89 74 78 81 86 98 100 83 80 102 116 143 139 143 144 136 126 120 106 94 96 88 86 94 113 121 120 114 90 119 124 130 128 133 138 126 88
227 254 212 161 109 88 82 70 74 83 84 82 74 53 85 121 145 150 144 140 145 150 143 131 111 91 86 85 95 109 119 94 104 123 114 114 121 126 136 134 130 125 120 117
222 168 134 122 78 63 58 82 91 92 83 57 54 89 119 136 153 156 148 144 148 152 134 113 95 85 86 110 124 123 125 123 84 124 124 128 134 134 130 127 133 125 127 109
113 99 69 74 61 78 80 69 56 42 42 43 63 98 121 140 146 160 159 163 156 139 119 100 101 108 122 126 117 122 123 129 131 141 141 141 128 121 132 125 126 121 124 116
127 111 123 114 90 82 70 60 39 34 57 68 102 107 128 149 162 166 180 181 170 150 133 129 118 121 120 111 108 135 135 146 152 155 141 110 129 122 129 119 116 115 120 131
148 133 108 85 83 85 64 38 40 57 76 103 134 152 157 168 185 200 188 161 159 140 123 115 110 121 116 116 104 133 146 148 149 144 145 126 131 122 115 92 99 115 123 110
112 101 89 82 66 54 46 44 60 64 74 96 116 133 154 183 199 198 194 179 152 129 126 118 120 128 135 115 109 147 158 152 146 147 142 130 119 113 112 116 121 122 103 84
83 74 64 63 71 80 81 82 80 86 98 113 133 170 194 192 193 179 150 145 140 140 120 121 128 100 112 105 149 159 154 147 145 141 132 123 122 127 127 126 119 93 83 59
69 69 77 93 106 110 109 99 86 95 105 111 126 146 158 160 163 172 172 153 132 110 122 125 99 99 106 152 162 153 142 134 129 127 127 127 127 135 134 117 89 73 61 25
67 92 122 137 125 116 113 102 92 100 117 141 165 164 164 171 166 142 119 105 100 105 114 107 103 108 115 159 148 144 140 132 129 133 125 83 130 127 113 102 92 84 47 12
115 135 155 147 131 111 102 90 130 151 172 190 192 183 173 155 142 123 121 119 106 109 113 104 105 113 137 140 143 132 125 130 135 125 120 127 120 114 106 102 86 55 8 -4
116 143 143 130 113 90 87 101 139 154 171 178 172 168 158 139 121 114 105 100 108 101 115 119 122 118 124 123 115 119 124 124 116 117 99 111 105 102 92 76 56 14 3 16
168 158 140 138 127 114 121 137 170 185 184 179 174 158 140 119 110 109 105 104 106 113 120 119 118 107 102 107 112 118 125 130 102 106 100 102 95 93 79 56 11 -5 6 21

GFSNGP_con_3kmhel_012.txt.gz
Helicity
111 96 0 41 112 117 107 88 85 26 28 19 46 59 35 69 121 151 154 156 154 172 200 204 245 259 280 278 249 204 163 130 119 108 82 103 116 97 93 88 73 68 62 55
77 87 61 62 66 89 87 55 33 52 28 66 94 83 92 119 169 163 146 133 154 180 188 224 243 267 284 276 228 170 157 140 118 88 85 116 105 97 79 66 63 64 72 67
101 89 88 75 54 67 66 59 67 58 8 79 102 108 106 149 157 146 134 134 148 162 175 215 245 276 286 245 199 182 159 130 91 78 115 107 90 75 79 81 75 86 73 71
86 105 78 80 93 43 63 60 80 53 74 61 83 174 224 241 210 211 204 180 147 155 192 234 290 292 269 233 204 173 135 94 97 109 109 92 89 88 93 96 86 79 74 82
61 4 73 41 34 67 102 30 47 19 95 126 206 267 285 297 282 247 205 154 132 145 197 262 262 258 245 225 191 155 103 121 108 104 103 99 95 103 94 96 86 80 82 88
109 53 46 58 34 33 40 42 41 123 160 206 236 179 223 255 238 209 161 117 130 167 214 224 238 231 219 208 193 143 130 122 118 105 90 91 100 94 89 86 85 98 89 100
46 43 65 29 33 39 62 49 65 113 169 210 209 231 214 179 147 113 107 108 133 162 174 204 214 210 239 207 174 145 127 125 103 89 95 96 89 88 86 85 88 84 96 107
76 67 39 66 97 67 97 84 83 140 187 227 206 176 149 118 100 89 93 114 121 148 189 212 210 205 212 187 158 127 122 107 96 99 102 95 85 82 85 77 83 94 103 110
64 60 73 91 109 114 61 87 125 173 160 148 138 118 96 93 88 93 98 109 134 176 203 206 205 189 187 174 124 123 113 108 105 98 94 89 84 77 80 91 103 101 103 99
103 85 98 104 133 147 137 167 164 161 148 115 106 89 96 96 90 84 98 128 154 182 200 209 188 174 160 133 125 118 113 105 99 95 91 81 86 90 97 91 92 93 96 114
107 98 119 126 148 178 204 210 213 178 143 130 110 90 89 81 76 87 109 146 169 176 173 175 174 152 139 132 123 115 107 94 92 94 84 81 85 98 95 80 86 94 106 132
59 59 99 83 164 201 232 213 182 159 146 141 118 99 86 88 94 107 135 163 164 168 173 180 166 161 144 131 119 99 92 104 102 91 87 93 93 96 86 72 65 61 58 98
82 96 139 189 244 247 274 217 185 149 120 109 104 89 87 92 110 142 169 171 167 166 181 183 173 159 138 113 97 95 95 91 94 90 106 106 106 110 111 115 96 76 60 58
151 221 207 200 209 234 227 203 169 134 118 91 83 85 104 127 144 146 155 172 179 192 192 179 160 138 123 108 99 90 87 79 94 104 109 117 120 120 131 130 126 128 101 82
191 172 159 235 273 239 190 137 119 92 80 78 76 81 82 95 103 121 170 193 208 192 165 149 141 134 122 108 100 97 98 102 112 121 132 132 133 127 125 126 132 135 126 96
232 244 262 278 231 161 130 102 84 72 71 79 76 72 74 85 122 155 170 174 165 142 139 139 133 129 121 114 103 91 100 100 111 138 143 142 132 124 132 137 131 132 124 104
273 263 242 179 112 95 79 74 74 73 78 74 67 65 81 115 133 137 142 144 139 150 155 141 137 135 118 100 96 107 126 138 134 138 128 134 128 127 130 127 135 127 114 94
114 120 84 98 82 76 80 77 75 73 66 61 72 86 90 94 92 111 135 155 161 160 149 145 141 118 105 111 118 128 142 148 142 135 136 135 133 125 130 123 123 112 111 98
114 128 102 95 91 93 88 76 71 76 73 70 80 74 76 81 100 140 168 172 174 173 181 158 134 117 123 126 131 133 138 137 135 141 137 120 127 117 126 114 109 105 110 108
183 162 127 127 103 85 88 88 84 82 79 74 70 76 78 98 132 166 179 183 177 172 162 148 131 129 128 123 116 126 127 130 130 136 141 132 124 120 115 101 104 105 101 43
143 105 98 82 90 94 98 90 80 73 73 70 59 64 91 133 156 180 185 189 201 170 150 134 129 127 129 117 102 120 129 133 135 140 137 127 117 112 112 110 106 103 47 27
92 80 74 84 100 117 113 104 95 91 81 79 89 111 136 155 166 170 162 164 178 165 135 124 124 122 108 92 116 129 129 134 139 139 127 117 117 116 110 107 105 77 50 6
67 76 93 102 106 121 122 106 88 79 88 99 107 121 134 153 156 161 175 174 146 126 114 114 104 92 90 110 127 134 132 130 126 121 117 116 114 110 115 106 81 46 29 -15
86 85 99 117 134 129 120 113 113 122 132 144 152 155 161 166 170 164 160 132 117 107 99 102 96 86 96 132 134 131 124 116 114 116 112 91 109 113 99 69 63 46 -13 -19
91 94 100 120 140 147 146 127 140 140 155 168 179 191 192 177 166 143 125 111 95 102 101 90 91 111 130 128 126 120 111 107 115 109 104 115 106 92 76 69 51 -28 -21 -14
65 81 115 141 153 138 122 106 125 117 127 152 168 162 151 140 128 115 101 96 97 93 97 103 114 121 120 117 105 96 99 101 103 104 107 101 87 81 72 45 -21 -32 -16 0
113 133 161 193 178 148 127 123 133 142 142 138 153 144 141 128 112 101 97 97 94 97 106 115 119 113 107 100 91 93 102 105 102 107 93 91 82 71 49 13 -37 -21 -3 14

GFSNGP_con_3kmhel_015.txt.gz
Helicity
129 122 -11 -13 7 23 18 14 37 25 29 52 31 18 43 35 42 73 94 132 159 159 162 165 186 225 250 281 262 260 255 242 211 166 116 94 94 101 120 112 99 82 80 79
94 97 70 20 -3 -7 36 28 10 19 38 87 142 125 79 61 75 93 110 159 153 153 156 174 201 237 268 259 279 267 261 230 173 119 95 93 97 114 113 100 79 70 75 92
68 52 74 64 30 41 28 6 21 37 17 35 78 76 58 61 77 88 129 133 130 128 145 195 219 227 227 269 279 277 239 194 146 111 89 98 117 117 97 74 72 87 96 105
94 84 50 83 82 4 21 33 19 1 22 121 73 61 116 137 106 137 169 154 140 150 190 221 229 221 286 291 287 251 214 172 128 80 97 122 113 92 81 89 98 105 107 119
90 69 102 73 28 57 38 -1 -8 -12 15 73 187 234 190 277 296 255 223 193 187 196 191 202 220 263 270 276 251 223 202 162 84 99 122 118 105 100 93 105 103 110 117 122
55 60 64 60 21 41 37 63 49 29 65 176 165 113 132 230 236 237 225 207 188 184 187 181 212 237 240 246 238 243 197 120 97 119 124 111 101 94 95 97 111 126 117 116
32 54 27 11 32 35 63 62 35 60 106 167 106 215 267 210 224 202 179 165 151 139 156 196 207 208 248 235 236 193 116 107 128 121 118 106 100 89 106 120 120 104 108 118
65 70 22 52 56 70 57 45 36 55 80 173 223 229 250 215 183 145 128 120 130 154 187 177 187 209 229 221 183 134 123 149 143 118 101 99 100 114 122 111 105 108 113 118
73 42 47 50 106 91 58 48 58 96 128 177 192 180 164 149 127 105 97 111 129 140 153 171 186 186 204 186 149 143 161 139 114 92 85 104 128 125 125 113 119 122 125 139
74 53 54 45 88 76 88 95 106 112 134 138 151 133 124 102 89 94 103 100 108 127 153 179 179 175 183 173 157 156 133 111 95 97 107 106 122 126 140 138 140 138 143 155
81 61 64 63 90 117 155 165 189 197 172 147 128 117 113 118 111 102 92 101 108 138 173 188 177 192 179 152 143 127 108 105 109 116 113 111 110 129 139 128 143 153 147 154
38 53 87 62 126 144 188 210 218 215 210 187 139 142 128 119 98 93 104 121 144 184 197 208 187 174 151 133 117 113 121 126 122 118 115 116 134 143 103 87 99 111 90 106
100 104 126 125 172 196 256 251 232 210 174 165 154 122 105 87 87 105 126 144 168 189 200 180 168 143 130 124 121 123 125 117 115 110 115 126 135 141 149 144 116 98 93 84
136 181 175 142 207 244 261 265 234 199 165 139 116 88 87 96 106 124 137 160 191 191 181 161 139 133 138 132 131 125 109 83 104 113 129 138 151 161 163 168 163 163 113 67
169 164 117 194 247 281 257 222 197 153 117 97 85 85 84 94 112 133 153 166 177 166 153 143 149 156 151 144 134 109 105 107 117 126 127 129 147 162 167 163 158 152 136 104
224 218 205 259 275 256 222 168 125 97 84 81 80 87 100 113 130 133 134 139 134 127 152 164 167 169 161 136 110 104 104 90 105 124 142 146 151 158 155 154 151 151 135 128
270 220 219 231 218 192 149 117 105 90 82 84 100 105 112 115 122 121 113 116 143 174 176 174 175 162 136 121 119 110 112 121 110 149 152 149 149 137 155 154 143 139 138 127
174 137 135 188 175 140 133 117 99 93 101 105 103 95 97 93 80 92 114 141 163 170 170 162 159 144 123 127 120 115 124 138 155 151 144 134 137 147 140 138 136 130 138 129
187 178 179 165 134 126 111 105 104 110 97 91 94 81 66 69 94 130 146 150 159 159 171 169 159 127 126 123 123 125 131 140 140 138 136 112 138 136 133 130 130 128 130 132
247 254 229 191 148 124 123 110 98 93 95 87 76 80 93 114 133 142 142 141 171 200 183 161 140 128 126 120 121 125 120 125 131 132 138 133 132 129 126 106 111 131 127 118
257 244 221 177 159 134 104 88 93 89 83 92 104 116 121 128 129 137 138 137 184 180 160 138 135 130 132 122 124 121 122 127 133 133 136 132 121 126 128 124 128 126 111 97
229 191 146 122 106 104 96 93 97 103 111 122 129 125 124 125 134 139 160 179 178 163 142 128 126 140 115 101 113 111 122 125 128 134 131 125 131 131 125 122 123 102 83 49
163 113 98 85 79 87 96 109 123 125 127 124 122 119 124 135 136 137 157 176 162 151 123 117 122 105 95 104 103 117 119 118 125 124 128 132 128 124 128 126 100 54 29 -7
111 89 93 91 90 98 117 126 146 148 147 148 151 149 141 145 167 177 175 154 141 126 107 99 95 83 81 97 106 111 117 125 126 130 125 91 121 126 115 97 68 51 -7 -12
108 100 98 106 117 125 147 150 159 151 155 164 173 179 182 185 187 161 151 135 117 100 90 82 80 79 90 96 109 119 121 114 113 117 120 126 122 105 94 84 38 -25 -15 -14
99 103 118 138 134 141 148 133 140 135 140 158 168 168 170 165 157 143 127 108 91 83 84 83 82 87 95 103 106 103 101 105 111 117 110 115 107 100 92 52 -22 -22 -14 4
143 136 140 146 154 162 155 149 151 154 148 146 167 165 163 151 137 118 101 92 89 82 79 82 87 94 104 101 94 93 103 109 98 107 104 107 98 88 68 -22 -22 -10 3 25

GFSNGP_con_3kmhel_018.txt.gz
Helicity
242 107 93 83 12 13 46 40 91 105 84 17 38 19 -16 11 113 182 189 199 196 237 208 205 229 236 263 293 284 283 285 277 248 218 181 144 121 98 91 93 92 93 103 110
52 32 101 63 22 45 28 38 37 43 65 46 102 71 34 48 94 145 148 186 227 241 202 236 248 268 312 315 295 287 282 264 241 201 154 124 98 80 79 86 90 94 100 115
73 47 75 100 52 36 19 40 34 37 10 58 129 148 88 89 110 158 161 201 225 217 213 261 272 317 328 311 277 286 276 257 207 173 139 89 81 83 90 87 86 98 110 127
58 45 26 44 45 18 63 73 41 27 27 87 101 283 351 218 161 150 157 196 209 224 252 286 332 331 320 292 280 273 256 214 184 156 90 86 87 89 81 90 104 115 121 120
70 57 87 27 37 45 47 71 49 32 47 184 256 315 318 368 371 323 356 333 279 294 339 361 363 366 350 295 258 233 213 192 189 147 89 89 93 77 88 109 114 121 122 121
93 92 70 80 41 44 70 79 77 64 73 229 273 221 170 234 341 376 357 339 349 343 342 363 336 312 287 228 214 196 197 188 151 86 90 79 74 100 108 108 106 125 119 124
45 73 55 6 3 35 69 63 63 88 149 254 278 161 233 297 303 283 272 272 270 262 252 243 225 220 236 205 194 192 169 143 88 74 69 77 109 110 102 95 122 127 125 119
80 14 26 44 55 45 26 37 43 106 185 312 273 279 283 257 234 221 210 190 179 208 201 185 183 210 185 194 175 155 135 93 69 80 99 108 95 92 92 114 122 128 121 116
58 25 35 68 68 61 39 35 76 131 156 204 215 204 197 191 179 144 128 127 150 159 171 166 172 166 186 160 152 125 93 94 111 113 103 86 84 91 114 111 127 127 128 140
84 65 69 55 54 49 79 107 130 137 151 153 164 146 157 146 124 111 95 103 128 138 148 157 172 196 173 145 116 103 119 125 117 101 77 93 102 106 115 119 122 130 135 149
76 76 73 60 52 130 190 201 203 193 158 156 168 143 117 96 84 85 91 100 100 102 131 137 137 157 143 121 120 139 135 117 93 91 104 103 106 110 112 112 110 117 144 163
62 55 63 36 121 178 218 212 210 225 222 196 164 149 129 113 102 103 99 83 105 151 177 153 155 143 127 133 141 136 116 91 92 106 108 114 121 123 88 75 70 80 74 96
57 112 99 136 172 178 216 209 213 231 214 211 172 149 146 132 108 94 97 109 148 163 177 163 156 156 145 134 133 111 91 91 105 111 112 118 117 120 128 119 89 82 64 68
160 219 176 142 135 218 290 288 273 255 215 184 175 152 137 107 94 105 113 131 173 192 172 161 154 142 140 135 111 96 101 101 113 108 117 120 117 128 139 144 144 148 109 66
175 149 139 248 311 313 295 274 266 233 206 185 139 108 79 76 90 115 143 165 169 164 157 148 154 146 137 118 112 111 114 109 103 114 120 104 128 137 147 153 153 153 133 100
286 287 274 287 265 248 244 241 248 199 159 124 92 83 81 95 114 119 124 128 138 126 135 157 150 131 132 126 128 124 110 89 89 117 128 136 140 145 149 151 147 136 132 126
305 260 252 235 232 235 241 226 197 152 108 94 84 85 100 105 105 110 114 127 154 156 149 135 129 137 134 125 126 117 113 107 71 124 135 138 144 148 147 145 142 135 134 127
166 212 175 189 203 265 271 218 162 122 106 85 81 83 82 84 86 96 113 134 148 142 123 136 153 148 133 129 128 120 112 111 112 125 136 144 138 138 139 134 129 132 131 137
216 202 192 229 249 269 236 177 143 113 92 80 83 89 99 107 110 111 118 118 109 123 126 150 150 135 126 121 116 113 106 109 121 129 134 119 142 143 131 123 125 128 139 133
336 327 323 297 260 210 172 126 109 105 84 90 109 112 118 127 124 116 102 129 130 133 143 150 141 135 137 122 96 107 109 112 121 134 145 136 138 128 118 106 113 126 120 97
320 318 301 274 233 172 130 93 93 99 99 101 105 111 112 104 98 100 118 131 137 154 152 142 128 132 130 101 102 107 109 118 135 144 143 137 126 121 124 121 120 122 96 52
270 265 252 213 198 176 132 110 100 93 101 122 125 116 116 119 135 160 173 139 125 163 141 126 126 121 103 95 106 108 118 131 138 145 140 130 122 125 129 130 132 106 54 9
249 223 185 159 140 122 125 119 108 109 115 106 111 123 130 132 130 126 140 140 142 131 119 111 106 100 94 113 110 117 126 134 135 131 122 119 128 135 126 123 92 29 -5 -16
233 193 165 125 118 132 144 115 124 124 144 167 173 155 138 142 160 146 139 141 135 119 112 100 105 104 109 111 116 125 132 127 118 119 120 83 134 133 117 100 54 -4 -25 7
199 169 133 140 141 111 106 97 132 153 173 176 178 173 168 161 130 127 134 125 121 119 111 106 106 101 108 116 125 128 119 112 107 108 118 123 120 118 105 85 -8 -21 -2 7
155 146 135 109 90 80 73 102 138 145 150 153 148 141 145 146 147 138 127 126 117 111 99 91 89 97 110 122 115 107 99 107 107 108 96 111 112 103 72 4 -21 -15 16 31
151 138 153 160 136 122 136 153 173 155 132 133 146 140 147 148 145 140 135 118 106 92 86 87 94 102 115 104 102 103 108 112 88 91 97 104 96 85 29 -11 11 33 51 71

GFSNGP_con_3kmhel_021.txt.gz
Helicity
142 90 40 4 58 165 219 233 242 98 81 -18 -41 -44 -18 61 171 225 244 288 295 265 235 216 219 234 257 262 256 262 273 270 231 191 167 150 124 99 86 90 93 87 84 82
226 21 -8 52 97 32 71 98 59 41 99 25 29 48 22 51 106 159 221 262 277 257 226 204 221 264 289 262 251 266 260 238 208 189 174 147 96 72 94 98 87 82 83 94
130 59 41 24 7 -2 94 4 45 46 89 110 90 21 -0 8 54 150 220 269 269 261 213 218 264 304 292 264 253 244 238 220 207 189 160 109 71 97 98 87 84 81 93 114
53 56 72 64 49 32 51 31 25 25 64 48 152 217 144 50 116 119 186 241 259 235 240 280 323 325 310 270 250 241 225 210 182 153 131 104 96 95 89 85 90 99 112 118
31 52 63 65 63 57 68 66 85 59 76 92 135 307 327 238 173 132 191 241 271 268 307 344 356 348 311 253 231 218 192 173 154 137 125 103 104 95 89 91 104 122 129 124
19 19 35 54 76 38 43 78 77 94 100 164 157 178 160 282 344 369 381 354 378 360 370 402 336 301 273 226 206 193 174 144 131 121 105 102 94 86 89 101 117 135 122 116
11 19 29 23 47 23 62 53 53 24 40 175 207 109 240 286 351 341 359 388 381 360 334 278 268 259 227 211 191 155 141 133 117 108 97 77 79 83 99 118 125 125 121 120
67 33 41 37 23 42 10 36 38 59 153 281 256 289 309 303 280 275 280 263 246 257 229 206 211 238 210 187 135 139 129 118 108 93 74 73 79 98 112 113 112 119 128 131
52 15 14 62 42 42 24 24 23 67 94 203 231 230 229 235 220 199 186 180 179 207 225 194 188 168 160 119 128 123 123 122 101 83 74 87 105 105 105 107 119 120 128 121
71 32 40 35 48 69 45 59 67 86 99 126 155 139 171 172 162 154 126 128 143 178 189 173 137 140 142 125 125 131 124 102 85 92 104 111 103 96 102 113 122 115 104 119
65 60 63 53 52 99 116 124 144 131 113 113 145 122 114 104 98 95 96 109 125 126 122 130 148 152 137 133 122 119 102 94 102 107 110 96 90 90 106 96 101 114 120 137
3 36 42 31 98 152 156 122 126 171 162 137 122 118 106 93 71 82 98 90 99 98 113 110 139 147 127 109 105 104 116 114 106 102 95 96 104 106 85 89 79 73 93 132
70 85 77 105 198 168 205 196 194 204 165 166 152 131 116 107 89 95 100 93 92 92 115 132 137 120 103 108 117 127 120 105 99 96 95 102 106 112 117 99 70 87 103 111
113 173 144 136 98 175 244 240 270 267 236 194 162 149 143 146 117 92 71 77 114 136 138 130 124 120 112 122 125 120 116 98 93 89 97 103 105 113 113 114 118 132 121 88
127 75 106 185 246 253 253 282 308 265 220 209 164 149 138 117 76 63 74 111 142 156 148 141 136 130 118 117 125 124 107 91 91 97 102 107 117 119 126 138 152 158 136 100
211 218 206 239 230 227 257 256 276 218 195 179 163 132 89 74 70 76 92 117 148 128 124 131 132 107 113 127 129 109 98 101 106 110 115 122 125 125 136 152 156 141 125 113
272 232 234 221 208 190 192 207 211 184 169 158 123 80 82 76 90 115 128 115 122 119 109 118 118 121 128 120 111 104 103 108 112 119 126 123 123 135 155 157 149 130 115 103
177 215 184 203 212 246 251 251 220 173 134 91 73 74 72 77 86 99 108 122 138 133 126 126 127 123 114 108 109 108 113 112 117 123 118 124 133 149 156 150 128 110 112 107
181 231 209 242 250 256 249 230 187 139 99 81 86 83 81 87 84 87 91 102 108 129 113 121 123 118 121 112 120 115 114 116 117 117 129 129 156 156 147 127 109 108 107 102
255 261 277 282 253 241 237 197 157 129 91 93 102 113 121 101 104 107 116 151 127 106 102 100 112 122 117 110 114 118 115 115 121 133 142 154 155 140 124 97 99 105 101 95
282 283 304 282 274 242 203 134 117 101 70 75 95 97 112 111 116 119 147 139 99 102 106 123 120 115 108 109 121 109 115 127 137 148 154 150 133 120 107 104 108 102 98 34
240 251 270 256 248 218 149 117 102 93 103 117 122 126 148 157 171 178 123 100 88 130 126 126 114 111 104 126 108 118 129 141 154 159 145 129 119 117 115 108 110 101 71 -41
237 248 255 230 195 170 143 114 97 95 107 106 113 130 141 111 93 108 114 102 120 141 132 121 116 113 127 122 121 131 144 156 153 135 123 125 123 123 110 105 98 91 -26 -30
253 237 225 176 157 154 153 117 135 138 148 161 163 134 129 142 158 141 133 144 152 149 134 119 116 121 135 121 130 144 150 145 132 129 116 95 112 117 112 100 89 -39 -25 3
221 187 141 136 145 118 113 111 150 160 188 197 192 162 133 98 94 90 119 130 152 141 125 118 122 128 130 131 140 139 128 124 113 105 103 105 100 102 91 73 -23 -27 -12 24
175 140 116 103 89 76 78 89 121 115 140 166 159 132 131 124 122 128 135 147 134 130 110 104 109 119 121 128 127 110 106 115 104 98 85 99 96 89 66 -16 -16 4 45 85
204 165 166 160 119 90 85 91 97 96 120 128 138 105 111 123 142 153 156 135 120 110 110 110 112 116 121 116 97 95 105 104 81 83 87 93 92 88 -12 1 38 75 105 121

GFSNGP_con_3kmhel_024.txt.gz
Helicity
271 191 69 -3 76 148 138 31 139 78 40 146 32 29 54 112 147 171 173 192 203 200 189 211 229 235 235 234 233 229 234 216 209 203 198 194 177 149 126 128 136 135 128 113
261 109 59 7 90 139 113 120 101 493 232 51 58 87 69 73 119 137 170 186 196 201 201 192 211 237 262 257 233 215 204 202 203 207 196 179 161 140 137 141 139 130 120 103
113 -29 -19 44 123 225 155 170 253 109 44 68 58 46 21 27 68 118 164 209 220 211 185 193 234 257 248 230 207 199 199 199 197 188 181 168 155 156 144 137 127 113 103 108
140 111 57 32 67 109 142 41 37 35 82 89 73 93 90 61 33 58 128 179 204 213 207 226 243 256 273 233 198 191 187 183 179 177 174 168 160 143 133 122 116 108 103 96
76 112 113 77 52 52 43 15 7 26 35 44 100 141 120 82 47 118 169 198 218 227 270 279 278 270 262 207 193 190 167 170 179 178 171 152 144 150 122 115 112 104 97 97
22 13 32 53 73 41 35 34 47 52 81 73 98 106 76 107 120 200 254 254 290 279 289 301 268 279 243 192 180 170 172 173 166 157 152 145 137 140 107 108 92 93 103 109
-6 4 46 36 27 7 39 32 33 20 35 134 142 78 167 176 257 271 268 276 286 285 282 276 269 258 231 195 175 168 179 176 157 146 147 141 135 116 102 93 96 108 112 120
23 -6 29 40 43 50 15 27 30 15 43 169 185 262 272 246 264 280 313 310 298 319 286 248 243 242 200 190 178 180 167 158 155 156 148 137 130 106 97 100 104 110 119 127
24 13 17 36 43 40 14 6 17 20 67 181 225 216 219 226 243 266 286 292 261 276 254 207 191 201 217 162 158 161 161 173 175 161 148 132 113 99 101 107 115 118 125 120
10 -19 0 4 54 63 51 39 39 37 68 130 207 180 222 235 231 222 202 205 193 214 206 199 183 179 168 147 149 160 184 175 162 157 137 113 101 100 103 113 119 122 122 130
-17 -2 10 7 22 53 86 87 97 93 85 111 158 136 140 152 153 148 139 139 151 164 172 160 155 171 158 154 157 177 170 163 149 125 106 104 110 100 113 104 112 124 133 141
105 22 38 55 67 79 97 88 80 116 125 120 117 123 117 123 103 113 135 132 160 157 155 137 162 169 158 148 152 161 159 135 109 104 109 115 119 125 111 105 96 103 125 143
67 67 95 56 127 108 138 117 110 124 99 121 110 118 124 133 114 120 120 109 97 87 108 130 155 166 150 143 151 144 127 107 106 118 115 119 125 129 129 108 87 106 115 130
86 125 129 93 67 123 193 185 204 205 174 163 163 146 136 140 114 109 77 63 95 119 133 147 155 156 138 136 135 125 117 124 119 111 117 123 126 125 130 134 130 128 118 109
74 46 60 154 186 186 212 234 260 225 205 215 162 141 132 131 119 99 86 117 140 147 146 152 156 140 123 121 128 128 124 118 117 122 123 124 132 138 144 141 137 141 140 105
114 129 137 188 195 194 232 238 264 213 203 173 159 143 132 139 121 103 102 112 135 119 124 139 138 114 116 126 130 126 126 132 126 123 125 131 133 139 142 146 149 142 125 102
172 138 161 184 180 193 198 197 209 189 176 167 142 135 153 139 124 116 107 107 142 144 126 126 123 118 123 124 128 128 126 117 112 125 131 129 134 137 151 152 145 124 106 98
131 173 146 210 229 240 224 231 212 176 151 127 129 131 112 95 87 94 117 154 179 172 142 125 120 120 124 125 128 124 113 111 117 124 125 129 137 152 153 147 124 110 106 98
151 221 227 258 228 234 222 206 186 172 144 126 116 86 78 88 100 116 127 152 141 144 114 113 128 132 135 129 126 115 111 113 117 124 134 136 157 151 139 119 111 107 107 100
229 252 268 264 224 222 219 197 190 165 124 123 124 115 114 106 122 140 137 145 114 108 99 112 127 133 122 104 124 117 124 125 128 134 140 156 143 131 119 101 104 107 101 99
222 250 297 287 268 236 228 179 170 142 105 95 102 107 122 123 135 144 169 161 107 105 120 131 126 110 98 123 122 118 120 125 130 138 144 137 120 120 117 112 108 104 101 88
228 269 295 256 287 272 219 178 151 120 105 125 147 153 157 149 163 173 129 113 96 124 121 120 106 106 122 134 117 124 130 136 139 140 131 127 130 126 117 111 109 95 72 -34
263 287 280 271 254 226 196 153 120 111 121 118 121 124 138 123 115 141 132 102 116 125 121 110 117 125 140 125 124 126 134 138 134 119 127 135 130 127 113 105 88 72 -26 -28
289 282 279 246 222 204 189 134 153 153 150 136 135 130 143 165 186 159 140 124 130 126 120 119 120 128 133 113 121 135 136 127 112 122 126 104 120 108 100 88 69 -20 -19 14
265 251 217 192 189 158 149 140 177 167 181 187 176 163 150 111 96 88 105 113 132 129 121 120 128 128 118 130 134 130 118 108 110 118 117 112 103 98 84 75 -8 -18 18 57
215 180 156 130 121 100 108 110 139 117 146 177 192 177 163 139 120 111 112 126 121 125 114 108 108 119 125 122 121 109 104 107 107 108 97 104 91 86 82 -5 2 40 88 130
240 184 175 176 131 99 84 93 117 104 124 157 177 126 116 108 109 118 123 114 112 112 112 114 116 119 117 115 105 99 104 110 89 91 93 90 89 94 10 7 50 96 129 144

GFSNGP_con_3kmhel_027.txt.gz
Helicity
301 246 75 89 -5 106 250 141 135 43 156 98 46 95 81 78 196 196 160 164 205 241 244 246 248 233 239 247 247 243 241 231 214 209 204 201 209 207 198 195 181 161 151 137
319 286 218 96 23 34 87 51 -4 46 186 150 285 218 98 128 121 118 112 149 178 206 224 212 207 218 239 247 234 220 216 210 201 199 204 208 211 203 202 194 168 149 141 124
343 37 -25 69 117 67 222 145 177 280 411 296 172 127 164 73 69 80 93 143 175 189 186 186 206 248 236 216 213 211 204 188 186 192 205 214 206 211 196 163 147 148 133 117
240 67 50 173 161 159 347 364 328 295 205 167 78 51 78 80 69 60 94 123 146 181 202 217 230 224 238 214 196 194 194 185 184 200 206 206 215 192 160 154 154 142 116 105
101 98 67 87 151 199 158 236 191 98 163 103 73 99 112 97 59 100 133 150 179 196 223 221 222 221 239 216 206 195 173 174 190 193 206 200 181 179 171 159 133 112 101 96
33 61 43 39 5 9 94 87 103 195 128 -6 50 47 33 38 69 132 184 201 229 228 236 246 210 239 248 206 193 175 165 180 188 198 185 186 191 190 136 119 109 103 104 113
23 28 64 43 61 31 15 -5 12 15 -5 60 59 66 86 118 188 175 181 204 215 213 221 219 239 260 246 201 171 163 182 197 198 199 202 195 173 136 123 116 109 118 109 100
8 -2 18 51 41 42 32 51 55 30 57 136 115 125 160 188 197 200 223 221 227 278 268 237 234 257 222 196 173 193 201 213 219 214 193 161 160 135 121 116 111 99 105 118
27 29 4 15 5 7 13 10 12 -2 37 128 127 135 154 193 217 230 233 243 240 283 280 239 220 211 213 172 193 215 231 225 214 185 178 159 142 127 114 107 97 102 119 123
-8 -0 34 35 33 55 54 32 27 20 42 109 177 156 183 194 205 231 226 236 238 277 271 239 208 216 215 202 209 219 227 211 188 169 154 139 124 108 98 94 103 114 116 128
40 16 35 10 51 46 69 52 70 83 83 129 193 160 150 175 193 200 211 214 208 216 220 217 221 229 199 192 200 224 200 175 165 150 141 128 112 89 98 96 102 120 129 136
17 31 29 30 37 41 68 63 59 96 118 121 130 133 140 156 134 140 156 144 185 194 210 196 213 216 203 182 168 173 174 159 144 135 126 111 107 112 102 102 102 107 111 130
57 78 102 44 97 77 98 80 97 113 105 142 133 132 139 142 122 129 143 158 158 156 170 180 199 210 171 157 160 165 155 141 131 122 105 105 111 111 115 109 101 103 117 127
73 108 115 99 68 89 138 149 187 195 157 133 126 137 141 148 121 129 122 118 134 157 167 177 190 185 153 150 153 149 139 136 109 97 101 106 110 113 122 128 126 120 112 115
125 84 78 129 163 146 150 185 213 185 166 181 145 150 145 148 148 139 122 129 153 169 167 172 171 149 131 134 138 130 116 104 103 109 107 107 114 128 133 135 134 139 141 109
101 88 108 147 130 130 161 185 230 178 172 157 154 149 149 165 154 130 117 120 148 124 126 145 145 120 125 123 116 113 109 121 122 108 106 120 128 125 134 138 143 142 130 112
127 86 111 146 166 161 159 177 192 160 149 148 154 154 182 177 159 143 128 122 145 142 128 131 123 109 108 112 116 112 114 103 112 119 121 113 119 134 145 145 137 125 119 104
88 123 107 186 199 210 204 207 201 171 161 167 174 170 153 126 114 118 131 158 186 183 137 109 103 110 117 114 117 107 103 109 114 110 108 124 135 147 142 133 128 127 119 103
126 171 184 228 215 226 216 208 195 193 197 175 161 131 109 115 116 120 126 147 137 131 96 106 129 129 124 113 118 110 114 111 106 113 128 134 148 137 126 130 124 115 109 101
228 216 250 266 233 237 235 210 230 223 175 164 147 135 132 115 124 134 129 131 95 98 104 115 120 116 112 121 129 111 108 105 116 128 136 145 132 117 124 109 103 107 102 101
222 230 259 263 259 238 230 201 223 197 138 114 121 114 125 118 116 121 144 152 112 108 109 119 112 108 110 121 119 109 107 117 127 129 126 123 112 118 120 108 102 101 94 78
220 260 280 290 302 286 244 227 206 162 132 140 150 151 146 131 145 170 134 112 88 110 107 110 103 117 128 129 108 110 120 124 119 120 120 114 117 121 114 106 103 90 69 -28
231 264 272 276 283 281 272 226 166 135 126 115 121 128 131 114 119 141 123 85 97 112 111 106 119 134 129 114 112 118 117 115 119 115 112 118 122 121 110 106 88 81 -33 -12
266 253 267 272 271 266 244 174 164 152 154 147 141 122 138 154 148 108 111 109 122 126 125 125 121 124 122 111 112 108 110 118 112 108 114 101 116 113 105 94 82 -36 -14 48
255 258 272 279 260 220 187 158 190 178 185 177 157 139 134 110 86 85 103 110 138 135 123 119 121 122 111 105 102 112 117 110 99 108 109 109 110 106 88 88 -25 -7 44 94
250 259 242 191 182 155 142 138 171 142 156 162 152 135 133 132 127 116 118 129 118 121 110 106 104 106 99 98 116 117 109 104 106 104 93 105 95 86 84 -26 5 46 93 132
323 272 248 241 187 150 135 135 150 115 103 120 148 115 123 120 118 117 116 107 107 109 108 104 96 96 105 117 115 107 106 111 88 90 100 91 89 93 -21 10 55 94 120 153

GFSNGP_con_3kmhel_030.txt.gz
Helicity
373 383 313 305 263 294 218 316 337 162 267 291 41 -56 -36 25 119 131 121 114 109 160 213 255 294 309 315 333 318 277 275 261 245 235 221 206 200 193 189 183 179 160 150 141
455 458 307 278 280 268 254 193 213 246 231 118 -47 -17 57 157 196 186 148 88 84 113 182 220 251 266 285 278 255 236 236 234 219 217 211 204 197 190 188 183 169 155 144 140
412 258 107 154 184 191 223 176 239 397 504 136 278 301 272 245 200 116 85 67 37 97 157 188 197 227 233 216 209 219 221 208 207 207 212 201 189 189 187 174 152 146 143 118
269 178 222 303 249 155 252 240 435 439 470 450 285 205 130 150 104 81 66 46 78 135 173 190 215 222 225 196 193 209 213 210 206 207 204 194 196 186 170 154 152 133 109 105
81 116 221 216 286 240 163 204 205 276 325 235 161 218 139 102 117 110 72 71 101 124 171 184 194 198 224 218 221 221 209 196 183 185 191 187 184 173 155 151 129 113 104 97
58 86 65 155 97 160 151 162 149 109 118 151 148 189 157 84 49 75 123 139 155 155 178 206 185 218 238 217 218 195 173 183 186 190 184 178 160 157 132 115 121 110 95 91
44 37 38 90 114 88 73 81 27 84 79 43 21 33 17 40 111 131 132 160 172 162 166 181 202 234 245 209 181 179 204 214 213 189 177 161 149 123 132 128 110 101 92 102
-8 14 12 43 31 -0 62 35 38 24 -6 -6 19 44 13 95 127 129 156 163 177 222 215 198 206 245 228 209 190 223 234 216 195 180 164 144 153 135 120 109 99 97 108 115
53 25 17 10 -17 -12 47 29 21 -14 17 89 108 51 126 178 168 169 171 177 173 223 246 221 204 212 246 199 232 228 218 196 175 168 161 152 137 118 102 97 97 104 112 113
-4 -17 -12 -0 2 12 16 4 -18 10 43 68 98 99 146 166 174 185 182 185 190 239 248 249 240 261 241 212 204 204 199 182 170 165 151 128 107 97 96 100 109 110 111 114
32 10 2 18 8 20 36 21 41 49 63 82 112 113 113 145 166 173 184 187 200 244 267 268 267 260 202 173 180 197 186 175 159 132 120 109 95 87 100 93 92 99 105 115
-10 -19 31 39 44 35 36 35 46 82 121 120 97 119 119 143 118 123 167 172 241 251 274 250 242 211 179 161 165 169 158 130 120 113 102 101 106 110 108 88 80 93 104 124
34 40 66 98 110 49 63 52 57 89 76 111 106 106 121 126 123 140 169 192 199 199 199 196 202 202 165 144 138 142 130 112 106 110 106 109 110 108 109 109 91 94 123 139
77 97 103 74 65 78 114 114 127 145 137 122 103 123 143 156 133 161 161 149 159 173 162 156 170 168 133 124 134 123 121 130 108 104 102 99 102 108 114 112 114 128 126 115
82 83 74 120 147 142 116 132 182 152 129 154 130 135 135 145 158 150 133 134 139 144 140 150 156 133 106 111 121 118 107 100 99 96 99 102 110 111 112 128 134 132 128 103
99 124 120 152 151 138 162 156 190 137 139 141 151 155 156 163 152 133 99 86 114 100 101 125 127 102 109 110 107 104 100 101 108 106 106 113 110 115 130 130 130 129 127 126
110 83 101 122 120 124 110 118 147 141 154 170 166 136 176 176 161 132 111 110 129 124 108 116 116 101 99 99 98 87 93 102 112 110 109 104 114 122 122 124 124 123 123 107
50 81 74 126 147 177 175 191 200 191 191 176 166 150 155 135 116 111 126 148 169 169 132 103 94 98 96 91 93 97 101 102 104 104 104 113 110 116 120 124 120 116 112 99
79 118 143 182 179 211 228 239 222 211 208 173 178 153 123 116 115 109 113 140 137 137 89 91 112 103 96 104 103 100 105 108 111 113 112 104 120 125 125 118 108 105 103 99
169 194 221 252 230 257 264 222 229 237 182 199 174 146 135 109 109 125 132 134 91 84 88 94 96 99 103 108 116 105 110 117 118 108 108 128 126 122 110 92 97 101 98 89
226 240 247 277 301 271 244 193 220 219 160 143 140 107 113 111 108 111 132 136 97 92 89 103 95 97 99 107 112 112 116 114 109 115 122 124 115 108 105 105 104 99 85 76
213 254 276 294 300 292 228 232 227 214 165 151 142 143 140 117 123 142 112 102 80 103 94 94 90 116 109 120 109 114 113 112 116 119 122 116 106 105 109 110 107 88 86 -8
215 248 262 258 280 290 265 266 216 164 132 111 110 102 106 92 90 116 117 80 89 104 101 97 115 126 121 115 115 118 118 117 115 113 108 104 108 113 112 107 87 91 18 13
253 263 281 264 280 299 290 231 201 164 152 136 123 106 117 118 129 106 119 111 122 120 109 109 117 123 127 116 121 118 113 109 108 101 105 88 110 113 107 96 97 27 12 62
242 258 261 264 282 289 249 205 216 185 182 165 138 106 99 93 84 88 108 103 123 121 115 120 126 127 118 116 112 108 106 109 101 105 109 109 111 104 93 96 19 23 59 83
238 241 243 224 235 216 212 167 178 135 149 147 124 108 128 139 136 115 106 111 107 115 109 108 109 116 113 104 108 108 109 105 105 106 96 105 100 88 91 33 32 68 95 116
298 302 302 320 262 205 160 134 143 105 96 111 142 116 132 126 110 104 108 102 100 104 110 109 108 106 104 104 109 106 109 118 95 98 104 98 88 91 66 29 71 104 119 145

GFSNGP_con_3kmhel_033.txt.gz
Helicity
327 327 302 415 393 374 530 509 360 348 390 357 203 126 62 -11 -58 28 108 101 144 131 176 218 275 304 316 339 332 326 341 318 268 249 236 218 199 180 168 162 152 132 121 126
331 341 363 412 338 248 347 416 324 300 291 278 197 64 -41 -15 18 139 127 134 121 115 148 191 222 251 289 300 305 300 309 280 232 224 210 199 188 177 171 157 138 126 122 121
249 109 213 259 204 178 145 322 155 160 196 100 68 2 51 179 233 197 170 118 62 59 66 121 167 213 243 256 277 287 265 214 205 202 203 193 178 169 156 140 121 115 122 109
237 168 237 320 261 178 106 247 239 145 142 98 148 221 316 278 195 226 161 60 28 45 91 130 176 211 246 244 237 241 221 202 191 199 200 182 168 151 135 118 120 113 107 102
118 182 215 213 223 285 229 162 307 314 311 348 313 313 191 127 131 194 126 40 30 53 101 134 157 191 240 224 219 209 190 180 182 182 175 155 149 134 120 121 111 112 95 94
70 151 111 157 133 140 126 85 143 220 226 304 179 195 159 147 106 102 109 77 98 104 134 163 156 193 222 195 185 182 178 184 171 156 145 134 128 130 111 109 112 102 91 82
91 74 92 105 147 75 16 66 64 119 157 180 184 170 132 58 69 59 52 75 86 102 117 140 160 191 199 178 192 190 200 183 161 140 144 132 121 112 108 111 106 96 93 100
28 26 36 0 36 30 97 59 26 2 -5 30 10 46 81 46 63 62 110 114 115 152 154 137 145 194 208 225 186 187 175 169 159 143 128 121 121 111 113 102 99 96 90 97
52 37 38 42 94 81 80 96 36 -9 -27 -45 -5 7 23 65 77 64 93 122 127 194 204 169 154 200 255 171 170 178 179 157 148 141 126 113 118 106 97 94 87 89 93 97
14 1 -1 5 0 26 21 0 -27 -17 1 22 69 64 114 123 101 99 121 144 161 221 239 229 215 225 204 155 157 173 168 138 117 123 127 113 101 93 88 81 85 93 100 103
12 16 10 5 -9 2 20 14 30 37 38 66 102 103 102 114 120 139 165 174 201 242 252 246 235 219 162 153 158 153 131 127 134 123 110 100 91 77 78 75 77 90 98 96
-1 -16 -8 8 24 16 19 19 24 69 86 89 85 71 97 123 130 157 183 181 255 256 273 235 224 189 141 113 121 134 141 121 106 98 93 88 85 89 92 102 106 106 97 107
24 32 31 62 99 58 45 43 66 92 64 86 69 84 104 128 147 169 200 206 211 212 218 207 184 164 127 117 118 123 117 100 91 90 85 86 90 101 103 110 96 99 110 109
59 90 72 49 68 81 102 121 122 125 108 120 114 117 147 169 165 193 190 173 179 182 169 159 164 148 106 106 125 110 95 106 85 80 85 95 99 100 96 88 88 99 107 114
82 59 78 96 146 134 123 148 156 144 122 148 131 145 146 166 172 159 138 147 158 157 133 132 142 119 83 84 96 91 87 82 84 90 90 98 95 96 101 104 104 106 114 110
85 97 147 133 90 114 119 153 186 131 130 123 141 150 154 170 148 135 118 93 118 92 89 110 107 67 70 84 87 85 87 109 103 89 90 94 101 105 105 108 115 117 111 105
138 129 73 99 106 107 91 113 144 120 139 147 148 134 179 182 167 137 94 88 109 94 76 87 86 79 89 83 84 81 85 84 100 95 98 99 98 104 113 122 115 102 98 94
-11 -56 25 113 124 168 171 184 183 162 169 154 141 121 154 128 101 80 96 121 142 132 97 82 78 85 91 87 85 81 85 90 96 98 95 99 113 126 123 109 102 100 93 83
38 48 109 159 149 187 195 208 204 208 204 143 141 119 113 103 86 78 78 104 110 122 74 74 106 100 85 93 93 89 95 98 99 101 110 121 133 125 113 101 95 86 79 76
111 138 180 222 205 228 255 227 222 215 161 173 168 149 135 92 83 98 108 113 71 65 65 81 84 90 96 100 106 93 98 103 109 123 130 135 123 108 97 87 86 82 75 53
196 209 245 266 261 260 260 197 238 230 150 154 165 121 104 90 99 106 129 126 68 72 75 89 83 89 88 93 97 97 102 114 129 137 132 123 107 100 95 94 87 76 57 47
179 224 254 279 287 298 239 221 250 247 207 190 174 145 140 116 113 126 92 81 53 87 76 80 84 99 93 107 97 106 119 131 135 130 122 112 101 95 95 92 86 63 58 -3
185 237 279 276 282 295 301 258 265 222 200 140 121 102 99 81 90 124 106 53 73 84 77 75 101 107 107 98 105 118 130 133 128 119 110 99 96 100 93 90 70 68 -10 33
205 245 294 291 298 321 318 271 267 227 191 138 120 98 116 124 122 79 103 88 101 97 91 98 103 104 105 100 116 128 128 124 116 110 98 80 102 92 91 80 84 -4 24 79
215 243 269 277 294 270 269 263 262 212 191 171 150 126 114 96 73 75 100 87 113 115 111 106 102 103 104 115 126 133 125 117 113 110 112 104 99 97 79 78 16 28 74 94
205 218 230 215 241 254 265 226 230 160 169 177 151 123 118 127 137 107 93 103 101 106 89 84 86 102 109 117 129 123 115 108 102 106 99 106 94 73 66 26 23 76 100 131
224 245 290 308 263 235 203 207 221 151 130 132 158 113 123 125 102 99 106 96 88 85 86 86 93 105 109 115 118 112 104 105 95 107 116 97 73 68 37 24 62 101 130 151

GFSNGP_con_3kmhel_036.txt.gz
Helicity
122 124 136 225 305 323 244 448 361 434 234 181 43 30 35 66 47 27 35 -25 15 53 87 129 168 187 252 295 315 330 390 379 330 292 279 262 236 207 189 171 164 148 131 118
160 164 160 314 278 177 129 132 210 236 106 97 87 35 12 55 46 51 15 44 48 73 85 105 151 223 304 302 312 333 382 313 291 281 272 241 210 185 170 162 146 127 123 118
134 105 189 37 100 122 104 138 44 67 52 30 42 17 27 36 17 41 46 53 41 57 113 139 161 218 272 288 278 306 301 260 268 257 238 206 178 166 152 141 127 123 112 102
116 105 88 163 145 161 128 71 101 58 47 38 41 47 25 4 59 68 52 71 85 104 123 136 166 216 255 248 265 236 212 232 225 211 196 171 155 146 139 130 120 108 106 105
72 111 171 121 86 80 62 84 76 112 107 114 134 146 64 93 127 105 100 82 43 42 72 99 129 167 203 194 198 208 206 200 182 159 153 142 139 134 127 107 106 108 97 94
44 55 55 63 72 54 76 76 65 130 178 185 154 44 38 105 154 102 80 41 15 20 36 76 101 128 164 180 182 181 169 163 153 146 138 137 127 112 110 115 104 94 96 89
79 53 55 73 86 84 14 122 76 144 116 184 168 81 65 50 -33 15 42 24 30 35 61 77 93 126 193 175 175 162 161 164 158 146 138 119 111 113 103 103 105 105 91 85
37 38 20 17 38 25 65 68 48 14 22 94 94 94 71 47 10 -1 4 13 26 91 91 82 104 158 161 168 149 161 159 156 141 122 112 107 107 105 116 114 101 91 80 85
41 22 1 19 48 66 81 59 3 -12 -38 -14 3 -10 -9 10 31 7 36 30 28 93 118 93 88 111 179 149 156 150 138 129 117 111 110 111 118 116 103 91 81 82 87 91
11 12 4 4 30 21 22 13 -49 -36 -35 -6 46 31 43 43 52 62 55 71 76 113 142 144 124 165 182 122 117 124 123 115 109 117 120 118 109 97 80 80 82 81 83 90
16 78 12 -8 8 24 24 3 -2 10 29 49 74 58 84 102 98 97 107 109 108 144 171 171 159 173 134 111 99 116 116 115 121 118 115 104 88 81 80 86 78 80 90 101
-13 -21 -22 8 18 23 20 16 17 62 66 70 62 70 97 130 115 115 131 133 166 182 205 178 160 146 114 95 97 115 126 121 115 102 89 87 86 79 83 73 73 88 108 124
-19 5 5 37 62 68 59 37 49 57 72 79 80 94 118 147 126 140 149 156 187 188 177 154 160 155 120 114 117 129 132 112 94 91 92 86 82 81 82 91 86 109 128 128
27 45 24 35 57 80 99 112 96 106 86 63 82 103 132 154 152 161 138 137 146 168 165 154 153 153 123 122 129 129 116 110 95 86 79 76 78 82 88 96 104 113 117 120
20 67 87 98 135 116 109 122 147 135 69 106 94 100 113 134 139 142 134 131 148 159 138 131 149 150 114 106 111 101 90 83 78 77 79 84 89 93 102 104 105 109 117 114
112 79 91 96 92 101 112 123 181 130 67 89 117 112 123 151 160 152 130 107 127 118 112 129 138 109 93 89 91 83 85 89 83 88 93 95 96 96 102 111 111 114 117 120
93 67 110 92 72 47 44 49 69 122 91 95 121 127 155 179 178 152 123 102 120 128 114 105 103 85 82 72 66 66 74 87 100 96 92 91 99 107 112 118 123 118 109 105
5 8 1 55 103 136 121 114 120 148 136 122 124 125 162 152 146 120 110 112 132 134 102 89 85 78 72 68 70 76 84 91 89 89 92 98 107 117 126 123 116 110 103 91
7 -18 33 84 121 154 149 157 155 171 161 133 135 118 133 131 117 100 88 100 105 109 81 76 80 75 74 78 80 82 85 87 93 98 101 107 123 129 125 119 113 108 94 80
46 63 102 153 170 197 210 174 192 202 169 162 147 155 146 112 91 89 78 94 67 72 71 70 70 76 82 87 84 84 94 96 98 107 116 129 130 130 125 115 109 96 83 64
94 121 165 213 211 188 195 182 214 196 165 155 173 137 129 97 85 91 101 101 78 79 77 73 68 73 72 77 84 91 94 101 111 126 133 134 133 125 117 113 98 86 64 49
129 151 184 229 262 256 230 205 227 251 225 175 187 170 157 120 96 92 71 89 74 77 67 68 71 77 82 87 89 95 100 111 122 129 134 136 128 123 111 97 85 63 51 27
119 143 189 226 276 319 290 262 248 219 218 167 159 133 112 88 65 99 100 71 76 72 71 73 86 88 94 91 94 97 105 118 128 134 136 132 127 113 98 84 60 52 37 40
144 168 210 249 302 341 343 277 290 200 236 206 150 107 124 112 101 69 105 95 100 89 85 81 83 95 97 93 94 100 116 127 129 134 135 124 123 103 82 58 51 49 38 68
167 215 245 261 279 288 307 296 279 278 253 225 149 122 111 85 77 97 111 96 103 98 86 86 93 99 91 91 99 114 123 126 129 123 129 122 105 75 51 47 49 44 68 81
165 191 210 208 226 274 292 236 257 221 235 214 160 128 117 114 161 140 116 104 89 82 70 74 85 88 89 98 114 123 123 117 112 111 97 81 60 54 53 47 43 69 78 96
219 250 284 268 248 265 223 222 247 223 177 173 184 122 127 147 134 127 110 87 71 64 69 77 82 87 96 107 121 123 112 103 93 86 70 67 67 68 51 42 68 82 90 101

GFSNGP_con_3kmhel_039.txt.gz
Helicity
42 46 21 26 62 107 108 213 331 341 136 139 1 -5 29 13 -2 15 48 9 -8 -23 -9 67 89 125 189 196 180 200 266 290 337 378 366 353 301 282 254 216 186 158 152 137
64 23 28 85 39 41 90 114 135 106 128 70 46 21 5 3 26 9 36 -1 -2 -8 16 116 184 167 182 195 226 287 335 390 390 385 322 241 228 217 200 187 166 157 140 134
40 49 96 7 48 86 44 65 79 61 51 19 34 19 -7 -23 -25 -15 -7 -18 -0 1 50 96 125 177 201 240 307 377 431 416 370 324 232 269 212 207 171 177 145 137 129 129
37 60 4 21 71 72 142 44 25 42 39 11 5 52 36 -12 1 -16 -16 1 4 44 63 119 156 167 190 264 327 377 374 357 303 236 211 193 200 178 162 144 137 133 132 105
15 49 119 22 44 34 85 69 73 27 43 22 37 9 -39 18 54 -26 -35 -8 41 59 105 146 140 161 231 318 332 367 302 262 188 145 171 167 173 164 156 147 131 120 100 111
35 38 -0 -3 15 33 133 35 -15 55 27 19 68 26 33 71 94 23 46 60 77 122 141 150 187 207 263 282 231 206 128 111 152 155 156 164 166 154 136 126 111 112 100 87
67 17 29 41 22 78 27 76 29 30 55 22 1 15 14 104 89 87 17 -5 11 15 74 74 57 67 98 103 106 122 141 157 165 169 168 148 128 117 115 120 102 92 83 67
2 -1 -9 15 29 26 36 16 28 28 18 -1 12 -3 10 33 13 24 -6 17 34 51 63 61 63 104 132 147 127 150 165 173 164 144 123 119 125 123 108 100 85 75 82 94
32 17 -0 12 37 51 72 64 -38 -11 38 42 -1 -42 4 -17 -3 28 33 41 58 79 103 112 115 122 164 129 129 149 158 136 123 119 126 117 104 100 84 78 81 89 88 93
-1 3 -7 36 20 10 11 12 -22 -26 7 31 52 46 26 21 20 33 41 52 57 101 134 122 106 125 113 102 117 131 134 122 121 117 107 99 88 83 75 86 86 84 94 106
8 44 -8 11 22 17 27 28 29 22 37 75 106 81 60 63 83 80 83 87 82 100 119 141 143 156 128 122 119 130 130 118 112 105 100 90 87 84 80 104 105 99 108 109
-12 24 -12 10 36 26 34 28 50 75 61 62 71 76 91 93 97 105 118 108 121 135 166 153 151 158 141 119 111 111 115 104 97 88 83 79 74 78 86 94 94 92 102 120
-4 15 4 18 43 57 71 62 75 85 77 69 47 69 81 101 108 129 142 144 162 172 185 189 190 180 141 121 112 113 110 94 84 82 80 84 86 88 85 91 69 75 97 115
35 37 13 24 45 80 106 112 115 117 73 87 76 88 125 137 152 169 182 179 196 213 218 196 184 171 132 120 115 116 110 107 89 87 89 86 85 81 84 97 109 134 148 133
-12 10 57 91 111 124 124 126 111 95 83 72 86 87 111 149 181 201 197 203 215 216 185 162 160 144 113 104 102 95 90 92 90 85 85 76 74 79 97 116 129 131 134 118
62 63 94 116 116 114 133 107 98 87 83 72 89 105 141 195 221 214 200 168 184 166 135 132 134 116 93 84 93 96 97 97 81 73 72 74 87 103 118 128 133 136 132 128
63 68 99 100 90 69 59 80 78 54 99 84 105 128 177 222 233 221 188 155 149 139 114 110 110 95 86 92 86 71 68 74 72 75 84 88 97 119 135 137 135 129 114 105
45 43 52 94 48 56 67 65 79 90 100 103 145 165 201 221 215 176 153 138 146 147 121 105 95 93 89 78 71 69 70 77 79 82 83 103 129 130 133 134 125 118 110 97
-4 -30 -10 22 47 86 132 125 124 138 146 147 165 160 183 191 165 142 120 124 124 130 102 95 98 87 79 73 70 72 80 78 75 86 108 118 130 137 138 132 123 115 106 92
26 9 10 67 128 161 183 177 178 187 162 183 204 194 186 161 143 141 128 134 94 93 92 82 76 75 76 75 74 77 77 77 85 110 131 132 135 140 139 127 126 112 94 71
41 46 69 108 138 159 179 196 220 220 199 193 186 174 178 157 138 142 135 129 94 91 86 78 66 66 68 69 71 76 79 89 108 129 132 133 139 147 149 144 122 93 67 52
77 91 105 135 170 191 187 208 232 245 234 207 182 219 214 175 155 149 100 105 87 96 76 66 64 73 76 72 75 84 92 105 123 129 132 143 149 151 146 123 91 60 46 38
76 100 121 137 164 210 235 241 242 241 244 227 216 205 192 157 128 141 127 90 96 85 72 66 82 83 77 79 85 88 102 120 126 128 139 142 133 123 100 73 54 51 46 48
75 104 146 199 248 271 279 257 273 280 287 240 211 211 198 186 161 109 116 114 110 89 72 73 76 81 79 80 85 100 115 124 125 135 126 106 111 84 73 71 71 50 53 81
116 166 203 220 242 261 292 319 352 350 324 280 267 237 177 141 114 108 137 119 112 92 83 85 82 79 76 80 93 105 116 121 131 125 121 106 89 85 86 85 66 63 80 98
73 97 132 176 235 281 296 314 349 318 270 281 256 222 178 145 141 157 143 126 101 93 81 71 69 71 73 85 94 100 111 120 123 119 105 90 84 93 93 75 70 73 86 95
108 129 194 225 237 259 281 290 330 248 227 262 285 193 167 152 148 145 133 111 93 83 77 71 66 69 77 88 92 106 118 117 109 106 92 82 81 83 63 65 77 89 90 95

GFSNGP_con_3kmhel_042.txt.gz
Helicity
53 11 -14 -39 -6 29 98 148 213 194 153 140 71 76 126 62 107 77 80 61 92 71 -6 48 164 277 368 416 400 315 232 237 259 274 306 361 370 388 317 230 225 236 212 176
-3 44 14 39 82 50 57 80 130 119 140 113 88 114 231 141 34 4 -3 55 66 -12 22 126 240 326 389 356 289 207 227 287 330 372 396 411 417 344 344 309 155 158 147 138
-1 35 36 -4 10 70 156 141 98 167 111 61 41 48 104 84 28 16 -8 20 60 41 169 269 298 297 315 327 289 265 284 320 364 411 418 375 347 302 148 141 192 195 141 117
31 68 -3 1 79 97 105 103 65 122 130 49 53 165 92 -4 22 46 9 12 29 126 188 187 180 201 237 302 315 301 321 380 401 389 377 336 324 210 135 141 149 136 134 129
20 40 49 15 52 27 89 91 93 105 79 39 50 155 24 32 56 40 42 79 147 128 121 148 170 205 248 306 300 318 358 401 393 272 322 246 146 108 107 137 139 133 118 120
39 28 10 5 -13 67 130 56 114 91 70 17 -4 80 28 -24 20 45 79 72 58 93 108 146 149 131 223 292 350 323 323 340 341 273 122 50 95 136 128 120 107 109 122 98
25 11 3 20 11 108 47 95 62 79 43 19 23 24 76 14 -26 33 69 84 92 128 155 171 203 190 216 206 233 148 112 66 37 51 89 123 126 112 96 111 108 93 92 86
-13 4 -1 -22 -8 29 111 67 63 77 71 33 27 43 42 13 39 8 2 26 51 4 32 31 65 68 90 53 -17 6 70 85 96 115 120 114 98 101 108 96 100 103 100 88
-22 -13 -7 -2 -12 67 38 60 38 21 39 8 22 24 52 14 5 15 17 -2 -28 -10 -15 -39 -22 8 34 12 52 89 124 130 117 106 86 82 88 83 83 90 86 78 87 101
-26 -22 -21 -1 12 11 12 39 12 25 69 79 85 22 30 28 20 32 42 53 46 67 68 50 23 24 47 59 67 93 102 88 83 86 83 79 79 81 78 78 87 96 103 105
-10 6 6 45 14 30 34 34 41 49 78 123 147 88 74 75 77 61 47 46 45 67 75 67 66 83 65 74 88 107 101 78 73 70 75 79 68 61 74 85 88 83 82 88
-17 42 35 22 25 39 58 44 53 64 88 80 114 104 109 119 104 115 111 101 116 121 131 112 121 120 92 87 93 81 73 65 71 73 67 68 75 80 74 78 79 81 91 105
-14 56 45 34 34 44 66 78 91 96 94 91 83 91 115 132 117 122 126 127 143 151 158 143 144 142 102 81 83 92 86 78 72 78 77 74 77 78 72 72 102 103 85 91
75 86 52 38 37 85 105 115 121 107 115 133 120 77 113 147 134 151 161 158 172 184 192 181 173 151 111 115 117 110 97 112 80 75 77 76 70 71 80 90 95 100 105 118
60 66 77 124 131 115 133 165 163 95 102 78 105 123 133 161 162 171 175 190 216 227 203 183 168 140 111 104 101 100 92 78 75 74 68 70 73 80 93 101 104 116 137 148
110 120 96 98 103 124 117 136 112 74 87 89 108 119 130 169 200 219 214 189 205 182 162 163 151 112 98 94 100 91 82 92 80 69 72 75 81 94 108 121 131 147 149 138
60 61 89 111 110 84 83 95 97 78 86 106 112 134 174 211 244 236 217 204 199 175 138 135 131 106 102 88 83 65 65 69 82 75 75 80 95 115 121 138 155 152 144 124
32 76 73 96 103 104 75 78 85 85 88 109 137 158 194 216 233 212 205 203 205 191 144 114 101 101 96 85 76 73 73 69 67 74 80 93 103 116 143 162 169 164 143 112
57 59 56 68 91 75 88 100 118 146 139 153 178 186 205 227 212 184 167 166 155 154 102 101 112 99 89 83 78 68 68 67 75 81 91 104 122 147 164 168 161 149 122 90
26 14 16 32 68 114 131 164 194 196 171 201 229 224 220 199 178 164 141 131 86 83 85 92 94 87 80 75 77 64 66 75 82 89 99 127 141 158 152 137 127 106 80 54
28 27 57 117 141 159 197 214 229 235 217 221 218 201 205 189 174 171 175 161 100 105 101 103 80 71 64 62 70 67 74 83 85 99 116 136 145 141 125 106 79 63 52 52
46 56 77 116 159 199 198 215 243 280 268 252 230 241 259 230 183 156 111 120 101 114 100 86 71 75 61 73 68 74 79 83 92 110 126 133 127 115 97 88 75 74 74 79
47 65 94 128 168 194 225 245 257 259 266 249 245 244 230 227 182 183 149 85 106 106 94 80 81 80 72 68 70 76 81 84 97 118 122 115 117 107 93 82 81 77 82 80
34 51 75 119 183 247 259 247 297 294 299 289 267 242 266 260 185 113 115 118 116 115 98 87 82 74 74 67 74 79 77 88 109 119 110 89 105 86 80 79 73 79 83 82
51 75 135 185 202 211 274 310 332 318 346 347 308 255 213 188 171 143 146 129 124 127 105 94 82 75 70 72 77 76 79 102 110 118 115 106 91 76 72 68 66 74 88 83
35 54 80 113 153 227 252 259 298 310 362 382 354 265 232 207 177 161 155 150 127 114 101 79 68 66 69 74 74 73 91 109 116 111 97 91 78 66 58 44 6 74 89 92
41 86 132 147 151 186 220 245 280 292 308 315 303 240 232 216 179 178 160 141 122 100 87 76 69 66 71 71 70 79 102 117 103 105 103 82 71 67 59 27 34 88 97 94

GFSNGP_con_3kmhel_045.txt.gz
Helicity
9 -7 -7 2 -12 17 106 175 210 272 222 168 106 82 95 170 206 138 42 36 9 83 46 72 83 158 266 340 358 419 375 352 325 264 268 310 346 362 415 440 376 349 297 296
18 12 -17 -19 16 20 43 104 228 220 271 113 117 72 114 171 80 88 19 -19 51 39 76 119 201 233 292 294 297 315 305 293 260 259 326 403 421 442 419 371 303 307 331 165
22 41 -28 -12 6 47 97 165 182 102 61 71 76 78 161 127 16 36 22 0 9 95 118 188 266 291 272 282 279 294 286 256 282 359 433 474 447 430 376 352 323 232 170 54
18 28 17 11 18 45 138 145 152 140 121 58 77 250 204 63 2 21 14 14 41 45 141 250 330 316 262 227 221 264 295 329 387 398 402 354 328 307 278 239 193 81 74 123
25 19 21 46 17 16 53 50 66 87 84 64 -2 165 58 0 41 22 83 143 155 137 173 182 188 197 227 231 282 340 346 382 295 313 329 261 281 211 140 107 79 14 98 122
37 25 17 22 4 32 73 30 99 104 65 25 13 48 38 38 46 55 43 20 50 67 131 131 161 252 285 282 256 259 243 210 209 159 127 152 85 75 65 56 86 76 72 90
30 19 25 29 26 69 20 81 98 101 31 -28 44 35 72 47 35 52 63 89 102 129 152 122 94 122 128 125 63 95 63 113 123 67 80 46 26 5 78 78 68 87 97 107
4 4 7 -5 -4 5 72 107 83 84 75 35 55 46 40 37 5 -2 30 25 56 73 79 61 45 53 11 75 10 73 70 58 39 12 -15 3 75 58 60 79 97 108 114 122
-18 -18 -1 13 5 39 51 62 73 90 90 102 46 31 30 27 10 23 -5 -50 -48 -27 -21 -52 -58 -32 0 -32 3 1 -19 28 46 63 77 57 60 68 89 103 106 106 106 106
21 -2 19 22 25 15 18 31 32 81 119 111 93 60 55 50 25 5 -9 -6 -11 -12 -29 -66 -61 -35 -36 -46 8 35 28 45 71 76 67 71 82 88 87 87 92 89 87 86
30 9 29 36 19 6 16 32 44 68 107 142 134 86 71 76 62 40 17 -15 -12 -6 -8 -15 -7 -7 -1 24 36 61 77 68 66 75 81 79 73 69 77 57 59 59 66 73
1 -7 14 4 15 13 28 30 53 107 132 139 107 113 103 96 66 62 64 41 31 35 42 13 29 30 22 29 64 96 85 70 64 66 68 69 67 68 73 78 81 73 82 92
4 36 43 36 9 18 40 45 62 90 117 132 119 125 133 149 100 96 93 87 90 82 91 63 77 68 44 49 62 76 86 69 64 63 62 62 62 71 75 69 108 141 153 160
37 87 41 59 31 38 72 95 125 125 110 133 145 125 130 141 110 117 119 117 134 140 134 126 105 77 54 77 93 84 71 84 58 55 56 60 62 64 69 84 100 122 162 183
4 68 67 89 106 89 100 133 170 133 107 141 67 121 130 120 138 143 145 155 170 181 152 134 119 84 68 75 83 69 63 55 54 57 56 64 66 78 87 98 118 146 172 198
54 80 97 82 75 93 101 128 144 94 82 87 97 102 117 141 178 182 164 151 183 154 127 122 103 64 68 73 78 76 69 91 77 58 59 64 71 79 99 131 155 175 184 176
17 42 72 93 88 85 83 93 97 92 86 100 94 106 140 168 182 191 183 166 174 137 100 103 96 68 67 67 74 65 67 64 76 60 61 64 78 105 125 144 168 172 164 143
7 28 33 78 97 86 80 93 90 93 102 111 102 118 136 139 164 171 176 187 183 156 113 93 83 80 80 74 72 62 57 55 55 58 63 79 106 129 143 151 155 149 124 97
63 27 49 61 96 124 142 73 82 108 111 111 130 120 126 155 166 162 147 153 143 136 77 78 99 98 87 77 72 59 59 61 63 65 74 104 116 134 145 145 142 114 78 62
133 85 31 38 87 86 82 93 130 140 122 137 158 175 182 164 151 139 114 111 75 69 80 92 100 94 82 78 78 60 64 68 69 72 87 108 115 141 143 133 109 78 62 39
62 18 5 41 63 73 139 160 170 171 173 166 161 160 165 155 145 148 156 137 78 88 96 104 88 77 70 71 69 66 68 70 75 89 99 103 126 141 134 111 78 46 18 7
20 16 21 49 95 129 143 174 191 214 215 196 171 195 214 188 181 143 96 110 89 105 102 90 78 77 68 81 64 69 74 75 86 98 103 115 132 132 116 87 54 27 12 12
19 32 51 76 115 145 164 173 183 209 223 204 210 214 195 164 165 198 153 92 113 98 99 86 83 89 88 71 69 73 73 78 89 102 109 119 125 120 101 68 40 23 16 5
23 24 28 57 113 160 174 163 196 205 212 203 212 230 248 227 176 114 121 126 112 117 99 92 91 92 85 70 73 73 71 82 96 103 107 111 125 105 84 55 32 25 21 -10
44 38 43 93 114 127 174 208 251 237 248 249 242 237 206 181 163 152 180 149 126 128 113 100 97 92 76 74 75 73 74 92 97 112 122 124 116 97 71 46 29 24 20 3
40 35 40 52 82 126 167 196 218 218 253 268 253 256 247 213 186 177 179 173 144 120 120 103 90 83 78 75 74 69 79 91 106 113 110 112 104 85 63 42 37 31 24 28
15 34 61 79 87 110 141 181 219 210 209 232 254 251 237 231 203 196 194 174 144 117 98 88 87 83 76 71 71 73 85 102 104 112 116 104 89 73 57 44 41 33 30 37

GFSNGP_con_3kmhel_048.txt.gz
Helicity
13 2 21 19 10 72 81 162 137 195 104 150 79 10 74 98 125 114 64 54 30 69 54 51 120 148 132 112 167 234 279 325 332 333 307 317 328 350 410 447 480 461 416 397
24 14 8 -0 -11 9 36 74 188 257 257 148 149 53 115 76 48 32 48 32 23 73 74 81 95 83 80 91 159 191 250 273 304 333 318 290 363 394 425 455 433 405 371 364
30 47 16 10 32 61 33 123 175 177 108 7 -13 46 110 29 21 23 37 40 53 83 104 110 108 148 189 174 225 204 246 312 328 325 336 377 394 407 417 385 359 348 318 218
22 33 17 14 32 -21 83 86 129 100 -5 -0 5 146 120 44 31 32 25 47 76 87 95 128 151 166 151 162 173 223 256 245 277 307 311 288 353 364 386 246 266 222 145 81
32 16 17 27 33 -3 -11 29 29 51 -18 -10 15 116 133 25 31 22 19 41 84 91 103 140 160 163 177 153 136 126 123 127 153 177 244 210 284 268 187 174 146 113 91 82
36 21 28 24 8 7 38 -9 64 88 -7 -23 -25 -6 26 29 30 29 18 18 24 48 76 63 47 79 89 8 13 39 86 115 104 142 163 152 114 122 84 32 14 28 38 51
12 17 35 40 23 15 11 9 108 84 40 -8 -13 15 38 58 60 21 30 20 36 44 55 29 19 33 100 90 153 91 136 129 139 90 93 80 60 25 23 38 44 63 91 105
26 21 29 25 24 9 6 26 64 70 62 61 53 20 16 12 27 27 19 22 52 64 53 80 85 111 106 115 56 63 51 39 46 40 41 13 -4 15 26 42 68 82 103 117
22 27 32 20 7 35 40 22 43 59 74 71 63 19 3 -4 3 -17 -12 -26 -31 -21 -38 -25 -23 -10 -5 -33 -21 5 16 19 3 -20 -24 -6 25 36 55 66 77 87 95 102
27 35 76 51 21 35 32 27 34 42 101 112 83 74 45 22 -3 -15 -10 -15 -31 -39 -41 -34 -41 -34 -28 -29 -18 -18 -10 -10 9 26 27 30 36 41 56 66 71 77 92 111
39 33 22 31 15 18 17 20 32 57 96 112 124 82 83 57 36 6 -25 -16 -7 -19 -35 -38 -33 -39 -45 -40 -20 19 19 12 32 40 39 50 57 54 58 61 74 95 111 125
36 2 -18 -10 2 7 9 14 32 73 113 115 110 110 91 73 52 49 43 17 3 -5 1 -18 -2 4 -12 -6 39 53 47 38 32 40 46 53 63 77 91 98 101 110 125 148
4 2 -2 17 38 37 17 24 35 70 98 130 100 138 111 115 65 54 51 37 36 27 10 18 17 17 5 24 51 53 54 50 56 62 62 67 73 81 90 104 158 193 209 211
19 27 22 12 5 39 35 61 78 92 102 104 155 151 145 142 66 50 52 58 71 77 65 58 54 56 41 58 74 70 69 85 71 68 70 75 83 96 115 141 165 189 213 231
80 56 25 42 87 61 54 71 99 113 124 122 161 128 127 94 69 67 78 99 107 114 103 98 93 79 67 74 81 81 83 74 67 68 72 87 100 118 136 153 171 188 186 176
64 43 40 50 52 58 69 75 95 124 118 113 106 116 104 116 114 109 110 111 141 102 101 103 92 66 64 76 86 80 70 82 74 73 82 98 113 124 130 138 161 173 181 165
28 34 59 57 71 73 69 72 99 135 105 115 93 106 127 151 169 144 127 105 123 133 103 92 81 63 67 73 79 67 67 67 86 83 94 98 102 108 111 137 159 169 157 111
13 7 -2 11 66 94 73 75 102 123 99 92 121 112 115 132 131 140 140 155 180 152 99 83 75 71 71 68 67 68 71 72 79 86 84 88 98 107 124 147 148 143 127 85
67 65 48 37 51 88 97 109 97 94 79 74 79 84 96 118 141 153 158 170 155 130 62 71 81 88 80 67 79 72 77 82 81 79 81 96 106 116 139 144 139 121 79 34
87 106 102 66 92 109 148 91 85 68 74 100 118 125 121 128 143 152 128 118 83 63 93 83 89 85 82 86 90 80 79 77 83 79 81 99 107 123 138 138 125 100 49 19
50 81 67 14 32 33 31 78 68 78 88 109 133 110 112 134 139 159 149 109 58 95 89 93 90 90 82 88 87 80 78 82 82 82 88 98 109 129 139 133 113 82 39 17
58 42 16 -8 -16 1 31 64 101 144 163 141 137 153 166 148 145 122 78 86 104 109 102 94 90 90 81 100 86 84 84 82 80 84 91 103 121 132 133 128 110 69 37 27
32 25 30 42 44 61 94 108 118 145 165 173 176 172 148 145 150 150 95 91 131 108 107 97 91 96 103 95 91 89 82 77 83 91 98 113 130 136 136 125 104 61 31 25
67 57 38 30 42 68 84 105 135 146 165 180 165 162 227 207 140 105 94 145 135 129 106 93 89 97 105 98 93 86 80 83 90 96 102 114 140 138 126 113 90 54 33 13
55 46 51 54 54 61 83 113 153 172 189 187 178 183 184 183 174 161 177 172 140 140 119 96 98 100 94 91 90 82 80 88 92 102 116 132 138 130 113 99 79 60 47 36
75 62 43 34 35 55 85 116 137 159 181 186 191 207 224 212 192 226 210 177 159 128 127 117 121 100 95 94 81 78 85 90 100 111 121 128 128 114 100 81 69 55 38 37
77 100 65 48 51 58 79 108 144 144 136 154 173 191 217 233 211 222 216 200 161 143 139 130 106 96 106 91 83 81 93 94 95 113 128 126 113 100 85 72 66 51 43 33

GFSNGP_con_3kmhel_051.txt.gz
Helicity
18 16 16 6 10 58 117 101 85 72 77 166 71 32 41 61 -0 -35 -22 -1 2 34 51 66 73 85 90 105 93 52 72 106 148 162 188 221 265 279 308 356 414 460 550 537
24 29 11 5 -24 -2 22 14 107 152 198 135 10 37 46 37 9 -21 -0 -2 28 23 39 50 64 75 92 77 85 86 120 215 243 257 298 333 352 372 374 386 437 474 465 446
28 49 29 18 35 72 52 67 71 101 154 39 -23 -13 38 30 5 -4 -1 -2 11 6 10 21 63 67 80 104 107 173 246 236 235 309 346 333 325 320 370 378 378 356 323 302
28 43 28 17 27 17 54 42 109 55 27 -15 9 70 119 48 23 -0 -6 6 -4 9 21 30 44 63 91 60 46 22 54 59 131 117 169 199 220 265 227 209 259 223 201 186
37 30 25 24 28 6 -15 13 -35 62 9 -12 -2 76 74 -3 23 14 7 10 1 -4 16 31 46 28 31 30 51 56 62 93 68 109 97 17 139 119 207 119 151 129 135 49
25 32 31 39 40 14 26 17 -2 60 -4 12 4 4 -10 38 29 29 29 34 31 15 22 21 17 17 66 73 94 94 98 95 92 90 106 128 118 127 132 106 61 37 28 30
26 31 51 17 31 1 29 4 22 31 51 59 18 -10 10 28 27 21 29 45 43 57 58 61 21 29 50 40 46 55 42 51 68 66 124 97 74 53 44 34 32 44 64 88
29 33 48 24 50 24 10 26 5 32 50 44 38 49 1 -1 -1 10 23 15 30 41 39 29 18 25 36 29 10 4 -1 14 15 23 11 19 19 -0 13 26 43 51 73 92
16 44 43 47 38 25 35 38 21 44 59 82 74 44 31 -6 -7 -16 -15 -12 -18 -27 -29 -18 1 -6 8 -16 -20 -14 -0 -4 -3 5 -10 -15 1 11 31 41 51 59 71 81
36 42 62 60 32 31 20 32 27 37 64 112 109 96 75 31 13 -10 -8 -16 -11 -27 -26 -22 -36 -25 -18 -15 -9 -9 -6 -6 -3 9 14 15 24 26 40 47 56 63 70 77
49 66 40 34 11 1 25 34 24 46 72 90 130 95 87 87 48 17 11 -9 -26 -19 -30 -17 -7 -11 -22 -21 -10 11 8 5 15 15 20 34 39 34 38 27 37 45 64 102
29 20 16 15 -6 16 26 12 13 48 69 96 104 122 113 114 82 69 45 10 -3 -9 -10 -25 -11 -8 -12 -5 21 37 31 15 13 21 25 31 35 46 70 90 112 122 132 143
7 9 -21 4 1 14 29 24 26 30 50 92 99 133 139 135 94 70 55 46 14 12 4 1 2 4 -6 11 29 37 39 26 28 30 27 28 38 56 66 74 117 143 164 182
61 32 28 18 11 14 45 55 56 59 69 82 114 130 168 140 110 48 57 55 56 48 37 26 27 27 6 23 46 51 41 46 34 37 43 52 56 63 72 83 94 116 153 171
60 54 37 28 41 55 69 66 51 60 78 115 113 154 122 121 42 36 65 66 82 86 72 61 57 42 24 39 57 54 48 47 50 54 57 65 69 77 86 101 116 126 141 161
55 59 36 34 18 37 64 63 52 57 81 124 123 105 82 77 74 85 90 94 101 82 78 78 63 49 49 58 66 64 61 72 67 65 69 71 75 86 99 111 122 128 128 130
-16 -2 22 34 31 37 56 58 60 70 94 113 94 107 114 123 113 114 129 105 109 109 86 86 77 67 63 64 71 71 71 70 77 76 74 76 85 99 109 120 126 122 114 104
3 24 24 -3 -0 20 48 77 84 83 98 108 124 127 110 118 103 114 134 142 155 134 96 87 87 84 82 80 83 77 77 79 78 78 79 88 101 112 116 118 121 120 121 102
74 64 64 40 39 47 65 90 98 112 138 135 136 124 84 80 103 134 157 145 151 131 75 93 92 90 90 79 87 82 82 86 87 88 93 103 113 111 112 117 123 122 120 108
71 96 116 96 107 96 94 127 145 130 101 82 65 77 78 85 112 129 133 124 102 86 129 107 104 97 95 83 89 83 87 90 97 98 100 101 99 108 119 119 128 132 125 105
53 68 74 73 57 48 71 98 112 68 60 79 106 85 85 105 123 144 133 96 66 94 130 117 109 107 98 93 93 90 89 97 101 98 100 99 96 109 116 124 135 136 128 107
16 40 38 14 35 7 5 25 64 39 61 68 73 107 127 122 129 115 78 76 121 119 146 125 110 103 97 98 96 90 91 95 100 106 102 97 99 110 120 129 137 133 119 94
53 27 3 1 17 16 24 29 34 41 52 108 127 135 124 133 141 150 77 70 143 125 141 120 107 103 93 104 95 91 91 97 101 102 103 103 108 122 129 130 130 121 108 81
53 60 59 53 30 20 14 32 64 90 84 107 135 177 192 184 140 113 116 141 141 142 128 124 105 97 111 101 96 93 96 101 108 112 104 93 124 128 129 126 118 105 91 55
51 43 35 45 49 47 48 44 61 85 108 129 151 170 184 169 174 171 159 164 158 166 145 113 100 94 119 99 92 98 104 107 109 108 103 114 116 125 124 117 107 92 81 65
49 58 66 63 58 64 62 54 65 80 110 130 151 171 200 201 187 217 219 186 196 187 151 131 123 136 117 95 94 105 103 100 98 98 103 114 118 122 115 101 90 75 61 57
29 62 75 116 118 106 87 76 79 84 94 123 142 158 188 236 231 231 247 221 231 207 168 149 150 135 109 92 103 106 103 100 88 97 105 113 123 122 104 90 78 68 61 61

GFSNGP_con_3kmhel_054.txt.gz
Helicity
28 26 24 20 23 52 95 122 50 48 58 129 68 36 11 42 20 -5 -24 -20 16 25 59 58 53 25 18 14 27 34 65 106 121 147 177 208 255 244 257 293 305 336 390 442
30 31 10 26 -1 12 26 29 72 107 122 112 39 -16 19 20 -20 -18 -10 -1 -20 26 51 56 62 36 26 45 40 65 102 142 161 172 197 225 238 256 262 267 285 379 383 400
31 42 32 29 17 49 117 96 106 85 139 40 9 -17 -2 22 -17 -2 -7 -20 -24 -6 27 14 17 25 51 59 29 57 75 51 71 111 160 161 163 148 184 245 266 194 250 242
33 44 32 10 24 27 76 34 146 77 66 17 5 23 54 37 11 16 18 15 15 12 14 20 18 38 38 53 41 32 60 33 55 77 118 119 143 158 165 181 236 229 199 204
38 38 27 33 34 39 23 15 -22 43 2 -22 22 46 33 12 40 30 29 38 32 30 26 12 22 21 28 28 29 42 80 86 86 108 105 135 132 141 159 175 201 196 195 162
26 36 31 34 39 38 17 34 -14 -0 -20 4 20 17 15 18 14 39 34 52 58 51 42 48 14 4 56 39 37 25 51 44 29 81 82 114 119 96 65 64 92 67 69 39
30 32 42 25 37 40 37 25 3 8 -23 43 32 43 56 47 6 14 33 39 54 46 55 41 24 18 50 41 36 12 10 19 38 43 40 6 5 -6 5 22 19 37 67 69
41 35 49 19 54 40 26 34 28 6 2 43 51 66 71 56 24 1 7 9 18 12 31 13 4 25 24 -3 -0 -5 -4 -7 -8 -18 -19 -20 -7 -16 -7 15 32 29 40 56
22 48 50 55 59 56 43 39 36 25 20 76 87 73 78 60 33 11 9 3 -10 -23 -7 -2 1 -14 -4 -27 -35 -21 -11 -8 -5 -12 -16 -15 1 9 21 25 28 27 32 42
52 37 49 69 44 55 24 13 20 35 38 93 103 108 93 79 56 16 23 17 3 -23 -23 -11 -11 -20 -16 -18 -12 -5 -0 -1 -2 8 15 15 15 11 14 13 16 23 39 53
45 39 55 36 33 32 17 16 26 38 38 72 118 115 114 111 80 61 30 21 6 1 2 3 -5 -6 -15 -9 5 15 13 7 9 13 17 22 20 10 12 14 25 32 39 57
27 47 24 27 3 -1 8 8 13 37 46 57 99 136 144 121 140 100 54 31 27 20 7 -10 -0 1 -16 -7 10 25 26 18 17 21 23 25 29 33 41 32 55 77 87 86
-4 8 8 27 5 1 5 -6 20 38 40 59 87 130 164 151 133 129 101 61 29 31 21 8 1 9 -1 8 19 29 41 36 34 33 23 15 10 21 33 42 92 108 109 113
34 20 30 32 38 28 12 26 61 72 56 52 92 114 169 191 151 93 75 63 53 37 31 20 17 19 14 21 36 47 46 52 34 23 21 27 37 47 52 54 57 68 90 104
64 30 11 26 26 19 35 42 53 68 75 78 87 124 171 174 130 83 52 85 85 68 44 33 38 28 27 33 49 54 46 34 32 33 40 52 54 56 57 61 67 67 74 91
39 29 29 16 32 13 20 32 40 66 85 87 95 111 132 117 115 58 79 103 122 79 63 44 42 34 39 50 60 52 45 59 54 54 57 58 56 58 59 60 62 65 67 77
-27 -22 17 12 32 32 29 30 32 55 83 84 82 105 144 130 104 98 91 93 95 109 106 81 60 59 53 54 60 59 58 58 68 64 63 60 60 60 58 60 59 63 72 88
-7 -2 3 6 34 34 15 25 48 62 86 87 104 114 113 125 100 92 103 123 149 150 121 98 90 84 70 71 71 72 71 70 66 66 64 63 61 63 65 67 69 74 86 98
39 46 51 40 27 22 23 40 71 79 102 116 128 115 90 87 102 88 106 123 132 146 111 123 108 102 89 79 87 84 81 78 75 71 69 68 77 73 74 78 83 90 97 106
41 66 69 85 68 72 77 101 112 118 111 127 142 116 82 87 91 80 94 91 87 110 138 119 121 105 91 85 96 91 88 82 77 77 77 77 76 76 81 77 88 102 111 117
80 62 43 76 96 76 85 99 111 116 95 105 106 85 77 70 80 105 112 82 75 105 136 128 117 107 96 97 105 97 91 87 84 81 79 85 78 84 83 88 99 108 118 125
14 33 46 57 46 25 33 25 40 61 71 52 43 73 90 83 88 79 64 66 124 123 149 138 120 107 104 114 109 101 95 89 87 90 90 88 86 87 90 95 98 113 124 125
36 34 19 21 4 1 13 13 14 28 39 47 56 70 74 91 116 132 76 79 125 124 144 137 122 112 107 128 111 105 100 93 86 90 93 95 96 98 95 94 106 122 124 115
28 16 18 32 36 42 46 34 12 9 34 56 83 101 115 145 127 95 90 127 128 156 149 145 125 115 121 136 117 108 99 86 90 99 100 81 97 99 103 107 115 122 111 83
32 28 26 44 39 33 34 38 45 53 50 54 67 90 103 156 175 194 207 167 127 162 170 120 122 105 150 144 122 107 95 93 100 107 101 100 92 96 106 119 126 115 106 97
42 38 37 49 68 86 85 72 66 66 64 69 75 88 109 134 171 193 229 218 211 205 199 189 194 175 172 138 113 98 92 89 94 99 104 97 96 104 114 125 124 105 90 89
22 40 40 48 44 60 79 94 99 112 92 89 94 94 114 142 154 198 226 265 256 237 207 208 210 198 182 138 105 93 84 87 89 103 98 85 96 107 120 129 117 102 96 93

GFSNGP_con_3kmhel_057.txt.gz
Helicity
33 32 39 39 35 36 47 72 34 40 35 81 53 28 11 22 2 -21 -13 16 18 3 36 63 55 45 42 37 20 3 26 46 43 74 110 129 178 169 185 222 227 242 286 290
35 30 23 40 18 12 12 22 38 45 76 59 16 1 6 16 19 -2 -7 8 13 -3 3 -5 26 27 23 35 38 36 53 74 59 76 102 156 229 122 182 184 162 169 227 268
34 46 35 37 26 78 70 51 57 65 61 51 36 15 1 2 7 5 16 29 45 39 22 -3 3 -15 7 26 39 49 67 69 72 108 122 98 120 129 156 174 178 204 251 222
38 44 36 17 29 28 82 64 91 64 61 41 30 20 21 20 2 8 24 34 48 66 45 35 13 3 18 20 32 52 63 84 64 84 110 113 148 165 223 241 193 154 201 199
34 39 40 32 43 58 43 52 32 39 41 -3 6 17 11 16 16 23 35 38 41 58 53 56 52 36 40 20 21 46 55 48 35 -3 59 72 85 63 100 138 132 106 121 128
37 35 34 43 69 57 38 56 16 7 -6 -14 20 17 -6 41 34 29 28 37 47 51 40 39 36 35 31 13 23 48 24 30 33 37 38 63 57 93 71 62 61 52 62 37
40 48 52 23 26 51 64 39 37 16 -4 -26 -7 10 35 58 53 36 10 9 39 53 32 15 29 17 31 19 45 27 28 27 23 13 8 -3 1 1 4 4 9 15 16 5
42 53 62 31 83 53 70 54 44 31 1 -19 52 67 60 52 54 51 22 4 -13 8 14 13 6 0 19 19 -19 -23 -13 -10 -10 -14 -15 -13 -4 -12 -15 -15 -6 -5 5 18
24 42 47 71 63 66 62 55 43 32 8 29 89 70 84 46 49 44 20 6 6 -6 3 -16 -23 -20 -2 -19 -24 -15 3 9 8 -2 -7 -11 4 2 2 2 5 7 15 27
45 35 9 9 32 55 45 29 28 17 14 42 72 115 117 97 74 55 27 16 4 2 12 10 -6 -4 -7 -5 -2 12 22 19 12 19 17 10 6 3 6 6 13 20 29 41
31 27 31 43 35 72 58 40 32 21 16 29 85 119 142 135 106 78 57 5 13 20 26 27 15 9 -7 -3 16 34 25 20 19 18 19 20 15 8 11 9 18 27 33 43
38 43 56 39 29 3 23 24 11 8 23 34 74 117 144 157 132 123 85 48 22 28 37 25 27 21 -5 2 19 34 33 23 20 23 19 19 20 29 48 46 49 44 46 47
57 46 7 28 26 26 24 21 14 6 11 36 57 101 139 159 155 147 137 98 77 25 26 33 24 19 1 11 26 31 40 33 29 30 25 25 24 21 14 19 55 67 62 60
36 51 36 46 41 66 30 32 39 30 22 33 70 91 130 155 172 166 123 86 73 53 21 28 29 24 18 29 37 44 38 50 38 35 37 31 22 22 26 35 39 35 36 50
100 63 30 50 51 40 27 29 25 17 19 43 89 91 124 164 185 161 107 90 89 78 46 30 37 33 35 47 55 57 55 48 47 41 29 32 35 41 46 42 39 38 40 50
47 32 34 25 41 48 42 32 32 21 25 59 89 88 96 118 149 152 122 106 139 78 54 47 30 49 60 66 68 63 59 64 49 38 39 44 46 48 43 42 44 47 49 52
19 22 21 11 30 44 44 48 47 38 41 59 73 88 111 128 147 134 108 74 77 83 83 86 57 70 73 72 73 69 63 52 53 48 51 54 55 55 53 52 51 51 53 56
6 2 -17 -14 22 59 69 46 43 42 51 57 88 102 111 110 108 137 131 127 107 101 88 90 108 90 80 79 76 76 68 65 59 59 60 63 61 61 58 55 52 51 59 71
36 40 41 38 36 35 40 41 40 43 57 85 114 85 99 103 125 126 120 139 97 103 88 114 105 98 86 74 85 85 85 83 76 71 68 71 73 67 65 60 52 51 62 75
55 57 53 56 65 51 66 74 79 89 96 114 104 116 124 120 132 110 108 60 49 89 145 138 130 106 93 83 95 104 101 96 91 82 78 73 70 68 63 51 53 57 69 83
61 89 79 60 39 41 56 68 79 95 92 96 97 92 94 82 78 88 69 55 62 107 140 148 139 122 113 118 116 121 118 107 95 88 78 73 70 73 66 61 60 67 76 93
2 13 21 27 29 51 45 16 23 34 56 58 72 71 69 63 67 74 65 72 99 104 151 153 133 124 129 131 135 133 124 114 104 96 84 75 80 78 70 67 63 69 88 98
11 5 0 6 0 -15 -11 8 13 9 8 34 42 49 47 68 98 109 88 79 84 105 131 137 133 132 128 158 148 141 132 119 107 94 79 79 91 87 79 68 68 85 99 95
25 19 15 22 18 23 33 36 28 21 20 19 19 37 76 89 86 101 129 103 109 129 124 117 114 112 139 166 154 139 121 111 108 94 79 75 97 94 87 71 75 96 105 86
31 26 20 28 41 52 64 69 53 44 46 40 43 49 66 87 86 112 152 168 183 199 181 108 108 112 174 188 170 139 115 104 94 89 84 88 96 95 85 78 95 104 111 104
62 59 49 48 44 52 59 66 74 94 106 108 93 76 72 76 93 121 151 165 210 223 262 257 245 222 233 208 185 145 128 114 100 94 69 77 89 92 80 82 99 111 104 94
29 35 29 26 27 25 28 36 47 57 67 71 96 111 105 100 98 120 132 174 195 226 281 290 258 210 216 195 186 161 140 141 132 130 78 70 82 84 78 93 107 110 101 91

GFSNGP_con_3kmhel_060.txt.gz
Helicity
42 44 42 48 31 22 59 67 38 75 49 65 44 37 19 4 14 11 1 7 33 42 27 22 30 31 27 36 36 14 10 48 66 64 61 80 104 140 180 176 178 183 231 254
30 34 31 51 37 19 15 12 14 26 57 69 54 24 9 13 14 11 10 34 48 40 36 28 40 41 35 33 33 27 18 17 47 65 73 96 117 140 181 150 109 173 282 184
29 46 33 42 37 28 35 34 33 24 47 25 30 30 15 6 10 17 5 36 52 46 55 55 57 55 30 20 26 21 44 50 57 57 73 88 114 160 158 201 208 166 211 178
43 44 37 35 29 24 5 20 11 35 45 26 31 30 20 17 20 17 19 42 39 46 63 68 49 47 36 42 44 40 56 69 68 41 72 79 91 171 111 139 137 143 174 162
52 46 56 25 26 34 39 78 25 24 42 7 17 18 15 16 26 30 33 31 41 39 67 54 52 36 41 40 30 43 46 60 33 35 46 53 42 92 110 115 132 134 110 68
46 54 49 56 74 62 49 50 35 16 14 11 11 28 27 31 40 27 22 25 49 64 44 43 37 28 28 34 59 74 60 46 45 56 69 48 51 60 35 38 27 4 24 6
34 46 46 43 65 87 65 78 64 49 20 6 5 28 41 48 32 26 26 26 24 38 38 31 27 29 45 53 64 41 18 11 8 1 -3 -7 0 -4 0 6 7 2 2 10
47 47 47 62 86 68 80 71 81 79 38 6 23 60 55 38 24 22 37 33 11 13 18 15 17 18 15 30 0 -6 -10 3 3 1 -9 -11 -1 -1 9 12 11 6 7 14
32 58 51 75 111 72 46 78 85 49 36 21 48 55 66 50 27 24 34 25 29 24 18 -4 -6 -8 16 0 7 5 8 11 7 8 7 1 10 12 7 0 1 6 13 23
41 34 5 19 34 22 82 89 67 36 36 19 15 61 86 79 48 40 30 24 34 42 34 21 4 14 14 8 15 15 25 23 15 23 25 13 8 7 11 14 20 28 37 46
30 13 32 31 15 32 68 77 56 33 24 15 20 50 86 93 86 68 65 34 23 38 48 39 27 32 22 18 23 31 30 28 31 29 30 32 32 26 27 31 31 33 36 37
34 23 37 41 54 75 55 52 61 34 20 17 18 42 72 94 111 109 96 116 28 27 59 52 37 39 34 28 30 37 36 33 26 27 27 30 33 37 47 57 55 56 42 30
34 71 60 71 36 25 37 50 44 30 21 21 20 43 60 92 119 119 112 142 103 43 40 53 42 31 34 37 40 36 43 42 36 36 37 38 33 34 41 48 53 50 42 44
76 52 25 55 78 97 64 54 48 42 40 27 23 43 73 96 126 136 124 114 105 102 41 39 39 32 32 41 49 48 49 55 46 42 41 40 39 41 36 28 32 43 55 50
69 77 62 51 58 80 72 65 55 38 31 27 35 45 83 114 120 119 149 144 125 105 76 36 36 36 42 47 55 60 66 60 56 57 52 54 53 47 44 46 48 47 46 51
67 53 42 21 28 41 48 55 56 50 45 34 39 53 79 84 101 132 164 178 171 90 77 98 49 39 51 53 65 68 62 68 72 73 70 59 51 50 53 55 53 50 51 56
47 38 55 46 49 56 63 56 57 64 74 56 41 55 76 84 108 129 138 148 129 89 67 96 90 89 78 65 70 75 80 84 88 84 69 60 58 58 62 59 55 58 61 72
28 30 31 27 36 45 57 54 52 53 78 66 62 82 91 96 100 108 128 157 131 95 75 88 119 119 94 86 76 83 94 95 90 81 79 69 65 71 70 65 66 70 72 74
36 38 38 38 38 35 47 61 55 43 45 53 52 56 56 71 101 126 155 161 151 145 130 102 114 125 100 93 102 104 104 103 93 86 79 77 81 81 77 76 79 78 75 75
32 36 43 36 41 48 54 64 68 53 54 57 64 74 80 104 107 150 162 138 134 144 163 125 130 125 127 110 107 111 106 97 92 93 94 88 87 88 83 77 81 80 79 79
26 45 62 58 44 35 40 53 76 78 79 80 84 81 107 115 127 152 138 98 69 84 60 99 140 145 150 153 131 113 105 100 100 104 104 100 100 93 87 88 93 88 83 83
-3 -3 11 22 35 37 58 61 28 15 30 43 65 83 91 87 82 58 60 64 65 77 107 123 134 126 151 145 147 105 108 105 109 118 118 115 108 101 90 95 98 91 87 88
22 12 2 1 -5 -17 -27 -13 -6 -3 0 2 10 30 37 48 63 59 55 64 84 96 139 137 135 143 144 173 139 111 106 110 112 113 111 110 106 96 90 93 99 95 88 91
39 34 30 32 30 35 44 53 49 38 27 19 21 22 23 22 25 46 78 117 125 131 155 146 139 150 171 200 175 144 122 117 115 121 115 106 99 80 83 84 91 92 89 92
29 15 15 32 41 49 63 71 68 80 93 89 75 56 43 48 58 85 93 99 101 116 156 169 189 205 249 224 191 160 156 162 153 145 136 120 136 113 79 77 82 86 90 97
48 54 60 59 52 42 32 30 28 38 52 67 82 97 100 91 79 73 85 95 120 117 183 218 230 257 282 281 244 227 211 202 176 165 147 167 181 140 109 87 86 86 92 100
39 31 24 20 23 26 23 25 26 29 35 43 53 62 68 77 87 91 93 102 117 142 188 208 211 227 282 309 245 244 257 226 193 201 212 201 156 129 111 86 89 86 93 100

GFSNGP_con_3kmhel_063.txt.gz
Helicity
57 51 39 52 46 30 68 66 81 104 88 45 74 60 35 38 23 5 2 26 39 48 59 58 51 53 60 64 71 75 53 43 50 33 54 78 61 60 61 88 119 177 140 165
34 34 22 44 35 26 19 24 27 53 81 86 66 51 26 9 15 15 45 42 38 52 54 55 57 53 47 38 36 44 42 37 39 61 71 61 68 69 85 82 124 190 174 202
22 24 22 32 26 28 40 45 46 37 61 66 80 38 40 16 16 28 28 39 47 50 62 69 66 56 51 46 40 53 34 51 66 64 81 68 63 52 106 97 103 128 122 148
35 24 27 37 38 25 10 25 10 30 49 49 34 48 27 21 25 34 28 24 40 60 61 66 74 67 58 54 55 57 60 61 56 58 78 82 82 90 105 100 123 107 121 123
62 40 63 30 25 27 26 48 7 27 37 28 43 43 26 23 29 37 31 38 52 72 66 75 78 68 51 52 65 62 71 63 59 69 75 61 66 70 55 72 72 70 56 44
66 54 54 45 30 36 34 59 85 58 39 32 42 34 57 35 29 25 32 44 57 69 69 56 49 46 55 67 70 75 68 64 63 40 17 5 -0 8 5 11 7 4 -6 -4
34 46 55 27 54 95 74 73 85 81 58 26 16 43 63 51 38 18 31 46 46 29 28 30 46 56 60 69 74 40 37 31 30 14 13 5 4 -9 -9 3 6 10 18 26
47 50 34 53 68 85 129 98 84 104 71 39 28 46 56 54 41 26 22 42 39 44 44 36 26 36 45 51 19 24 25 40 21 11 9 3 5 4 7 11 14 12 15 21
36 52 58 39 145 123 88 100 102 75 74 54 45 35 42 53 35 26 27 38 45 63 49 27 16 8 18 3 16 29 28 29 21 23 22 14 14 13 15 12 16 18 23 31
52 38 11 11 38 64 53 53 75 76 63 41 28 28 51 58 57 49 39 28 47 62 51 48 27 18 22 22 26 36 34 35 32 30 29 27 22 19 20 24 24 27 35 38
25 12 31 23 38 35 33 70 84 76 50 34 25 29 36 58 70 62 62 47 36 48 48 54 43 33 29 35 33 36 42 44 46 41 38 45 45 37 39 42 46 46 52 49
38 63 36 84 139 81 68 56 38 60 59 33 24 15 29 53 65 94 88 80 71 41 50 63 56 43 43 44 39 41 46 48 50 51 45 48 51 56 72 70 63 68 63 56
45 88 79 88 79 85 84 74 55 54 53 40 30 14 23 48 74 92 101 97 112 99 71 73 68 58 54 52 44 39 48 57 59 55 55 57 52 52 58 61 55 57 55 52
93 77 47 46 60 58 48 57 58 53 44 39 38 28 30 45 87 96 100 109 136 114 108 82 71 58 64 67 65 56 56 54 58 61 61 60 60 60 55 49 47 67 66 56
67 87 101 94 63 51 66 83 94 79 59 47 39 33 40 57 81 101 118 139 157 155 122 120 72 59 72 82 81 75 68 64 59 68 72 73 76 70 64 61 54 54 66 70
89 80 65 41 39 42 36 45 51 66 65 52 44 31 37 54 78 113 156 170 210 183 115 134 100 87 83 86 85 84 78 72 74 83 87 78 78 74 70 64 62 63 68 73
66 70 80 66 52 60 52 53 53 53 63 64 69 64 55 66 92 120 133 145 161 167 142 122 132 160 127 102 97 99 100 103 91 97 93 86 84 78 77 77 74 74 75 90
63 71 54 42 40 53 64 62 49 49 60 52 65 89 78 79 99 120 133 142 172 164 146 143 168 175 150 129 117 116 115 116 116 106 105 103 92 89 90 85 83 84 82 96
40 47 54 46 45 47 56 56 50 45 48 50 67 82 54 52 70 96 143 164 161 158 147 212 170 167 156 139 145 146 144 134 118 112 113 98 100 100 97 92 90 91 93 100
47 52 56 46 37 41 45 47 56 55 55 40 36 49 46 40 81 109 124 108 134 165 195 224 199 186 157 151 141 174 181 152 119 113 121 114 107 106 103 87 94 99 100 107
18 29 50 60 51 44 32 30 50 65 74 72 53 55 59 64 92 114 112 114 138 179 177 212 218 198 196 169 165 191 197 177 138 124 125 117 119 116 114 108 108 105 104 108
1 4 6 6 1 -6 24 52 63 48 37 57 77 74 73 79 87 88 99 89 96 83 141 141 135 123 155 131 168 208 211 188 162 139 124 125 136 134 127 120 115 111 110 112
27 21 13 10 6 2 -1 -2 -5 1 11 11 13 16 27 32 44 53 42 48 65 58 86 110 99 94 107 130 191 203 196 190 172 147 132 135 140 145 146 146 137 117 117 113
37 33 28 26 20 27 32 32 33 38 42 38 36 31 18 13 13 25 24 25 37 65 105 116 114 131 164 216 230 212 199 189 178 163 158 134 158 178 198 192 188 136 132 103
45 36 37 40 36 38 38 48 53 62 71 72 73 74 63 56 48 60 52 61 55 74 91 98 106 123 191 262 290 268 247 248 229 222 198 249 257 242 218 198 170 134 129 118
55 69 66 58 50 46 38 24 18 24 28 34 44 56 61 66 72 82 86 85 87 81 101 130 132 150 187 225 232 232 250 270 252 235 253 283 260 245 216 165 135 127 120 108
42 32 42 43 45 36 28 23 21 26 27 29 33 40 51 54 56 62 65 79 95 105 127 141 132 140 180 214 190 204 237 248 229 239 240 230 222 210 186 157 140 123 105 111

GFSNGP_con_3kmhel_066.txt.gz
Helicity
67 49 39 37 53 69 105 96 120 147 102 52 106 53 38 83 99 106 70 76 75 67 89 90 81 77 64 48 51 59 72 67 58 65 93 97 120 118 88 99 67 54 82 143
53 52 52 57 46 43 54 46 36 100 127 160 137 129 86 47 74 54 62 63 70 83 84 85 83 64 65 68 74 70 66 60 56 60 71 105 75 55 77 33 75 87 139 118
40 38 41 53 47 71 84 64 71 67 46 106 125 105 92 70 60 32 57 69 55 83 99 97 76 74 97 92 94 87 79 65 68 62 72 66 54 50 66 79 99 105 110 71
49 34 54 16 51 36 69 43 38 53 36 83 102 66 70 55 41 46 76 79 90 93 93 74 75 92 96 86 83 79 75 68 56 44 58 39 44 73 101 76 77 61 57 43
58 41 35 68 29 35 44 27 43 32 41 57 65 70 40 65 61 70 74 68 81 128 126 105 92 90 90 79 72 79 85 69 49 45 57 35 55 57 30 12 1 -5 -14 -27
59 57 47 42 20 36 29 46 88 66 42 51 94 52 42 88 61 61 67 79 95 103 117 100 76 84 90 88 72 78 66 67 51 34 16 28 26 17 4 -4 -25 -11 -11 -19
41 43 45 26 33 52 61 51 83 108 89 62 65 43 78 98 62 51 52 70 96 85 54 62 93 105 82 58 62 44 35 31 27 24 30 14 -2 -21 -22 -13 -2 7 17 23
59 52 26 64 61 69 80 97 83 89 76 70 68 69 73 73 76 78 67 67 68 73 71 71 62 59 66 53 21 8 13 11 4 10 9 -9 -1 -6 1 15 16 14 24 26
50 36 33 16 63 90 93 85 67 60 80 87 84 59 67 70 70 57 52 41 61 105 88 33 37 36 31 12 -8 4 11 8 9 19 16 10 20 19 19 29 38 36 46 46
66 44 38 36 59 66 66 76 68 50 58 58 55 61 69 83 75 74 73 66 99 105 66 40 35 41 27 16 -2 13 15 19 27 35 33 32 30 31 37 43 41 50 47 49
45 27 37 35 43 96 74 59 62 47 49 55 54 53 83 83 82 89 88 79 101 83 69 46 47 56 39 20 10 27 40 35 41 37 40 60 67 52 49 44 50 59 57 54
52 87 84 68 162 155 98 81 84 74 60 52 44 42 84 84 97 101 110 112 112 97 82 50 48 48 34 42 35 65 62 54 45 44 41 51 61 65 76 60 59 65 63 55
60 93 122 95 92 104 92 72 64 69 60 51 49 40 43 88 116 90 107 109 113 118 118 72 70 39 48 60 58 71 71 67 65 62 60 60 63 66 57 45 48 49 49 42
82 102 97 90 83 111 95 74 59 54 66 60 57 48 47 71 118 129 122 115 128 140 137 123 85 61 63 90 79 70 73 76 80 72 74 72 66 64 70 72 65 59 43 47
134 138 160 155 117 78 82 67 62 73 67 68 56 51 51 51 113 144 134 144 147 151 156 153 106 69 106 118 101 93 96 89 85 83 83 80 83 80 74 72 66 60 66 58
122 133 136 120 108 96 72 59 34 41 65 82 71 61 51 55 73 133 157 181 202 158 142 150 117 100 156 148 118 111 103 85 87 95 98 99 93 85 77 72 70 67 67 68
101 78 89 100 92 81 77 77 65 46 40 52 62 66 67 71 79 115 153 164 150 145 164 182 140 190 194 159 164 134 124 114 98 113 109 98 95 89 85 86 82 77 75 74
134 114 100 99 87 68 60 62 57 56 48 50 55 70 71 90 87 98 147 149 137 129 148 168 216 228 219 195 171 154 147 137 137 136 126 115 102 97 96 98 90 87 85 84
112 98 79 65 56 53 52 62 70 67 57 48 42 55 70 83 88 92 119 125 123 127 121 178 212 221 200 221 192 192 168 158 152 159 155 125 106 107 108 103 97 94 93 97
56 56 59 65 68 55 46 48 49 55 64 63 65 61 52 67 80 68 72 97 104 104 122 162 249 217 215 215 189 211 180 176 184 185 189 164 136 110 105 92 101 108 108 111
18 20 32 32 29 33 46 46 34 28 43 54 67 71 67 60 60 64 58 81 78 101 118 163 224 236 247 228 215 204 201 209 203 205 217 200 158 125 115 115 118 124 123 124
6 11 12 12 9 -3 -5 5 31 44 42 45 45 57 61 65 68 68 67 75 88 67 118 152 170 175 201 192 236 192 189 191 195 201 203 181 164 145 132 124 124 141 167 176
29 21 17 16 11 5 13 14 11 11 8 11 15 17 15 20 37 48 60 60 55 54 79 80 90 105 118 157 174 171 191 171 189 205 204 206 192 181 166 166 173 221 228 167
48 48 35 31 24 36 39 30 27 23 30 42 52 50 43 34 30 17 14 13 21 23 37 72 71 76 113 166 190 204 193 167 188 236 219 188 219 214 212 214 231 251 185 142
54 29 19 34 52 70 64 52 46 49 63 68 67 63 71 65 54 62 55 48 39 38 61 47 42 43 96 152 166 185 189 187 250 258 240 252 258 236 224 224 222 187 161 148
43 46 54 70 79 71 54 45 28 19 24 29 30 32 37 43 46 52 58 65 73 76 82 85 93 98 127 152 176 167 164 174 178 176 198 241 240 221 219 215 190 166 146 148
60 46 50 40 35 36 35 26 24 23 27 31 33 30 37 43 49 54 57 57 58 61 71 92 104 100 122 135 167 168 163 167 166 181 214 237 221 212 206 196 172 161 148 135

GFSNGP_con_3kmhel_069.txt.gz
Helicity
63 55 58 54 60 90 104 99 96 106 94 27 81 71 37 28 61 101 104 109 104 109 110 102 94 101 81 75 70 58 67 64 53 66 87 99 114 118 131 158 155 137 111 96
59 51 53 55 54 50 63 78 86 103 110 99 93 89 128 115 101 113 96 112 124 126 125 122 99 78 83 86 82 86 78 67 62 78 92 101 116 121 130 135 97 85 102 109
46 57 63 65 54 86 114 114 94 100 47 213 161 162 129 85 89 76 71 93 97 99 127 121 84 87 99 92 89 94 86 76 90 94 92 98 98 107 83 51 61 82 97 99
50 80 69 35 48 47 94 89 110 72 55 66 100 127 113 87 76 55 68 80 87 125 142 115 110 120 105 90 94 90 95 100 89 79 78 73 70 59 42 32 38 30 30 11
68 62 40 29 42 55 52 28 58 62 53 86 136 147 88 69 84 63 76 76 95 122 130 137 133 115 108 88 86 92 96 88 74 61 57 43 34 12 -8 1 9 -11 -10 6
64 57 46 49 56 39 58 39 52 88 48 55 76 60 45 98 111 101 102 114 130 145 157 146 125 120 118 87 74 74 71 70 56 43 20 11 0 -6 -23 -18 -1 -8 1 -2
47 39 31 23 36 59 63 28 56 59 69 60 63 49 60 120 94 86 83 83 97 112 108 102 119 150 118 79 62 59 54 49 39 14 2 -5 -7 -28 -22 4 14 17 25 19
60 52 28 51 69 45 35 49 54 64 65 76 69 72 81 97 100 98 95 97 98 106 100 94 98 101 91 64 50 52 46 28 24 9 0 -12 -5 -9 -5 12 23 23 33 31
59 40 28 12 28 52 53 52 51 55 57 74 75 62 71 86 105 99 97 84 93 113 109 77 68 67 54 25 16 19 19 9 0 -2 -2 4 8 14 24 29 39 41 45 41
79 52 54 43 41 49 51 55 62 60 41 53 52 71 80 85 88 93 90 80 106 118 91 68 59 49 29 20 16 27 13 9 7 18 19 27 32 35 45 47 51 51 50 49
72 47 49 34 58 68 71 72 72 59 50 31 44 47 62 79 97 106 107 102 120 116 89 65 69 53 42 16 21 19 22 23 28 28 45 58 55 43 51 37 42 53 49 52
61 34 49 57 51 97 110 90 71 51 57 51 45 50 71 72 85 114 136 134 126 101 91 81 75 69 61 17 23 28 37 40 38 50 58 63 69 77 60 51 53 58 56 52
82 78 53 59 77 110 111 95 79 61 58 60 63 57 62 85 90 81 103 116 115 107 102 92 87 70 60 36 38 48 57 60 57 60 65 71 73 74 71 49 40 38 39 40
83 93 52 50 63 105 119 112 90 68 58 57 67 61 60 71 98 98 100 104 117 119 130 123 101 74 66 82 82 62 61 63 74 73 76 79 79 74 75 77 70 62 31 38
106 102 82 87 118 122 127 113 101 86 70 72 69 76 74 62 84 104 104 123 140 146 149 154 105 74 89 94 121 101 91 82 87 81 81 80 89 88 87 86 79 71 71 55
141 135 123 125 135 136 112 98 94 97 90 76 82 91 78 67 58 83 128 145 162 151 165 166 139 98 141 129 120 128 107 90 103 109 103 109 109 103 99 90 81 77 75 71
127 101 126 115 115 124 112 92 82 73 75 74 62 61 76 76 73 76 119 142 131 143 153 168 143 164 154 148 147 134 133 123 101 119 121 121 118 113 107 101 94 87 81 77
164 173 173 157 118 107 102 71 60 61 64 64 64 66 62 68 72 75 94 124 133 112 107 125 158 167 163 168 181 167 157 150 148 129 126 123 121 123 118 111 98 92 89 88
166 150 134 106 89 67 65 65 68 65 74 74 66 60 65 69 79 92 88 124 124 103 84 117 141 170 172 188 207 214 208 198 171 151 142 112 114 134 140 123 107 97 94 96
94 87 72 68 59 58 65 63 51 43 51 63 68 69 67 83 88 82 91 91 92 78 76 101 143 162 177 188 185 212 234 236 223 185 170 161 151 156 157 127 131 109 102 108
33 41 46 54 48 38 32 33 44 46 29 28 41 52 58 71 77 78 76 74 55 50 64 83 111 153 201 218 223 239 236 223 241 199 170 177 175 159 166 156 135 134 129 131
-6 1 11 12 11 7 2 2 7 13 18 21 27 41 46 49 56 63 56 49 76 68 80 94 114 117 156 157 221 258 244 215 213 194 163 202 178 161 174 170 161 164 175 190
20 19 19 19 14 10 21 24 23 24 27 29 29 32 31 26 24 32 47 60 51 55 67 73 66 53 53 107 154 185 195 194 192 159 158 166 167 186 205 195 183 185 189 177
42 38 30 22 19 26 26 25 35 40 42 45 50 60 64 69 70 65 57 40 19 16 31 38 32 25 37 106 133 141 155 163 171 179 166 133 153 203 212 217 202 200 200 158
49 31 30 31 32 29 39 57 71 55 48 48 55 54 51 47 50 63 71 72 69 65 55 40 30 35 70 105 135 143 150 163 169 172 173 165 168 201 210 234 216 202 192 178
53 43 37 37 43 52 65 59 35 24 22 9 7 19 28 36 39 42 44 53 57 63 79 88 95 95 105 125 144 148 157 157 139 139 145 147 198 187 172 198 200 185 183 175
61 52 56 41 34 34 32 27 25 23 29 26 20 24 31 34 38 45 50 52 55 58 61 66 72 70 79 87 101 135 163 173 155 161 158 149 154 149 164 191 192 185 174 157

GFSNGP_con_3kmhel_072.txt.gz
Helicity
37 48 54 53 95 127 132 106 93 11 -57 -15 -9 42 85 72 88 96 85 92 106 117 123 118 108 101 96 108 102 87 81 68 59 62 70 81 99 112 115 129 127 128 119 126
63 54 57 68 62 67 81 144 -28 80 32 61 42 89 102 71 73 82 106 114 125 134 150 143 129 118 116 105 87 73 62 58 49 58 72 88 103 120 126 125 132 134 162 137
57 85 90 66 35 92 122 134 116 144 123 119 90 79 65 64 97 110 123 127 134 145 149 156 144 133 119 102 87 77 71 61 62 69 86 97 103 103 117 106 104 128 128 101
44 88 77 43 69 80 101 125 154 140 127 92 78 81 83 103 104 90 101 95 111 136 151 151 163 161 139 109 96 83 87 80 71 80 92 98 100 96 97 95 84 67 56 31
79 58 9 -6 53 75 81 33 123 110 102 75 102 167 141 105 81 73 87 97 101 130 160 172 175 170 153 111 92 89 83 83 78 84 87 95 87 78 57 50 36 35 22 26
80 69 44 38 75 63 67 30 40 89 97 92 175 159 131 114 102 107 105 111 118 132 150 162 153 150 137 107 83 83 80 80 83 79 80 67 52 45 27 14 21 21 26 23
72 45 29 32 36 43 57 34 29 42 81 146 104 42 81 110 123 108 112 118 123 138 142 128 136 133 117 91 65 70 75 76 73 69 58 48 37 11 6 12 12 14 29 31
80 57 33 38 78 51 32 44 40 34 55 73 61 62 74 107 113 116 112 113 94 108 111 105 122 136 110 84 77 82 69 56 49 48 38 28 8 10 25 29 30 32 37 34
59 34 30 16 29 35 42 42 42 44 56 65 75 63 62 81 97 103 106 107 99 104 106 89 91 99 80 60 72 58 31 17 26 36 23 15 17 20 29 30 40 40 45 47
76 49 46 29 38 31 31 38 54 58 56 51 59 76 84 81 96 103 109 107 101 104 93 78 75 67 52 56 38 21 19 24 23 19 23 25 29 36 42 48 51 53 54 52
73 54 48 32 31 47 52 54 62 67 56 40 41 43 55 74 113 116 114 125 116 98 84 77 88 75 58 43 53 41 27 30 31 30 41 46 35 39 47 43 55 67 58 65
83 32 59 53 47 69 68 57 48 53 52 51 53 57 61 59 80 107 117 143 139 120 95 85 92 84 76 57 62 74 72 52 45 53 53 61 69 68 43 44 48 48 55 62
61 64 48 33 50 72 84 78 70 60 53 44 48 49 56 61 79 78 107 122 120 121 110 110 105 80 85 72 79 72 91 72 62 71 77 82 78 75 74 59 51 50 50 45
74 151 121 78 39 61 86 94 91 87 71 54 51 62 63 65 80 86 92 96 115 120 117 108 99 79 84 91 86 74 74 62 93 93 91 85 83 83 81 82 79 71 43 47
73 106 60 99 114 117 133 125 106 94 87 77 65 60 74 68 63 79 92 96 106 116 118 128 103 88 104 104 85 77 84 84 95 102 104 94 95 88 90 88 87 86 96 80
123 121 111 94 89 108 114 115 100 77 83 90 93 81 74 85 85 82 87 112 132 118 129 150 137 128 169 159 122 120 99 87 103 112 116 113 110 101 100 100 101 105 111 105
140 117 108 104 91 100 109 112 99 78 66 74 82 82 77 68 75 85 80 97 110 119 140 160 144 164 192 194 162 130 143 123 111 136 128 119 118 110 109 111 107 113 110 104
129 138 145 110 121 127 115 108 86 72 60 61 65 69 67 68 60 71 79 90 108 108 114 121 138 161 170 171 168 177 172 157 170 153 158 148 127 124 114 108 107 114 119 115
154 147 150 163 156 136 114 99 93 83 82 84 73 67 70 67 68 74 96 103 112 105 81 115 92 124 144 167 210 229 196 202 202 200 182 149 160 169 163 135 122 130 144 133
118 125 118 118 124 116 93 81 79 68 66 61 60 73 78 87 88 89 85 76 90 106 96 77 76 108 133 152 156 212 228 229 245 259 249 230 199 177 182 142 139 146 149 143
59 68 76 76 68 67 73 74 76 77 73 46 32 30 35 46 68 79 81 84 105 93 83 83 69 79 121 159 156 201 231 229 237 245 255 242 195 143 159 164 158 153 157 162
-9 -11 -3 9 9 13 17 15 15 14 16 16 15 19 24 30 34 45 45 59 79 93 82 79 84 74 98 80 148 191 221 237 251 278 283 270 234 183 137 145 155 157 163 167
4 8 13 16 17 20 29 28 26 31 34 40 42 44 40 37 41 52 57 57 29 46 56 62 70 63 57 92 121 131 153 165 187 211 228 232 222 188 157 160 124 161 192 184
35 28 21 17 16 14 8 22 31 41 52 62 61 53 50 53 62 69 62 77 74 58 37 37 42 43 38 73 98 106 126 138 147 162 171 161 182 187 178 169 147 163 203 193
47 43 38 36 31 27 29 30 40 55 63 42 33 27 27 23 26 31 37 44 67 74 75 81 72 63 69 78 95 111 124 135 144 155 163 169 170 173 170 175 162 147 185 211
71 61 48 37 35 32 34 43 49 44 33 28 23 19 17 19 24 33 35 43 41 50 50 58 67 74 84 93 106 123 138 155 145 148 161 163 163 162 164 163 160 164 163 194
87 77 72 49 40 36 31 23 24 19 16 8 4 7 9 15 24 32 42 41 45 50 53 57 63 68 70 73 79 92 120 140 127 152 163 178 171 160 157 146 149 156 165 186

GFSNGP_con_3kmhel_075.txt.gz
Helicity
48 32 54 40 85 94 56 89 119 72 50 76 54 35 30 26 115 126 109 97 98 104 99 101 104 91 86 82 81 90 107 105 93 88 78 73 78 92 113 123 128 138 125 145
56 58 48 44 49 64 93 77 102 -16 -52 23 30 135 131 106 119 105 71 73 92 102 118 127 130 114 104 98 100 110 102 86 69 63 62 67 81 105 130 142 142 136 157 147
47 85 86 56 8 91 134 136 164 85 84 140 65 78 50 83 98 72 63 99 109 119 129 148 148 142 125 118 118 107 88 62 59 60 64 78 100 115 117 117 116 128 129 128
62 78 69 43 71 52 76 88 138 97 64 114 110 58 23 42 69 47 101 93 107 131 144 161 174 171 173 143 114 96 76 72 64 69 82 93 104 108 101 107 110 101 97 90
86 73 44 -21 34 62 64 17 52 135 107 127 118 93 74 84 96 63 84 94 101 121 142 171 186 186 178 146 120 97 87 86 81 84 95 101 105 103 106 102 91 88 62 66
127 81 26 20 59 55 65 27 38 33 72 147 145 81 72 78 107 97 103 107 111 133 154 175 164 184 170 130 115 94 86 89 87 96 91 95 106 100 62 72 64 51 61 57
130 86 21 34 31 43 71 48 54 41 72 116 115 74 69 99 120 122 116 116 129 125 114 111 152 160 129 109 84 78 88 88 89 91 87 92 80 55 50 38 36 43 50 44
133 81 12 40 87 59 40 37 43 44 34 83 72 66 74 67 81 112 124 123 105 119 98 108 135 141 119 97 84 79 83 77 78 81 69 56 44 44 48 45 40 38 39 40
83 38 41 12 31 43 36 36 37 37 30 34 66 61 61 53 60 69 92 101 109 104 103 97 110 119 117 91 85 82 82 70 66 63 45 35 44 50 53 43 49 46 47 47
108 47 24 20 31 20 27 32 47 43 36 41 39 46 27 65 70 65 82 98 113 124 85 84 87 96 98 96 83 83 56 46 42 48 48 49 42 42 47 57 57 55 58 57
90 75 62 48 57 66 49 51 53 50 41 39 31 27 46 57 83 98 114 98 108 108 89 78 91 75 85 77 90 73 49 49 58 60 60 56 46 49 46 40 60 66 60 70
87 62 79 71 65 65 64 56 47 52 55 53 44 41 46 43 54 76 95 148 109 106 107 93 101 87 80 87 90 89 66 59 57 66 70 75 70 62 47 43 38 39 49 69
67 57 66 68 46 47 69 71 67 54 57 48 52 45 45 54 54 56 83 108 113 116 115 125 114 107 100 106 107 106 80 76 78 71 83 97 88 83 81 83 62 57 58 54
63 98 93 75 54 39 68 97 96 90 75 61 52 50 47 45 55 60 64 78 99 113 111 114 113 100 115 115 115 97 102 81 104 96 94 108 103 94 98 103 100 87 58 49
37 85 55 81 110 114 109 98 103 94 80 73 71 65 63 56 55 51 66 72 89 99 107 114 112 97 123 132 150 106 96 104 110 111 114 107 121 119 108 106 99 93 96 85
98 100 92 92 87 86 91 87 78 73 77 80 77 79 76 73 69 71 80 90 118 100 93 120 121 112 150 176 181 147 114 82 112 133 133 133 137 130 127 119 111 107 105 96
137 95 106 100 79 73 64 73 73 74 72 68 63 73 76 76 75 72 70 78 84 92 110 123 107 145 156 180 212 189 171 142 127 163 155 147 144 140 143 144 125 116 106 119
99 102 89 69 84 102 101 100 90 84 71 57 46 59 69 70 56 62 72 78 78 83 88 100 112 119 137 158 189 199 201 172 173 178 168 181 166 165 169 157 139 135 135 119
103 114 135 153 151 139 131 123 116 100 87 82 83 92 81 82 80 69 76 77 78 77 87 96 95 106 125 132 144 186 219 200 189 229 209 186 187 191 180 178 173 198 201 158
124 126 124 129 139 125 114 110 86 85 80 71 63 70 82 85 82 81 74 73 87 84 107 124 109 108 111 132 113 164 179 198 208 216 238 253 237 244 247 202 201 208 209 176
81 91 98 93 88 81 77 73 69 71 75 81 85 75 50 38 40 45 56 74 101 117 107 101 104 95 94 102 101 160 173 194 214 233 254 259 241 231 252 253 216 192 176 174
-17 -17 -7 -0 -4 -1 4 9 14 16 12 11 13 14 17 19 24 26 19 36 51 82 75 85 96 95 86 60 113 122 161 170 182 206 223 240 252 259 262 259 238 222 192 154
-4 -4 1 8 13 23 29 29 28 34 37 36 41 46 44 33 29 34 33 48 45 40 28 30 60 67 68 84 102 105 126 136 146 161 167 174 177 187 200 215 219 210 193 183
31 28 24 24 25 26 27 40 50 56 41 39 51 55 39 33 41 48 40 50 60 69 62 57 48 39 41 46 64 78 90 97 104 113 127 114 146 157 167 177 181 177 168 169
45 57 57 53 40 33 36 30 29 26 37 47 50 42 38 24 13 19 27 32 50 51 48 69 88 89 74 65 69 76 90 102 107 117 130 138 146 157 156 160 153 153 175 189
58 61 60 50 41 42 39 39 35 32 34 36 32 30 30 29 18 16 17 28 31 40 36 39 44 53 60 65 68 77 89 104 107 109 125 141 142 145 151 155 157 149 146 173
74 80 82 66 57 55 60 46 36 16 16 16 14 15 16 13 10 14 19 18 22 28 35 41 47 55 59 65 70 74 78 80 79 106 118 125 142 145 140 142 150 153 156 168

GFSNGP_con_3kmhel_078.txt.gz
Helicity
36 45 64 60 72 96 113 123 130 65 30 70 16 -18 20 -4 45 88 109 149 110 107 104 104 104 97 86 81 81 87 92 94 98 107 103 94 90 86 97 116 128 131 127 133
50 55 46 57 61 68 87 15 7 24 62 18 52 91 30 84 87 126 95 92 107 108 107 108 116 109 99 91 89 94 98 101 103 104 89 81 77 79 105 131 151 152 151 144
21 61 56 -23 4 50 172 180 178 77 201 145 74 29 63 63 114 76 47 81 100 103 119 136 142 140 129 129 137 120 114 106 97 82 73 71 74 88 116 131 138 141 139 133
53 67 6 33 65 64 64 44 171 162 117 162 106 85 62 51 61 48 36 63 93 123 139 155 175 184 190 171 143 130 113 100 90 73 71 74 86 104 118 119 120 115 112 108
98 84 48 -9 30 54 83 44 45 104 96 97 121 83 42 68 61 61 68 80 82 114 145 161 180 206 209 177 155 136 118 105 90 85 85 89 97 104 107 106 109 106 85 75
149 98 40 42 71 49 49 39 48 40 41 74 116 69 49 70 78 99 88 96 97 123 155 169 165 205 202 163 146 124 118 106 100 97 100 100 102 100 97 100 94 69 77 49
165 123 50 31 61 72 72 41 55 47 31 45 94 78 59 60 72 82 100 103 136 148 121 116 152 170 148 140 107 102 107 101 102 102 107 106 108 107 83 69 71 59 53 48
169 101 14 63 115 76 54 60 45 42 34 28 46 63 89 70 87 84 101 130 123 116 108 107 119 134 124 98 96 108 102 93 103 100 87 85 92 70 41 39 47 48 47 49
74 81 72 36 14 33 46 44 44 36 14 -10 31 71 83 70 61 53 73 108 107 104 110 96 89 100 107 79 120 115 95 90 95 89 82 70 62 39 53 39 52 51 55 54
104 30 23 9 24 10 20 25 32 35 27 15 19 21 56 57 44 55 69 73 84 106 87 90 66 78 79 113 99 109 90 91 91 87 67 46 44 52 52 56 54 53 57 56
88 53 59 22 23 58 51 42 41 47 43 36 43 33 34 12 27 44 69 78 88 91 79 65 75 77 95 112 103 89 91 84 69 49 43 50 44 48 46 42 69 70 55 63
81 73 69 50 70 58 62 62 50 59 61 58 49 34 41 40 41 55 58 85 120 96 88 83 91 89 96 100 91 93 84 75 60 60 78 74 62 44 27 30 38 37 50 72
85 51 34 40 49 48 52 74 71 65 59 51 52 40 38 37 42 41 55 62 79 76 71 102 107 112 113 114 100 95 91 94 87 73 89 96 88 79 73 72 51 55 54 52
30 23 51 34 43 57 64 105 119 115 94 73 55 51 47 44 50 43 45 58 63 73 84 94 98 102 117 124 122 116 98 82 97 94 104 110 111 104 107 101 100 96 75 66
30 53 39 34 69 75 91 103 117 97 82 79 77 65 67 67 61 54 53 57 67 70 75 93 100 99 125 139 145 140 146 123 116 123 128 119 133 131 122 116 103 104 115 96
72 73 55 50 43 66 72 71 75 69 70 61 63 65 62 58 60 62 67 62 78 88 87 92 85 102 128 152 158 158 148 125 129 155 151 150 147 138 135 128 123 119 124 116
76 84 90 92 78 69 80 84 81 73 63 61 54 51 54 57 63 70 83 88 77 71 80 88 89 111 128 138 152 160 168 185 150 180 186 170 165 167 159 160 145 139 128 142
82 93 94 88 81 79 78 83 86 82 68 55 55 51 39 44 59 74 80 82 85 76 64 64 81 103 117 122 132 144 166 174 187 178 174 176 174 171 175 177 166 151 140 145
121 122 141 134 107 108 110 110 102 91 86 77 76 70 71 87 92 94 100 93 90 86 103 105 88 91 109 114 128 142 158 164 169 186 220 183 170 186 213 199 186 181 183 189
125 142 135 122 141 124 110 110 97 92 76 70 70 66 74 81 80 82 87 90 90 84 101 113 119 96 99 109 93 150 137 135 156 160 185 203 226 238 225 208 224 219 223 217
77 84 93 104 109 111 97 78 64 62 53 47 42 41 32 38 58 67 66 62 70 76 79 100 102 100 100 98 104 125 139 117 132 155 170 181 193 201 220 233 237 232 235 253
14 23 40 41 31 16 4 -1 -3 -4 -1 9 19 27 32 38 41 45 50 38 28 37 42 59 65 78 84 89 98 98 99 105 117 135 144 155 162 171 181 198 214 224 234 252
12 7 8 11 14 18 24 30 31 35 35 43 45 50 44 45 46 54 59 55 39 50 42 40 49 49 55 56 58 70 76 89 100 107 120 135 140 143 145 149 156 168 175 190
17 18 18 22 29 32 25 35 40 46 43 39 38 29 35 47 43 43 27 32 50 60 48 47 62 79 65 43 41 48 60 66 72 79 90 69 104 109 109 116 125 140 159 146
9 26 44 44 33 27 38 38 39 37 36 36 29 28 40 39 32 30 22 14 28 30 23 41 54 58 43 49 55 61 64 72 81 89 95 99 104 112 127 138 150 154 161 162
4 29 43 50 51 50 50 53 48 45 35 26 20 17 22 25 28 31 27 21 16 26 19 24 27 30 31 35 40 44 50 58 64 71 75 90 103 108 119 117 118 122 128 134
24 44 69 65 77 79 77 70 57 41 43 35 20 18 22 19 19 22 23 17 14 15 16 16 22 32 35 41 47 52 55 59 60 64 68 73 84 89 105 114 119 125 128 117

GFSNGP_con_3kmhel_081.txt.gz
Helicity
105 100 90 75 87 119 144 116 153 62 26 79 50 31 15 -67 -6 3 67 94 83 92 95 91 100 95 96 93 89 92 95 98 96 98 96 100 105 101 103 107 109 109 121 133
91 80 64 75 75 93 100 90 64 44 78 53 123 150 61 26 46 57 61 105 101 110 121 106 102 102 106 109 104 105 96 94 105 100 98 87 91 89 89 93 101 111 127 126
40 76 51 -20 19 129 155 178 187 86 143 131 119 112 114 127 121 97 133 121 61 86 101 112 113 133 129 133 147 112 110 92 92 94 93 84 80 76 82 90 102 119 118 117
49 49 -2 18 74 49 62 18 137 61 77 124 165 123 101 76 65 61 103 97 34 69 102 109 140 158 186 192 161 134 111 107 109 104 92 84 78 77 90 99 107 105 113 113
68 66 27 3 25 53 78 33 11 12 50 64 79 81 41 63 61 73 91 76 68 112 120 141 158 189 223 210 180 151 128 119 118 111 98 96 93 95 110 117 107 100 94 92
93 51 -12 14 44 28 39 48 40 37 39 42 54 61 71 51 92 67 89 89 100 98 128 150 168 213 228 198 176 139 128 122 114 107 114 109 109 109 112 102 104 103 94 72
107 77 69 43 100 62 60 35 47 35 28 44 78 66 44 104 89 92 105 123 145 147 121 120 167 185 175 173 137 133 139 126 110 112 117 118 119 123 111 108 110 85 61 42
131 86 53 126 169 108 35 47 28 33 30 25 16 37 75 117 93 103 115 126 136 133 123 131 130 138 133 110 124 136 135 126 115 118 120 116 115 106 92 83 72 55 44 31
61 21 23 9 16 7 32 26 23 30 27 -11 -11 28 76 104 71 87 83 89 96 122 129 114 102 108 104 88 135 140 131 112 107 110 109 97 93 82 53 41 40 38 39 38
80 23 14 -1 24 17 23 20 18 20 22 19 10 18 34 45 44 46 47 55 74 104 96 92 67 91 78 118 126 136 114 98 104 112 103 88 66 42 30 36 37 39 44 36
47 23 41 17 12 28 33 35 35 30 23 23 32 24 22 28 30 30 46 69 80 68 64 68 82 69 83 111 125 107 104 96 93 78 72 58 35 42 39 31 52 60 45 50
41 47 47 31 40 44 54 44 36 41 42 46 44 40 45 41 32 37 48 51 56 61 79 91 90 75 90 114 126 108 104 105 94 80 78 55 52 36 11 21 23 14 25 52
22 50 60 31 39 40 35 44 70 61 55 58 68 56 48 41 39 30 44 60 63 52 55 98 93 85 101 118 114 102 98 97 89 87 88 82 72 73 60 48 28 35 29 30
118 62 67 32 38 43 53 73 113 117 107 83 63 61 50 47 52 54 45 32 39 53 60 68 78 76 94 116 117 101 100 88 102 105 96 102 103 91 96 92 88 90 68 58
106 87 47 32 55 62 74 81 123 122 96 86 81 62 65 63 63 68 68 57 48 51 58 76 80 80 106 120 132 122 112 107 116 121 110 100 105 110 109 106 98 97 117 94
94 110 68 42 49 54 77 88 79 80 86 81 75 66 49 40 41 49 59 65 63 63 66 87 87 83 108 118 131 130 129 108 135 148 123 117 119 115 115 120 120 110 113 103
81 113 77 62 57 69 82 83 71 64 66 71 65 54 44 35 31 45 66 74 73 76 90 83 89 90 105 117 130 136 141 136 104 147 167 162 162 150 148 138 144 142 133 138
37 68 77 61 83 112 108 96 83 78 64 62 63 49 45 36 24 42 77 94 95 98 105 118 100 87 84 100 118 124 137 139 136 151 161 162 173 165 168 147 137 132 119 143
74 76 110 137 126 125 111 106 90 85 88 79 74 71 69 66 69 73 82 99 116 117 136 126 136 112 97 89 109 135 133 136 138 126 156 133 142 176 194 195 167 139 159 181
75 88 112 137 161 141 121 115 106 97 98 93 74 76 68 65 65 62 55 62 76 69 87 110 124 127 117 105 85 131 127 121 127 130 131 144 157 167 177 161 178 193 185 189
86 103 116 125 128 115 107 101 93 90 67 46 33 22 5 -3 2 14 41 45 59 57 45 52 69 95 99 106 94 99 110 118 125 128 134 115 121 125 144 156 166 176 191 195
62 49 52 52 52 47 37 24 16 13 11 13 20 28 33 39 46 47 68 62 60 84 57 36 29 46 59 77 75 77 80 89 103 110 106 107 111 119 126 135 144 148 158 168
37 8 1 3 7 11 17 26 26 26 30 38 37 42 43 36 34 59 56 55 55 68 66 53 54 72 69 51 45 48 61 66 72 77 81 89 96 95 99 111 115 117 119 125
24 10 8 14 20 24 26 28 38 44 43 45 46 45 47 49 54 39 31 28 39 43 33 52 63 74 63 43 56 65 56 50 51 54 58 46 71 75 80 84 87 95 110 99
17 14 17 16 11 11 22 28 35 38 42 41 36 32 30 23 17 11 18 26 32 35 18 29 44 47 26 26 31 33 40 47 51 53 59 64 72 82 92 99 101 98 100 112
13 2 -6 -1 13 27 35 50 43 44 45 39 34 31 25 20 16 19 20 25 29 32 25 14 16 22 23 27 30 30 32 34 38 41 46 53 58 66 73 77 88 88 88 92
24 10 20 12 23 50 65 66 67 50 54 54 44 39 45 40 30 27 23 21 20 19 16 12 12 16 14 13 19 24 29 37 40 46 55 60 65 67 75 81 81 93 99 101

GFSNGP_con_3kmhel_084.txt.gz
Helicity
117 126 117 78 30 47 96 80 70 39 15 -7 -18 -2 2 -11 -1 2 25 24 50 36 46 72 91 106 108 108 110 103 95 90 85 86 94 100 100 101 107 102 109 119 116 113
81 105 105 88 76 69 40 20 8 2 44 -33 47 91 94 64 53 38 51 55 52 65 62 92 93 87 104 102 102 99 90 87 95 96 92 89 95 102 96 93 92 102 106 100
22 39 63 61 42 38 64 63 48 51 68 20 29 39 60 66 103 110 60 38 63 83 100 75 83 91 95 97 110 101 97 97 93 95 96 89 84 84 88 84 91 97 110 116
75 43 18 35 63 41 24 6 21 15 27 50 45 48 42 40 27 41 89 106 53 71 74 56 92 88 97 120 121 119 110 108 109 104 97 97 91 82 94 93 91 97 113 113
70 49 63 41 18 47 42 40 14 7 27 33 45 33 41 26 34 25 50 87 64 40 40 65 78 96 132 149 155 151 141 122 119 110 106 109 104 108 125 118 111 104 107 107
76 50 -5 28 25 6 30 28 22 9 17 30 44 34 47 75 78 40 42 70 86 76 99 79 87 123 146 154 163 154 140 124 121 109 103 98 125 135 128 111 105 102 110 94
55 41 27 34 78 47 7 57 53 28 21 20 38 31 47 60 90 93 116 92 106 122 120 108 136 136 128 149 139 126 139 139 123 116 103 114 142 152 138 119 106 98 91 81
53 47 37 81 151 89 72 55 40 35 37 21 5 7 33 56 78 89 117 129 120 142 140 134 124 124 129 119 126 149 148 134 121 116 118 123 126 130 110 101 94 83 80 62
43 42 45 -17 12 6 27 22 21 31 36 5 -4 4 39 65 66 86 95 118 135 138 148 136 119 113 105 92 120 130 131 122 113 102 108 115 132 114 106 80 74 60 50 43
84 33 13 11 -1 10 7 -2 8 10 16 15 13 20 20 34 42 61 74 75 79 95 103 108 97 90 81 104 109 110 99 102 107 107 115 115 105 92 78 46 34 31 39 37
23 29 61 45 29 26 18 12 15 27 23 20 20 23 24 25 31 40 43 52 59 79 90 87 82 77 92 101 90 93 96 92 96 93 105 102 81 68 39 -3 19 41 42 41
50 88 87 73 73 53 19 21 25 35 39 50 41 39 36 41 39 33 38 44 61 85 104 74 55 77 88 91 87 89 88 87 95 96 100 81 65 26 -6 1 14 19 30 43
70 73 62 103 70 36 29 27 39 56 59 62 73 64 54 47 50 41 36 41 42 41 41 61 78 102 105 92 109 111 92 85 98 102 97 90 72 57 42 21 10 16 15 18
188 95 80 79 88 59 38 63 78 106 108 94 76 73 58 46 43 50 51 48 41 38 47 54 62 60 59 81 100 112 92 75 100 119 124 105 81 74 60 66 77 64 41 43
194 60 116 107 96 57 48 68 82 100 97 96 97 88 79 58 52 55 55 61 56 48 50 56 55 59 79 87 108 114 110 92 90 94 100 97 109 114 99 89 85 81 91 88
184 78 109 127 74 53 44 52 65 69 73 80 78 81 77 71 61 54 59 63 58 64 74 65 64 84 112 101 104 119 117 90 101 111 123 118 114 119 107 88 85 95 108 107
142 126 103 114 101 66 47 54 65 74 75 68 66 62 62 59 48 48 42 27 48 73 86 97 105 118 101 123 112 112 130 128 92 132 141 139 148 129 124 109 124 119 116 125
46 96 123 123 101 86 94 104 101 88 80 75 70 65 73 81 76 71 57 66 74 94 131 126 120 127 110 106 113 102 103 116 120 141 153 143 146 145 160 142 134 126 123 115
19 34 72 95 87 119 135 130 118 110 102 90 78 79 79 85 82 68 65 71 96 101 113 120 144 132 119 102 107 119 110 95 113 119 146 121 126 143 157 156 160 159 155 165
38 34 68 111 140 146 141 119 102 110 111 85 86 90 84 77 61 56 56 77 69 53 51 46 58 96 123 143 109 117 120 116 116 119 129 136 136 135 144 125 139 147 154 161
57 72 92 112 135 142 131 122 101 95 98 96 77 59 41 28 29 31 31 34 59 68 76 75 65 61 56 66 96 101 106 108 108 113 124 123 132 129 130 130 128 127 131 133
100 92 104 95 96 95 79 70 57 44 36 29 26 28 29 38 43 45 65 65 61 69 70 84 84 80 81 61 41 52 68 73 81 92 95 97 105 107 107 105 107 114 116 115
111 61 21 6 7 11 16 24 25 25 28 33 37 42 48 47 43 40 44 58 51 54 52 55 70 86 78 62 45 54 64 61 54 61 67 72 76 77 75 75 82 87 88 89
32 53 49 31 20 18 19 22 24 32 39 43 47 47 46 45 39 30 33 30 38 55 49 45 41 55 63 55 57 53 55 64 69 63 59 60 58 58 58 63 63 69 75 76
35 55 34 12 15 19 17 17 19 25 31 33 34 36 36 32 25 27 24 25 29 31 28 29 37 45 38 37 38 38 38 40 41 46 53 55 55 54 56 61 64 65 67 78
23 13 10 14 22 18 14 21 16 30 36 34 35 36 38 43 42 39 33 24 24 20 21 23 26 29 29 26 28 32 36 39 40 39 40 42 43 45 48 55 61 66 70 76
21 12 32 35 40 35 33 28 33 25 42 48 45 50 48 49 45 41 38 40 40 40 38 36 35 32 32 32 33 34 34 30 32 34 41 46 51 55 61 64 69 74 77 77

GFSNGP_con_3kmhel_087.txt.gz
Helicity
95 134 88 60 34 43 92 90 94 36 1 10 2 5 29 35 64 -21 -9 -17 -34 27 52 59 70 87 109 122 123 120 129 129 123 116 107 104 100 102 111 117 128 134 130 124
64 89 130 82 90 54 25 49 16 -28 3 -20 48 77 61 63 37 22 -19 5 71 63 81 75 71 73 94 109 113 108 104 104 107 93 91 88 96 103 107 108 110 118 129 139
89 8 38 105 41 64 52 35 33 33 21 20 19 34 60 89 98 61 33 27 72 85 84 78 81 92 95 104 117 118 109 103 97 91 90 103 106 101 99 98 105 105 114 121
47 26 3 66 85 -9 3 19 32 30 15 15 39 36 46 32 40 44 40 57 60 69 88 76 99 118 117 125 105 99 107 116 112 105 105 117 103 89 104 107 104 116 128 128
64 31 75 54 37 60 49 37 9 -3 13 34 46 53 32 28 32 22 24 39 61 73 77 113 129 145 129 126 115 113 125 137 130 126 126 108 95 111 158 158 162 147 124 103
78 99 50 78 38 54 58 27 44 42 43 50 51 37 68 85 71 73 64 82 81 75 67 120 136 146 137 120 113 109 121 136 144 145 144 118 111 143 153 144 143 130 104 90
36 47 59 55 66 59 30 58 40 30 35 37 36 38 57 51 48 50 76 105 98 95 104 116 138 135 112 131 125 133 158 171 164 159 149 159 161 149 155 149 136 106 87 81
50 60 28 98 81 53 78 63 40 17 30 31 38 37 24 42 58 48 75 90 109 108 137 175 154 124 130 149 171 181 171 161 163 149 168 163 132 141 143 137 125 98 85 86
63 68 59 -8 22 22 10 39 40 41 51 42 31 28 39 57 66 71 67 76 94 137 168 161 135 126 142 142 149 155 142 136 130 133 143 131 146 159 154 136 122 95 81 77
80 73 66 50 16 17 25 19 25 25 25 20 23 33 45 42 48 54 51 60 72 92 120 133 125 134 132 126 117 116 109 109 118 121 133 127 146 148 140 123 99 73 65 57
59 13 114 86 103 91 61 16 13 17 17 16 15 25 31 33 35 39 47 52 55 65 84 102 112 124 137 106 101 96 94 87 106 107 115 117 133 134 114 85 61 46 38 32
55 94 117 149 108 117 87 58 26 11 33 36 32 39 40 45 44 35 42 44 50 69 79 91 109 125 118 106 87 73 90 101 88 105 111 120 123 98 42 21 4 -6 16 35
121 77 105 96 103 98 81 65 41 37 56 57 67 56 55 50 52 39 38 44 49 49 50 58 61 67 72 85 103 105 107 131 115 102 114 127 117 99 74 28 9 15 9 16
86 48 33 59 86 126 91 60 48 78 99 91 80 77 67 56 47 48 50 48 50 45 44 42 46 52 75 99 105 105 112 102 117 107 114 119 142 133 96 78 63 49 28 34
49 78 118 77 100 122 91 60 44 62 88 100 94 84 81 70 64 55 54 55 48 46 49 49 43 43 63 74 89 97 117 132 118 110 113 106 109 112 108 105 102 99 98 71
104 87 67 71 125 145 94 69 42 51 66 82 84 85 77 69 64 62 61 60 51 41 49 60 67 85 79 85 94 104 110 99 114 130 117 113 132 132 124 110 98 86 89 98
79 98 56 51 112 109 83 79 62 63 71 78 84 83 78 73 62 69 59 60 52 35 49 86 109 112 95 78 102 120 131 129 73 132 141 138 134 137 140 146 136 125 107 120
44 75 63 55 69 102 99 94 89 90 95 84 74 74 72 67 67 63 64 61 60 58 90 86 93 103 108 102 105 114 123 133 129 124 143 144 145 150 154 148 151 152 144 135
48 27 34 60 79 122 131 123 130 128 106 92 81 81 77 71 74 77 72 71 76 76 75 54 74 76 90 109 114 115 126 126 124 110 108 100 112 132 143 148 139 146 158 172
22 21 36 64 86 90 103 112 136 136 119 101 86 76 77 84 74 61 56 64 57 43 36 45 53 61 64 66 77 74 113 118 117 118 120 116 120 126 131 119 134 136 140 149
28 37 41 44 73 107 117 122 117 106 103 92 75 82 74 60 45 35 26 29 52 53 53 59 63 71 86 88 83 73 71 79 93 102 107 106 105 106 124 133 138 144 148 140
69 75 75 84 115 115 105 87 71 60 59 52 41 35 30 32 36 37 53 53 42 56 51 56 57 73 81 95 78 84 84 82 63 62 70 74 76 79 85 94 101 114 125 124
72 107 132 89 42 21 18 23 24 29 32 35 37 43 45 46 46 47 52 64 47 53 45 46 55 53 59 53 54 28 27 37 52 62 59 54 52 60 72 78 82 89 93 93
6 24 53 54 38 28 22 30 31 37 37 37 41 47 44 41 40 41 37 30 30 32 30 33 36 40 46 47 49 51 51 55 57 58 54 55 51 54 56 58 60 61 68 66
18 7 21 57 60 29 33 30 26 20 17 15 25 34 36 42 39 51 43 41 30 29 28 28 30 38 38 40 43 44 41 40 43 36 37 39 42 44 48 51 55 59 60 65
19 8 9 9 20 30 39 45 32 33 36 25 27 38 44 49 49 49 51 44 44 40 47 49 50 50 48 44 42 43 45 45 42 43 42 45 44 44 43 46 48 53 56 59
39 37 51 51 53 51 69 62 53 46 47 49 38 50 58 61 55 52 54 59 65 69 66 62 57 49 49 49 52 51 51 51 43 44 47 44 50 55 54 58 64 67 71 73

GFSNGP_con_3kmhel_090.txt.gz
Helicity
66 73 132 53 95 101 114 135 154 95 38 21 12 28 -11 -1 35 95 -44 -91 -49 -18 29 64 97 119 156 183 200 186 187 180 160 154 156 152 135 127 132 133 141 143 114 103
63 125 176 128 107 46 62 103 92 57 -2 30 20 -3 -9 22 47 92 64 -43 10 -0 57 98 140 157 144 146 146 145 136 128 140 147 155 149 143 143 138 126 122 118 134 133
64 68 75 57 49 86 93 74 81 91 49 69 44 50 58 71 68 57 69 61 31 38 154 159 168 170 146 160 166 140 131 128 141 137 141 136 149 142 130 108 105 101 106 119
6 106 74 51 88 14 95 107 76 66 66 39 48 51 36 15 30 59 69 76 90 100 137 145 173 175 184 191 172 153 139 145 144 157 154 173 156 126 122 106 97 107 130 128
16 67 76 47 29 69 53 26 31 40 58 56 58 94 55 68 104 92 75 56 63 73 90 146 186 221 224 223 210 164 146 150 159 161 185 186 154 137 139 132 131 127 125 130
2 19 49 81 32 75 66 58 82 91 88 97 81 79 59 61 51 48 53 74 94 99 105 114 206 270 285 247 230 175 154 174 172 180 197 188 163 144 131 127 121 132 121 114
-1 14 35 40 1 16 60 55 53 58 64 61 48 38 33 40 46 41 47 69 135 151 105 90 249 317 253 209 149 143 158 180 191 200 208 206 181 155 137 124 136 131 121 113
21 33 50 79 82 40 67 69 62 43 38 45 55 54 40 44 42 52 66 82 134 144 194 203 255 250 193 146 135 178 207 206 203 217 224 184 171 153 144 152 151 137 121 117
6 84 85 25 72 48 56 50 59 61 59 63 65 50 43 52 53 55 57 63 90 126 183 237 240 180 176 155 193 203 197 179 180 194 175 155 144 145 155 153 143 127 130 122
59 79 93 139 74 129 99 62 51 44 46 30 38 36 51 43 38 40 38 41 37 68 97 128 151 147 133 149 163 164 155 158 163 148 133 134 133 135 148 152 136 119 121 94
46 80 108 141 165 159 132 80 54 33 27 36 35 38 31 28 26 25 24 29 38 37 52 76 92 119 108 109 118 128 135 128 148 110 98 120 113 120 125 117 119 108 98 91
90 120 93 114 170 184 140 85 75 55 36 53 48 53 51 46 36 34 34 34 43 49 52 49 59 77 89 102 120 119 104 134 134 117 117 125 109 93 55 63 55 35 36 41
112 88 37 81 22 73 106 101 86 65 63 71 91 77 64 51 44 45 42 46 44 42 45 58 61 58 91 92 116 72 94 129 135 126 133 116 112 104 106 61 35 24 13 11
84 31 -40 22 10 80 114 99 71 71 97 87 79 89 78 64 69 55 45 34 36 40 43 42 43 39 43 59 67 75 99 95 111 124 133 121 105 104 99 103 115 86 35 32
28 -23 25 51 17 63 100 94 59 45 57 74 81 88 89 77 69 55 51 51 40 44 47 50 52 53 46 56 68 74 90 104 109 114 118 103 116 109 104 95 87 91 108 78
-51 53 71 106 58 22 64 97 82 58 56 67 91 98 93 85 73 71 68 67 56 48 42 36 47 76 92 69 78 88 88 76 90 112 122 103 115 112 114 112 107 103 95 90
-2 -23 41 129 106 62 78 109 104 95 85 93 80 77 79 69 71 69 59 54 56 72 65 50 34 63 93 99 76 87 97 102 82 119 133 140 126 123 116 124 124 121 112 113
-19 -38 17 83 82 53 71 110 111 120 106 84 81 79 80 79 67 66 63 67 79 76 84 62 62 57 66 83 83 71 82 101 111 113 136 141 131 125 139 131 132 137 131 134
17 7 16 38 44 46 92 136 173 179 160 118 100 89 76 72 66 64 63 78 80 70 60 36 50 48 44 51 58 49 58 70 96 121 127 109 114 115 109 113 124 127 130 141
27 44 33 25 38 68 89 91 93 90 106 104 99 92 88 92 94 85 72 64 48 31 25 27 32 38 50 62 80 71 82 74 64 68 94 110 116 121 120 111 112 112 119 121
48 47 45 17 27 37 39 53 57 60 76 91 94 88 80 66 57 44 38 29 37 42 44 47 45 41 41 51 65 68 81 75 85 79 67 76 83 88 98 101 98 96 102 112
57 60 65 58 50 59 83 91 76 68 67 65 57 45 34 28 29 34 47 47 36 53 44 42 39 49 46 57 42 56 45 53 52 53 56 63 69 77 80 73 70 74 82 91
26 47 64 81 92 75 37 24 20 23 25 29 35 41 47 44 44 52 53 44 37 34 32 30 41 53 59 41 41 43 40 52 56 61 59 59 50 41 48 61 61 59 61 80
12 1 4 23 47 47 46 34 29 29 30 33 33 35 41 48 40 37 34 31 31 30 28 25 29 33 39 27 27 25 28 29 38 46 45 49 44 54 55 52 51 51 45 37
11 12 1 13 12 7 23 44 24 25 22 18 15 17 19 28 35 34 34 34 32 35 33 30 31 37 35 34 34 35 35 34 34 41 45 49 48 47 49 42 37 36 41 46
27 32 37 23 35 20 10 37 46 33 39 35 30 29 32 37 36 34 34 31 38 36 48 49 46 41 37 34 35 38 42 46 52 54 50 58 56 56 57 60 57 54 55 55
43 24 44 37 48 50 44 55 69 42 50 64 56 46 46 46 41 39 38 49 55 58 58 55 48 38 33 34 38 39 44 52 45 57 66 67 71 73 68 67 62 53 59 59

GFSNGP_con_3kmhel_093.txt.gz
Helicity
42 28 63 78 87 87 123 109 105 54 50 27 55 47 9 25 39 67 35 -2 -34 -42 -24 16 67 90 124 159 180 207 236 236 206 175 154 149 169 162 160 158 145 126 118 122
21 28 29 52 52 14 13 67 67 76 20 70 53 -9 -29 -61 -37 5 10 14 10 23 33 37 49 110 149 162 181 185 181 166 167 163 163 151 157 154 143 134 133 134 137 113
-163 20 119 81 88 86 133 45 56 48 26 71 22 -2 -1 5 3 16 61 57 49 68 105 95 81 110 167 167 162 150 147 149 154 162 163 156 155 149 137 122 126 125 123 117
-126 21 28 40 36 39 92 79 111 89 86 46 40 44 64 78 39 31 47 57 46 48 89 154 163 144 198 194 161 140 124 137 145 159 156 163 159 137 130 129 121 117 116 113
-127 -29 46 49 44 36 57 43 56 47 40 71 71 62 80 56 35 36 49 46 41 47 66 160 195 217 229 195 180 155 123 132 151 155 166 168 142 132 136 140 124 123 122 105
-104 -125 -53 5 27 36 42 76 56 32 48 52 71 79 68 77 61 47 44 43 51 65 69 138 177 255 251 202 188 141 141 140 142 148 166 161 147 148 143 135 117 121 109 105
-73 -77 27 32 23 21 65 63 58 67 77 80 59 45 39 45 49 33 27 47 70 99 113 85 154 261 248 213 165 177 171 146 143 146 165 156 167 162 151 122 117 112 107 104
25 33 5 107 81 60 56 69 69 61 57 54 45 43 34 41 47 53 48 62 94 117 137 137 138 251 254 183 169 159 157 152 147 163 174 181 176 155 138 116 107 110 112 107
31 29 53 183 201 149 105 85 67 40 42 62 64 55 39 49 55 55 60 53 72 93 134 192 172 179 227 159 140 137 161 158 161 176 177 168 151 142 133 114 120 124 128 124
25 17 51 25 107 180 124 86 96 42 45 29 33 33 32 31 40 49 49 46 34 59 89 120 131 121 100 99 132 157 160 155 165 171 149 154 138 124 119 119 115 119 120 112
81 -4 41 64 65 118 164 131 128 116 34 41 30 29 30 33 32 27 29 35 33 37 50 69 81 87 84 99 123 134 138 142 145 142 131 148 98 97 100 88 104 109 107 109
167 82 45 49 86 72 109 203 148 79 49 62 45 45 46 41 31 23 29 22 44 39 41 44 58 68 68 69 84 105 115 126 128 117 138 123 88 69 37 36 34 33 36 64
190 65 33 -9 -7 -19 39 137 220 117 49 63 80 70 67 54 50 54 46 35 31 24 27 44 59 67 61 74 87 104 126 136 156 100 137 133 105 91 62 45 14 34 31 35
79 36 -20 -20 -52 0 -45 57 172 73 56 62 79 78 71 71 68 66 63 41 33 35 37 33 38 40 35 46 54 64 72 69 93 107 113 106 109 93 83 79 73 69 39 57
95 76 22 -30 23 41 23 58 126 60 39 70 98 96 95 96 80 72 70 57 61 65 64 63 67 79 65 53 60 65 75 77 84 98 105 93 94 102 94 78 81 78 79 50
30 -50 -50 -59 17 53 61 95 78 72 58 68 89 99 90 77 68 77 86 82 65 69 69 69 70 62 57 81 77 83 85 66 68 90 98 102 101 108 86 88 85 88 100 98
11 12 -23 -57 60 62 44 55 54 65 95 83 73 75 82 79 86 82 77 72 87 99 96 80 71 68 71 84 96 92 95 96 68 89 96 108 117 112 106 111 106 94 99 118
19 -10 -25 -21 87 88 47 46 78 123 116 96 97 95 98 96 80 72 73 81 92 108 105 76 58 60 56 54 55 56 60 75 84 84 96 114 119 123 125 117 120 111 111 110
25 4 -22 -24 41 49 74 78 84 114 171 178 157 127 105 91 78 71 78 102 96 85 81 55 45 43 45 57 58 54 64 64 62 67 67 61 76 98 119 127 110 106 98 91
43 7 -5 4 31 36 45 64 67 72 91 111 88 92 93 93 94 99 94 92 82 46 24 31 41 43 44 48 60 51 64 69 69 66 60 67 71 76 87 90 103 114 106 102
38 24 12 23 49 47 35 47 42 33 43 54 61 76 82 87 83 73 57 41 34 39 45 52 46 39 42 50 45 46 53 60 63 53 53 50 49 57 67 68 80 89 96 102
41 47 33 33 35 31 44 53 76 85 73 76 79 66 52 45 38 41 53 43 35 54 50 46 41 48 41 51 40 39 40 42 46 47 52 59 63 76 84 66 54 68 79 86
35 34 17 28 44 43 49 53 41 27 20 23 28 37 45 44 46 52 47 38 37 31 33 26 25 30 35 24 18 21 25 31 33 37 38 41 48 51 58 62 63 71 76 71
32 17 0 3 15 16 19 31 38 28 20 24 33 38 43 45 42 35 35 32 31 32 31 22 19 25 39 26 26 24 22 25 29 32 32 45 44 49 55 60 65 68 65 71
41 27 19 6 3 -1 -5 -2 12 25 19 22 21 25 31 36 34 32 31 26 20 29 26 21 31 45 47 41 31 24 20 16 17 24 28 37 45 53 60 68 72 70 73 74
47 42 47 39 35 27 25 21 14 15 26 35 29 28 31 34 35 34 32 25 26 25 39 47 48 48 44 36 30 25 19 14 22 23 32 40 45 57 67 77 83 84 81 80
50 37 57 51 50 33 34 37 33 22 26 35 36 36 45 51 51 46 38 42 39 40 50 55 57 50 43 37 33 26 18 15 14 21 33 38 50 61 69 77 86 91 91 93

GFSNGP_con_3kmhel_096.txt.gz
Helicity
-177 -27 -5 27 35 102 184 186 128 87 76 86 102 120 105 85 69 50 42 40 26 21 15 14 23 48 89 119 164 201 193 172 160 163 183 215 250 211 172 144 142 133 150 143
-203 -48 21 15 -3 16 33 89 48 82 14 41 64 59 95 74 33 28 28 15 12 22 33 48 49 56 77 113 155 180 182 154 167 192 199 210 204 179 156 141 154 146 113 106
-136 -129 -49 43 51 53 69 80 54 55 27 91 47 39 45 25 2 -35 -6 -9 1 8 22 55 59 66 99 135 176 198 182 159 156 162 166 167 160 152 132 115 109 97 93 94
-10 -91 -85 18 83 103 145 113 87 81 90 50 63 80 67 89 33 43 64 61 52 52 51 55 104 96 137 170 179 190 174 150 135 138 145 151 153 135 125 120 103 102 97 100
-32 -91 -46 -10 14 39 42 55 8 66 66 54 81 77 77 74 79 63 43 32 32 42 41 40 88 151 190 185 175 166 142 135 133 139 149 150 133 124 124 131 119 113 118 111
-37 -181 -73 -22 79 55 32 83 56 27 47 97 116 85 70 68 67 58 39 26 20 28 37 37 58 189 214 195 171 121 129 133 143 145 152 137 129 133 131 124 104 106 95 94
53 -56 -55 41 92 60 53 71 74 57 46 48 54 38 42 49 56 38 26 37 40 47 52 61 67 169 181 208 136 143 166 155 147 152 144 137 153 149 132 126 125 103 99 99
43 40 -20 72 90 116 97 120 73 54 37 28 20 32 37 44 41 43 44 45 58 72 85 87 76 139 171 156 156 171 156 148 150 148 150 165 148 137 142 139 115 99 92 95
92 63 12 0 43 157 187 138 108 86 50 44 35 41 51 48 47 48 55 49 52 70 88 101 95 115 162 151 157 138 139 144 155 151 147 150 162 154 149 120 110 96 99 98
80 100 68 9 64 66 219 158 131 107 76 36 18 14 40 43 27 20 34 50 48 64 81 116 119 105 109 113 128 135 128 122 139 148 142 151 149 133 127 108 92 93 99 95
95 51 45 112 104 7 30 124 85 140 92 52 31 32 33 34 37 29 27 33 36 43 56 85 95 102 96 88 98 112 115 123 129 138 146 144 119 114 96 78 84 95 99 100
169 151 97 32 107 102 24 8 72 108 168 102 54 47 41 46 44 36 39 36 45 39 38 48 68 81 85 86 87 100 106 111 119 139 156 144 122 94 62 36 18 17 24 67
169 167 144 43 13 38 34 6 30 74 188 125 68 73 61 64 56 52 60 55 47 39 36 50 60 70 75 57 64 75 88 105 123 139 168 183 127 112 97 83 18 12 19 23
107 144 155 85 17 38 54 29 37 69 127 97 54 60 72 73 80 74 67 56 48 52 58 57 66 77 71 70 75 73 80 80 97 102 112 95 106 95 85 84 71 69 34 27
93 133 115 63 47 -2 39 12 16 63 104 38 46 50 65 73 64 84 84 77 81 83 79 75 76 83 88 77 70 75 84 85 83 83 92 91 101 98 98 91 105 78 73 51
68 69 42 20 -14 -37 56 69 21 68 62 54 59 73 76 77 84 99 97 77 62 74 75 76 76 70 72 65 69 92 101 95 90 92 92 102 111 107 100 107 104 75 90 90
71 73 22 -32 -46 -20 47 47 32 68 95 97 92 97 102 103 103 88 85 81 85 87 88 92 88 89 83 77 80 78 91 107 109 109 102 104 109 111 118 118 104 93 98 99
59 50 46 19 -15 41 64 24 29 54 69 77 88 94 104 98 85 89 84 80 91 106 103 96 88 83 70 63 61 58 67 69 78 85 87 88 89 89 97 103 108 107 109 112
46 49 18 -8 -28 -14 49 56 57 64 90 121 102 139 145 149 127 108 105 110 103 100 97 86 79 64 53 57 57 56 68 79 84 84 77 68 75 81 87 88 83 85 95 100
41 50 14 -9 -25 -8 22 39 47 54 64 79 103 112 129 122 81 91 101 120 108 88 61 52 49 42 42 48 58 58 74 85 89 90 90 87 75 73 65 56 62 73 79 88
29 29 36 9 -9 31 43 57 54 62 63 59 52 52 50 61 75 91 100 87 59 53 45 46 44 44 51 58 57 57 63 71 77 80 81 78 70 65 66 70 66 62 56 61
19 24 38 45 25 41 51 61 58 39 50 65 83 86 82 72 70 68 58 45 51 49 48 52 49 46 50 57 48 47 46 45 44 48 53 54 56 56 56 55 59 58 64 67
33 32 28 37 33 33 48 63 78 85 65 40 28 25 28 34 40 49 48 49 51 41 41 35 32 42 51 47 45 44 43 43 40 41 40 42 48 52 46 48 54 60 61 63
48 36 28 22 18 19 38 32 26 37 59 62 22 15 29 38 40 41 47 46 34 33 33 33 32 37 49 48 49 48 43 39 35 31 27 36 37 36 39 40 44 52 60 65
58 51 50 41 33 28 30 17 16 14 8 10 27 12 16 32 39 35 36 32 25 31 32 27 33 46 54 47 40 34 29 26 20 24 27 30 28 26 29 35 41 50 60 65
78 79 65 44 32 23 40 52 47 47 46 36 41 47 38 38 39 40 40 30 32 28 37 41 43 47 55 52 44 40 36 32 29 24 24 23 24 31 40 51 59 66 69 76
85 66 65 55 52 40 50 56 56 49 43 52 57 50 47 54 58 61 54 63 61 59 57 54 53 53 61 53 48 42 40 32 22 30 34 31 37 44 53 57 62 70 80 83

GFSNGP_con_3kmhel_099.txt.gz
Helicity
-108 -128 -72 17 49 87 100 166 134 54 86 79 74 96 119 100 114 97 68 47 35 38 24 15 16 23 44 65 98 132 165 169 151 156 165 180 181 170 142 153 168 161 136 116
-102 -130 -117 -13 -22 -34 15 65 62 154 101 110 157 151 167 98 94 97 57 37 25 29 48 37 23 22 29 45 80 132 161 147 155 175 192 185 162 150 157 163 175 145 119 94
98 -63 -126 -95 -23 -10 9 17 45 88 42 108 145 139 148 143 79 29 -2 12 24 13 28 31 39 64 65 92 115 136 132 141 163 181 176 177 182 175 153 138 134 106 93 94
79 9 -82 -71 23 36 -4 78 45 59 58 45 51 53 120 112 11 27 36 45 49 48 52 63 57 62 98 115 122 148 157 164 178 182 182 180 176 141 130 128 107 104 92 88
41 -40 -73 -26 -18 54 96 127 82 64 54 54 95 88 72 74 94 95 102 96 69 70 67 49 44 57 118 142 150 141 143 151 157 170 173 161 139 130 133 126 114 98 90 85
42 38 -31 -32 31 57 29 98 122 149 76 12 91 96 68 65 77 96 95 76 64 65 48 34 36 60 128 155 162 118 131 136 153 159 150 142 137 141 124 118 102 98 93 92
72 66 11 -32 23 50 -7 58 174 128 121 44 49 44 63 69 73 68 58 52 52 51 44 45 58 72 114 147 117 131 174 158 151 142 135 133 156 145 127 111 108 96 92 87
75 69 50 -26 -23 -19 53 70 75 115 104 81 41 28 25 28 30 31 39 40 49 51 66 76 77 84 112 105 118 163 164 156 151 147 145 153 151 144 129 120 99 88 86 78
101 70 53 -19 -32 44 41 40 97 110 152 112 59 40 34 33 25 27 33 37 44 61 79 97 104 87 117 128 128 145 152 146 150 162 161 164 155 136 142 124 109 91 81 70
67 81 88 78 40 41 48 39 65 142 146 105 61 47 38 35 28 28 24 30 27 46 74 96 125 120 108 119 144 146 141 135 155 167 167 160 128 136 140 134 107 85 71 64
115 91 121 167 125 116 98 52 29 65 114 83 75 40 26 34 42 37 29 28 30 38 55 74 85 123 139 133 121 144 132 121 128 134 126 125 125 127 121 107 108 95 89 79
137 133 158 145 81 11 58 54 31 -6 69 103 63 56 53 50 45 37 36 38 47 44 39 50 65 83 98 101 92 103 104 102 101 114 121 130 135 129 98 80 73 48 26 53
142 160 155 123 74 16 -19 75 28 23 -2 101 94 71 50 61 62 65 53 49 49 46 48 55 66 89 95 85 79 91 88 89 105 114 123 121 121 119 160 147 77 54 43 24
117 134 138 152 116 53 34 24 47 43 52 10 45 60 81 86 100 78 83 59 55 58 66 65 68 76 76 71 65 74 81 78 96 110 116 121 110 108 104 85 88 93 63 45
134 139 137 80 44 62 18 -50 46 57 51 29 36 46 66 71 72 81 46 50 79 94 90 76 72 72 68 68 66 69 80 89 92 98 102 93 97 95 96 90 91 99 93 93
72 83 85 61 31 13 -10 -31 -56 51 47 34 43 46 49 77 80 73 71 68 75 78 77 71 70 69 79 78 70 64 83 97 101 115 111 104 102 102 105 101 99 92 99 92
61 71 60 17 -12 -10 -21 26 41 28 43 62 66 68 82 107 113 102 91 91 90 78 72 66 60 73 86 88 85 72 62 80 99 113 112 108 107 106 106 104 98 101 104 106
52 57 64 44 20 -10 -42 -7 41 43 42 61 98 87 73 71 84 104 86 94 91 91 85 76 79 89 85 85 81 75 80 74 75 83 92 96 94 93 98 98 90 85 91 105
34 33 54 29 4 -18 -36 -33 29 33 51 60 57 63 93 92 102 89 105 100 85 72 78 98 109 99 86 73 64 60 66 76 85 89 90 93 101 100 86 85 82 79 75 75
27 39 43 46 19 -3 -17 -14 46 63 59 58 61 60 70 84 89 94 102 115 86 92 103 91 85 70 62 61 64 55 57 70 79 88 91 96 97 98 100 101 82 57 43 39
33 38 33 39 46 30 8 1 22 60 60 64 69 72 58 53 49 59 77 79 83 83 70 66 64 60 53 60 68 68 75 81 85 87 88 89 90 85 77 71 71 68 63 59
44 53 59 55 47 45 36 32 27 65 73 79 72 74 92 92 95 100 95 80 70 57 63 54 44 46 52 61 58 61 60 58 59 60 62 59 58 60 57 54 56 56 58 56
38 43 51 53 50 36 33 36 35 37 54 58 59 77 80 64 50 49 46 48 61 55 54 46 34 38 50 55 52 52 53 55 53 51 47 46 48 50 47 45 45 44 47 46
49 42 46 48 46 45 39 43 35 29 32 22 18 18 59 71 34 41 40 44 46 42 42 35 32 35 46 45 49 55 54 48 41 35 31 35 35 35 34 31 29 27 31 38
52 58 67 64 62 65 61 52 43 39 43 43 37 41 36 62 55 36 38 41 24 30 37 25 22 26 48 45 44 45 46 43 38 34 31 32 30 25 21 23 28 34 43 50
77 80 82 75 70 64 59 57 52 49 60 53 53 53 60 73 79 61 51 42 43 30 42 43 48 60 70 59 50 51 49 47 45 42 34 32 32 32 37 41 45 49 51 53
80 68 83 82 79 71 63 58 53 47 62 70 61 63 48 57 72 74 67 76 70 67 71 79 83 65 63 60 60 57 56 54 43 41 39 37 38 44 45 48 52 52 52 55

GFSNGP_con_3kmhel_102.txt.gz
Helicity
60 -65 -154 -100 -17 114 82 84 41 -13 28 64 50 82 72 57 86 119 139 127 91 61 54 55 69 74 69 64 69 84 100 107 106 128 152 174 183 187 196 187 161 156 146 130
145 10 -80 -68 -47 2 23 47 37 65 66 40 79 90 143 90 144 149 176 149 115 75 50 49 37 30 31 26 33 71 91 101 124 149 161 166 186 185 183 167 152 164 121 112
125 33 -66 -63 -12 -7 59 38 25 55 62 57 130 142 139 125 131 115 92 70 58 50 47 41 35 32 27 38 61 75 100 122 137 154 159 158 168 183 166 151 154 145 136 123
89 37 85 -38 -31 16 10 29 27 25 63 47 39 115 80 53 18 12 29 40 41 35 35 61 61 55 70 82 97 108 112 136 162 169 169 178 176 160 174 169 149 144 130 111
167 83 14 -3 -25 -6 42 27 117 129 125 88 3 32 66 78 45 9 10 30 40 26 52 41 50 60 56 80 105 128 116 124 146 168 192 193 179 175 169 163 155 134 106 96
103 149 179 31 28 15 30 12 116 131 139 160 45 70 62 84 81 80 77 76 82 72 35 29 36 49 51 70 111 112 126 138 155 163 168 155 170 179 151 134 125 113 106 83
110 99 48 38 41 -3 13 3 72 98 110 136 108 92 70 55 70 77 37 47 46 41 32 40 50 57 59 87 91 110 153 151 153 155 154 163 187 167 146 128 125 107 80 66
134 129 101 17 10 18 -5 43 41 54 83 89 85 108 53 31 29 38 51 43 38 35 38 52 59 55 61 74 106 132 165 156 156 162 169 171 163 156 145 133 107 85 79 74
142 106 67 51 26 -5 0 36 52 39 51 55 94 50 65 31 41 44 54 55 41 45 54 59 73 78 74 91 117 149 168 147 144 161 169 164 159 150 149 128 122 96 81 59
83 62 77 88 101 79 36 4 54 59 32 32 64 120 94 38 32 37 40 45 30 37 58 72 79 100 107 110 120 156 174 144 136 149 156 152 157 158 161 141 108 91 86 64
110 85 100 128 135 99 60 60 79 62 59 44 72 118 75 43 35 29 36 41 37 37 40 60 74 95 124 127 126 163 165 151 134 137 144 153 151 151 142 100 103 107 91 81
126 114 147 137 134 79 20 -15 -27 32 54 34 47 79 66 41 43 38 56 53 42 38 40 44 60 90 111 108 94 110 127 122 116 120 125 134 131 129 81 88 79 83 92 97
107 114 129 117 103 93 76 44 23 -8 38 68 53 36 58 46 48 59 76 90 59 45 40 41 54 75 104 100 81 70 88 81 85 98 104 106 122 126 117 105 72 75 83 72
87 90 99 121 113 96 99 96 38 2 -58 55 47 56 52 49 59 48 116 78 63 59 52 50 61 72 73 67 64 70 77 74 78 85 100 117 121 117 115 101 94 87 49 41
84 100 94 80 52 43 44 52 23 -14 -94 50 12 28 31 44 59 60 56 62 71 62 67 62 61 66 61 58 60 59 60 73 86 95 99 101 110 105 101 96 87 82 78 73
65 72 88 67 29 17 18 31 17 -10 -24 55 23 38 31 47 69 67 65 51 38 55 66 60 56 53 60 68 71 65 62 53 72 105 121 122 119 116 112 102 97 95 92 87
69 69 83 59 41 5 -3 -11 -21 -31 -46 30 43 50 39 57 67 82 88 92 77 68 60 47 43 44 53 65 76 75 77 75 66 75 99 115 133 123 119 116 105 101 94 96
61 53 55 64 59 22 -5 -19 -31 -20 -1 3 39 70 86 83 69 53 60 90 70 63 66 63 66 70 79 89 84 82 82 84 80 76 76 82 91 92 95 98 95 90 88 88
51 45 44 58 60 41 21 5 -3 -25 -50 5 32 42 53 101 104 77 79 74 56 70 75 84 86 94 93 79 74 62 69 78 84 84 83 90 98 99 92 88 84 77 75 77
51 61 51 48 54 53 48 33 13 3 -3 12 50 53 57 63 61 47 63 77 77 80 87 93 92 93 75 62 61 54 53 64 74 80 74 82 83 87 92 99 92 83 71 63
56 58 57 56 47 45 47 40 35 32 22 22 29 55 58 53 61 70 72 68 70 70 85 88 80 68 57 57 60 61 63 68 76 74 81 84 89 90 87 84 77 72 69 66
59 60 60 60 53 46 48 35 36 38 39 34 20 27 53 56 59 72 90 105 110 88 91 68 57 53 47 63 64 62 57 56 53 51 54 53 52 51 53 53 53 51 50 46
54 55 53 51 55 50 38 35 39 44 44 43 43 41 51 47 42 60 78 59 59 44 54 50 37 36 48 60 58 53 50 51 50 48 44 40 41 40 39 39 37 40 38 34
73 60 51 51 52 59 58 62 54 49 47 38 38 40 49 46 36 38 50 47 26 38 52 45 40 34 44 57 56 47 43 49 44 36 31 30 28 28 28 27 24 17 19 29
72 67 69 73 75 80 77 74 58 56 47 46 45 51 64 73 73 71 52 54 21 26 49 38 25 26 59 56 51 49 51 49 35 24 22 25 28 30 24 23 26 30 37 46
82 78 77 79 82 79 79 79 71 67 65 53 56 60 67 74 69 63 65 64 69 55 53 48 42 48 67 65 63 64 63 43 34 43 33 27 29 29 30 31 36 42 47 46
87 83 94 93 88 83 79 75 77 77 63 64 64 64 67 71 81 75 77 74 77 79 71 70 74 74 97 100 107 87 65 52 35 39 36 26 26 29 34 39 45 50 52 52

GFSNGP_con_3kmhel_105.txt.gz
Helicity
132 79 -0 -75 -43 -78 -92 31 54 71 94 94 26 53 71 39 95 140 190 205 185 156 138 135 125 119 110 110 109 109 116 128 132 141 155 163 168 171 182 192 183 173 172 174
150 73 4 -52 -44 -24 -8 57 22 13 18 20 68 70 108 89 59 100 160 197 205 131 101 80 63 50 44 47 48 61 73 81 108 135 160 172 192 196 205 215 208 190 173 172
91 29 11 66 28 -26 -35 -25 26 32 22 81 49 37 78 136 112 120 136 128 135 123 93 79 69 53 49 47 51 49 61 87 107 127 148 170 196 211 214 203 186 171 159 154
82 43 173 65 -25 -43 -42 -17 59 49 66 61 60 53 50 120 144 142 117 112 97 71 57 50 44 52 58 68 70 74 84 101 129 157 178 183 181 189 206 198 181 170 163 145
132 135 75 57 5 3 -28 -34 47 50 87 111 88 12 24 151 83 96 74 78 92 79 55 51 60 70 67 67 79 102 107 118 137 168 186 188 186 195 213 217 204 181 156 124
116 157 179 109 24 2 -3 12 26 62 78 99 87 63 109 171 84 90 109 96 92 92 84 98 92 72 57 57 68 74 100 129 142 147 174 179 187 195 194 193 198 183 151 100
132 139 84 54 46 40 69 26 -11 26 33 43 36 48 101 127 108 95 67 76 47 40 35 40 54 55 50 52 55 81 117 149 161 158 172 186 218 207 206 197 185 143 111 84
137 136 140 44 46 83 46 19 -2 11 34 44 53 49 45 83 50 41 44 42 40 29 36 38 41 51 56 60 68 82 121 158 183 172 186 200 191 193 166 147 131 116 102 93
146 141 71 74 71 58 38 26 13 -3 49 52 62 44 51 40 39 32 41 42 41 45 49 47 59 60 64 74 72 97 139 178 181 173 181 183 177 163 150 128 119 115 104 95
91 78 91 81 87 116 99 74 26 9 7 75 37 34 66 63 46 39 40 41 27 37 53 58 60 69 79 87 80 98 127 155 157 157 158 147 141 139 141 125 123 122 120 115
100 84 95 103 146 164 118 67 36 4 -15 -21 63 49 36 127 68 43 38 36 26 32 37 47 48 64 78 85 86 107 129 138 130 122 122 130 130 127 135 144 161 140 114 116
87 94 131 142 164 145 107 79 50 28 -32 -34 34 42 54 162 63 45 44 39 40 46 54 60 60 70 95 74 67 89 125 126 114 120 117 125 136 148 129 127 91 106 94 84
84 94 99 102 106 128 106 103 88 71 26 -29 -65 20 52 120 44 43 44 59 49 76 72 60 61 65 92 95 63 65 69 91 99 89 115 113 125 134 126 125 100 77 55 50
88 92 92 108 90 77 85 85 61 48 36 4 -39 -54 52 57 50 51 52 33 89 125 108 100 82 77 69 64 61 69 48 29 51 65 74 86 88 96 111 122 114 103 77 69
83 88 83 61 72 54 54 47 6 10 -3 -26 -44 -49 42 38 53 65 56 36 80 74 112 77 67 80 71 60 56 61 56 56 63 76 86 92 106 111 115 117 109 109 118 95
83 71 62 69 54 42 36 32 15 -3 -27 -59 -56 -56 35 55 78 79 65 61 51 42 47 53 61 61 55 62 67 72 76 74 65 70 87 110 121 124 125 121 118 114 108 102
94 74 72 65 69 54 33 24 21 -8 -35 -88 -84 -57 -2 75 84 79 71 82 82 77 69 57 56 53 52 57 61 71 81 89 97 82 77 85 103 119 129 127 126 125 120 114
56 56 67 73 77 69 45 29 15 8 10 -32 -61 -53 -8 41 69 70 80 102 95 84 72 60 64 66 65 62 65 73 87 99 99 92 85 86 85 90 103 114 114 115 117 110
62 48 58 71 76 70 64 48 31 20 11 -1 -13 -16 6 41 61 64 75 76 90 83 84 69 68 83 80 80 78 80 77 85 93 95 96 100 109 104 102 100 102 103 102 94
75 66 77 76 71 60 55 56 46 27 18 11 9 15 19 21 37 57 59 54 56 74 90 89 92 89 84 90 96 86 73 66 73 82 85 96 99 97 96 92 83 80 82 89
79 68 65 68 73 70 60 58 53 47 40 42 46 44 44 42 32 33 42 54 55 56 72 72 83 87 96 95 85 75 71 76 76 74 81 82 88 89 91 93 89 87 86 80
64 57 59 60 61 70 72 56 51 53 52 51 50 49 52 52 57 57 51 52 49 45 77 126 146 128 108 79 70 72 76 81 75 68 67 59 57 56 56 56 57 57 59 58
59 67 75 75 76 74 65 67 64 62 60 57 54 52 56 56 54 59 56 53 58 51 71 58 58 63 50 55 51 63 70 69 67 62 57 49 44 44 45 47 48 48 44 41
71 87 84 79 76 74 76 81 75 77 77 71 67 66 71 69 62 72 75 58 50 51 68 53 27 25 48 67 65 71 72 67 65 62 57 36 26 23 27 29 33 36 29 26
80 93 94 93 82 81 92 91 82 79 77 70 66 72 74 91 100 89 82 73 77 74 69 51 25 24 61 78 72 73 74 66 60 53 54 47 31 12 17 28 26 26 28 34
89 96 89 77 73 74 83 91 98 96 82 80 87 80 67 64 68 68 81 64 78 85 88 82 74 65 68 72 73 70 79 74 72 88 72 45 24 17 20 26 31 29 33 40
99 93 92 81 76 80 90 94 101 100 83 72 75 59 45 44 45 51 54 79 79 76 94 101 92 79 81 81 96 113 111 114 111 116 93 57 36 25 27 32 28 30 37 40

GFSNGP_con_3kmhel_108.txt.gz
Helicity
130 98 13 -64 -22 -47 -66 -60 -96 56 125 190 122 107 134 108 87 110 142 167 139 125 140 154 157 116 99 111 127 138 145 154 158 165 164 164 162 164 176 184 192 204 210 210
118 63 30 42 12 -12 -19 -20 -28 20 16 -2 105 67 98 95 91 104 157 221 187 140 115 118 133 148 155 140 123 117 135 149 153 161 169 168 175 190 205 220 215 217 202 187
85 38 75 176 41 -16 -25 -26 -29 -14 50 38 85 65 111 162 133 146 127 135 135 137 112 83 70 64 66 71 84 94 98 99 103 110 125 142 161 182 192 198 206 203 193 173
84 62 143 97 -4 -10 -16 -29 -35 -24 30 54 65 122 92 96 110 132 124 117 92 78 95 106 102 90 70 54 48 53 58 68 83 98 115 141 158 162 179 188 187 191 188 176
94 110 104 117 61 18 -4 -16 -11 -11 44 41 96 58 91 136 179 181 178 161 133 119 92 73 60 58 62 52 53 70 78 82 91 112 130 140 152 176 206 228 225 206 187 179
112 116 127 158 67 23 13 65 16 -6 23 55 90 56 81 187 163 140 197 187 140 130 108 67 67 65 70 67 71 67 97 109 128 131 137 144 166 187 203 207 225 228 209 170
118 121 128 106 44 64 157 155 31 -0 -10 42 44 23 51 85 76 90 134 203 159 155 140 125 109 81 65 64 62 88 103 106 120 137 155 171 227 230 220 229 223 202 184 162
113 118 129 108 117 164 109 69 40 5 -20 -31 44 36 24 37 59 55 48 81 75 73 67 64 69 64 61 58 77 77 81 101 123 145 177 188 189 195 192 190 185 168 145 135
90 109 110 122 122 99 119 113 89 42 9 -15 -21 67 43 43 53 49 38 28 29 20 6 18 37 44 59 73 83 73 83 109 139 155 160 165 175 179 184 154 146 136 125 113
62 81 98 90 97 119 136 144 99 48 -6 -23 -41 33 70 49 56 53 45 45 45 49 51 57 54 55 63 75 80 76 86 110 135 145 143 141 151 151 156 145 130 122 122 124
72 66 99 104 115 158 171 110 86 65 27 -21 -53 -68 51 62 66 63 52 40 31 41 44 60 56 61 76 76 75 84 94 107 115 123 122 126 120 121 125 123 124 126 135 159
71 90 97 122 162 155 138 135 141 144 86 25 -65 -77 -112 69 82 76 56 54 51 33 32 53 66 65 76 99 74 69 82 91 100 110 102 103 126 142 136 142 134 166 180 171
70 113 104 114 115 119 112 95 95 115 79 27 -32 -55 -71 -84 80 78 62 53 50 51 47 69 74 83 91 94 81 63 58 71 85 107 116 116 122 131 147 153 122 101 90 118
120 123 83 87 90 87 60 50 56 74 74 27 -24 -47 -57 -52 5 58 45 44 42 57 77 136 122 112 103 89 71 58 47 58 54 62 116 78 89 117 127 135 139 132 87 72
102 82 99 103 82 73 45 44 39 41 28 14 -39 -73 -93 -54 -45 27 57 58 52 50 80 103 125 129 102 96 85 77 67 58 59 60 64 75 90 96 109 119 116 124 133 118
111 93 93 85 85 68 51 49 41 36 35 21 -24 -53 -60 -66 -57 33 63 59 56 41 48 45 49 49 53 65 63 63 66 71 67 72 80 84 100 111 119 121 127 135 127 108
141 84 85 81 85 101 68 44 42 38 14 13 -16 -30 -30 -30 -26 -12 27 55 64 65 66 61 67 65 61 68 64 63 70 79 88 86 87 84 87 109 123 135 141 143 137 133
68 76 79 73 94 85 65 48 44 45 36 10 -6 -10 6 18 16 31 50 65 77 71 60 71 83 87 91 90 83 73 73 85 98 104 113 106 100 106 112 123 137 140 140 142
76 82 79 65 74 78 77 72 66 55 41 26 18 16 18 28 49 65 74 77 78 77 87 77 84 86 98 118 100 87 85 90 101 111 113 111 115 115 120 125 128 134 137 139
86 76 68 82 74 68 73 77 69 60 41 37 40 40 42 54 71 79 78 72 68 72 73 65 50 57 70 83 97 110 108 97 91 104 107 114 117 121 120 119 120 118 112 106
77 86 82 78 72 74 68 71 75 72 65 58 57 53 49 49 56 65 68 69 75 64 47 41 54 75 89 102 100 99 97 98 85 90 90 92 101 107 113 113 108 106 106 99
90 80 75 82 73 80 79 73 72 72 74 73 70 67 66 63 63 61 51 52 59 59 64 60 42 40 90 108 163 189 143 101 79 75 79 84 84 87 88 88 87 85 83 81
99 87 92 86 86 87 83 75 81 82 81 79 81 79 78 77 77 78 79 88 77 72 67 71 80 62 30 73 106 129 101 63 50 58 71 76 75 76 78 74 73 72 70 65
86 91 89 89 95 88 78 87 90 90 88 82 88 88 85 81 77 78 68 64 66 63 78 85 86 80 51 69 64 50 44 42 40 58 67 69 68 71 68 57 51 50 53 51
74 80 89 96 86 80 89 89 88 89 94 99 90 78 71 70 80 72 74 76 64 70 83 91 91 80 84 88 67 47 47 55 64 83 77 68 65 62 58 52 46 36 38 40
78 71 81 80 78 79 85 100 108 103 106 104 90 79 66 59 49 45 47 47 57 58 69 86 92 96 104 87 83 76 68 74 74 81 76 81 97 98 81 75 46 27 39 40
83 83 88 85 77 80 95 110 116 112 104 103 100 73 62 43 33 30 31 41 49 56 72 68 58 63 91 96 87 91 100 104 90 110 127 111 110 116 101 76 40 42 44 38

GFSNGP_con_3kmhel_111.txt.gz
Helicity
93 73 37 21 -27 -69 -74 -50 -60 12 25 77 120 137 145 106 113 124 182 190 174 153 119 89 82 87 88 109 128 144 169 167 173 165 166 157 153 157 166 166 177 218 254 261
97 70 66 118 26 4 -22 -27 -45 -29 -3 58 62 95 92 80 78 121 141 168 174 146 148 141 118 101 86 87 106 119 132 150 158 160 153 161 181 180 186 198 214 234 242 232
89 77 108 186 100 27 -3 -19 -35 -52 -45 54 45 36 82 129 129 97 102 102 102 108 113 109 113 119 122 112 102 97 98 109 122 136 154 168 178 194 207 207 204 205 202 189
79 101 132 148 59 39 27 -3 -17 -20 -24 12 80 88 61 136 151 172 134 105 98 85 92 91 89 81 72 67 66 71 75 78 78 88 119 135 146 154 164 173 176 189 195 201
89 89 119 151 120 100 97 70 29 -28 -10 -16 36 21 84 144 160 141 178 159 149 138 113 87 71 79 73 58 48 46 48 54 62 81 109 124 136 159 186 211 212 200 201 199
94 117 131 160 126 46 37 128 96 41 0 -25 -12 -14 66 125 128 126 129 147 171 156 146 111 101 99 82 66 55 48 42 52 78 100 113 127 154 192 226 230 267 268 234 199
104 112 118 153 104 65 225 215 95 56 27 0 -10 -21 20 47 80 69 59 84 102 148 184 151 112 81 59 56 46 66 76 93 99 128 159 192 224 233 236 221 229 226 213 200
94 119 115 165 143 163 151 113 123 88 38 3 -13 -21 8 31 28 37 52 55 42 79 151 173 153 112 96 87 99 104 98 101 115 134 181 223 197 215 193 194 203 204 209 212
85 99 103 153 102 125 103 150 162 140 127 51 1 -30 -43 46 49 39 23 25 28 35 38 59 93 51 64 64 69 72 71 75 90 126 151 160 190 196 196 177 180 182 177 178
57 70 93 116 119 98 139 162 170 140 126 81 32 -29 -64 -76 4 61 48 38 39 35 29 23 32 37 56 65 66 59 61 76 88 106 131 143 159 163 175 170 170 157 153 154
71 51 73 85 118 135 152 141 126 139 154 128 54 -33 -72 -93 -107 -47 71 59 42 42 34 33 39 45 52 62 65 70 72 85 83 102 125 140 133 127 144 126 134 142 150 169
81 103 85 93 113 140 140 119 105 120 140 133 56 -13 -62 -78 -106 -112 -30 60 49 44 41 41 48 55 68 72 81 64 74 80 97 110 123 148 144 144 158 135 156 198 191 202
101 153 135 137 110 109 104 105 98 95 88 64 42 13 -7 -33 -69 -98 -63 6 56 47 42 43 62 74 90 97 90 64 54 53 65 84 100 112 107 121 141 143 124 127 134 139
138 158 119 106 90 101 98 98 80 52 49 46 41 13 12 -6 -58 -63 -63 -19 24 37 45 52 75 106 126 124 107 86 59 65 46 55 55 70 103 92 101 137 134 137 123 115
131 116 119 128 114 111 104 103 80 63 47 41 24 0 -15 -26 -46 -42 -17 17 44 59 56 57 64 75 114 140 113 98 79 68 75 72 68 67 78 88 92 107 110 118 130 132
131 117 109 100 109 116 115 105 81 68 58 40 30 6 -18 -26 -19 5 22 41 65 60 69 54 46 45 31 52 63 66 75 78 77 75 75 68 77 87 99 107 105 107 108 106
152 107 94 94 98 110 110 98 78 78 58 46 32 16 2 -5 -11 -6 29 71 85 82 84 86 89 81 66 58 61 59 62 68 92 87 86 84 77 84 97 110 111 113 113 121
89 81 85 90 96 120 114 89 88 79 70 55 43 39 38 34 30 38 55 95 96 91 84 83 90 85 75 82 86 94 88 92 95 97 108 100 97 101 101 105 112 123 138 144
100 99 109 97 94 114 111 97 90 85 83 75 57 48 36 31 27 28 45 67 84 91 107 88 66 63 68 72 86 109 117 120 131 123 111 110 113 108 114 115 120 124 133 148
109 105 101 112 119 119 104 93 86 76 77 72 72 75 64 53 44 41 42 50 74 80 87 66 56 55 56 52 44 59 79 104 102 105 115 136 149 129 126 114 119 127 139 146
123 109 101 108 106 112 93 88 82 78 80 81 87 92 88 67 61 57 55 61 85 92 70 64 67 69 62 54 63 71 74 75 103 135 139 143 135 125 122 122 120 118 122 124
113 101 103 92 99 97 92 98 92 83 84 93 93 93 89 92 79 72 70 76 76 75 73 74 76 74 80 61 47 54 70 83 119 151 172 155 121 103 82 88 99 104 111 114
121 103 97 91 98 95 102 100 97 92 97 106 99 96 96 98 98 97 97 110 97 80 84 80 73 75 68 85 89 72 43 50 90 117 139 143 110 71 71 78 82 86 87 85
124 106 98 107 120 104 98 98 102 100 98 93 88 90 99 98 95 97 97 69 59 67 73 74 72 65 78 105 107 100 77 67 70 82 86 47 58 61 71 79 78 84 83 74
122 114 119 117 96 85 114 109 96 93 98 99 102 101 90 86 92 81 68 58 39 49 60 47 48 50 102 105 105 94 105 104 98 93 84 67 66 56 56 72 83 84 81 71
118 100 85 73 81 101 101 111 108 117 118 118 110 104 97 88 82 70 58 47 51 43 57 69 82 90 121 118 115 93 83 99 101 86 82 83 80 78 81 68 69 98 106 89
111 95 81 77 81 83 90 102 116 121 122 123 114 111 108 100 90 75 58 54 50 51 58 71 77 74 87 104 120 121 115 102 94 117 130 117 112 112 106 102 96 115 141 129

GFSNGP_con_3kmhel_117.txt.gz
Helicity
73 70 51 80 52 -2 -23 -11 0 4 -22 -4 43 31 31 55 67 82 107 108 83 96 101 99 92 87 73 69 81 113 136 182 87 47 52 90 81 75 92 115 121 126 133 132
64 88 68 62 59 76 50 15 6 -2 -12 -16 -16 12 22 58 82 70 74 98 108 94 96 105 90 84 73 69 63 59 91 108 129 119 125 69 46 100 58 87 115 128 130 144
66 66 65 82 117 103 101 108 64 146 53 -13 -30 -71 -69 72 71 72 80 81 105 110 83 71 91 84 77 70 66 59 56 73 90 71 47 -10 9 31 60 76 99 120 135 162
83 52 85 125 96 100 127 125 141 122 91 29 -22 -27 -28 -8 60 83 79 77 98 110 80 47 50 68 69 65 56 59 63 64 63 61 56 55 55 64 80 94 108 129 147 165
79 75 62 92 108 126 140 108 147 182 126 79 28 -6 -13 -20 -37 46 76 92 79 66 56 64 65 60 53 66 66 56 52 43 41 47 57 67 75 79 93 123 130 130 138 154
61 79 94 102 107 101 90 103 130 141 141 115 89 199 29 -35 -27 -21 -33 49 75 79 68 85 87 71 52 55 58 70 70 62 28 32 47 57 66 79 112 114 115 139 148 149
63 66 45 75 127 111 137 127 131 137 155 160 197 149 52 -37 -52 -39 -31 -49 32 79 74 63 67 77 77 56 56 57 52 50 52 39 55 75 98 130 138 140 151 153 162 168
41 42 30 119 119 127 109 107 142 137 141 147 169 150 78 9 -43 -72 -67 -50 -53 -60 45 59 62 75 84 93 108 108 96 75 62 71 91 123 148 168 183 191 192 191 201 186
81 52 50 90 74 114 133 151 153 165 147 157 173 185 150 68 -11 -58 -81 -90 -75 -55 -36 46 42 31 44 71 82 75 72 92 99 98 108 134 169 182 211 211 223 214 212 196
34 23 118 145 151 140 146 160 179 208 211 195 163 159 153 100 32 -39 -81 -92 -75 -79 -71 -57 44 29 16 25 30 35 53 68 75 49 65 89 118 140 162 180 183 186 180 162
88 48 45 63 161 191 178 182 175 165 163 167 149 133 120 92 59 2 -38 -76 -70 -65 -63 -66 -48 21 5 17 29 41 54 65 59 53 51 84 103 110 121 138 158 162 151 159
78 60 91 37 87 210 224 163 144 144 134 120 134 109 92 77 68 33 6 -24 -34 -47 -61 -67 -50 4 21 39 54 65 66 55 49 38 62 73 99 105 112 121 96 100 84 113
82 98 91 93 130 146 154 158 145 129 113 99 94 72 61 61 67 47 24 5 -4 -13 -19 -41 4 46 46 54 65 77 85 77 60 58 62 66 80 90 93 86 97 104 122 84
143 220 164 151 112 140 148 141 133 111 90 97 84 72 65 60 54 37 26 37 27 22 8 -15 -14 24 61 57 66 66 73 83 71 68 71 75 77 73 49 81 70 155 91 111
231 199 99 146 164 156 153 155 135 112 105 110 85 83 88 73 52 42 38 28 32 41 28 18 14 37 71 73 72 68 66 61 59 53 56 61 80 79 73 75 77 72 91 95
194 232 185 184 183 164 153 141 139 115 122 101 82 76 92 80 76 68 64 56 59 53 47 39 33 72 93 93 84 79 70 57 56 56 52 64 73 81 80 78 76 61 76 99
232 222 233 183 187 166 138 128 131 134 121 99 88 79 80 88 90 96 82 76 72 66 58 52 46 90 95 102 105 101 93 87 77 72 74 80 86 91 89 94 80 76 80 92
207 176 214 200 190 161 136 133 136 154 111 107 104 90 98 99 93 86 77 69 72 74 74 66 69 80 88 84 81 85 82 78 74 69 70 77 83 88 93 102 109 106 106 115
226 190 168 164 161 159 162 172 160 148 140 126 103 91 88 88 86 91 89 83 93 95 100 89 83 76 73 68 66 77 74 76 74 69 61 52 55 66 82 95 110 124 134 140
242 182 171 170 172 176 178 166 176 137 130 137 108 97 91 92 101 107 113 115 110 112 83 77 78 88 86 84 73 98 92 83 73 64 54 45 42 32 43 66 72 79 94 132
263 233 213 202 194 191 190 171 139 112 125 116 100 89 95 101 107 112 115 118 122 89 92 87 96 96 91 78 82 95 93 94 91 81 64 50 35 27 25 46 56 88 120 140
289 278 245 241 214 187 154 133 120 123 119 103 95 101 105 99 106 107 105 111 106 95 101 96 87 67 72 57 95 101 99 97 94 90 77 65 52 39 22 25 48 61 83 120
287 270 223 192 170 165 164 145 133 125 112 103 103 110 111 107 112 124 139 119 103 94 102 92 64 46 39 66 81 86 93 102 100 96 91 86 62 30 15 16 36 57 62 82
266 234 183 170 189 183 138 112 115 108 107 113 108 101 105 117 119 108 108 106 102 103 106 94 70 51 44 68 76 80 93 103 111 106 102 66 90 70 53 41 42 70 76 70
221 227 205 183 152 112 116 118 132 120 105 101 103 110 116 117 135 133 133 132 122 118 111 86 72 65 67 66 62 70 78 92 108 122 109 106 105 107 108 88 90 78 73 81
229 193 173 138 111 116 125 138 111 96 111 121 132 133 141 142 138 146 145 147 141 132 126 118 111 104 95 83 78 79 78 86 86 86 98 111 111 108 104 103 94 80 67 38
222 183 184 161 126 124 128 113 113 102 111 126 142 144 155 157 161 172 173 166 154 144 137 135 132 124 118 115 106 93 85 82 77 85 96 107 111 105 91 106 105 97 83 75

GFSNGP_con_3kmhel_120.txt.gz
Helicity
61 67 70 106 111 99 99 58 102 54 27 -9 5 -5 7 24 27 44 72 95 113 120 118 110 117 109 88 66 71 64 91 127 71 12 32 45 63 74 77 85 107 125 169 154
52 48 31 73 82 103 130 142 103 62 40 -11 -24 -41 11 30 44 44 55 65 87 126 126 150 141 132 95 83 69 72 105 120 101 64 73 35 59 59 71 55 53 50 68 96
55 26 12 46 109 124 113 138 150 159 110 26 -4 -28 -52 -64 48 66 61 72 82 85 69 87 117 127 114 85 62 55 56 75 97 88 76 42 26 76 25 101 102 58 64 76
73 44 77 97 43 67 104 127 146 128 129 92 26 -32 -45 -41 -56 -59 66 92 80 80 72 63 72 86 81 91 84 66 67 64 56 49 46 56 40 28 50 46 32 38 48 70
45 64 53 76 95 110 122 83 143 146 145 144 73 22 27 -25 -54 -52 -44 -52 4 70 65 73 73 79 70 74 71 77 85 81 74 59 48 52 59 58 52 71 71 59 69 85
28 38 64 67 77 92 82 105 106 124 127 142 176 153 105 26 -22 -46 -51 -58 -66 -83 49 75 91 83 61 63 63 76 85 81 71 63 51 50 47 52 72 78 77 96 100 105
40 26 20 48 90 75 86 111 118 132 122 130 141 157 125 24 -25 -52 -50 -56 -64 -75 -78 -82 11 62 72 70 67 66 60 57 66 71 63 58 64 70 75 81 89 94 96 107
32 24 6 72 99 101 75 68 104 121 134 143 130 128 109 98 55 -35 -76 -69 -70 -67 -60 -65 -66 -67 -81 -40 77 89 92 86 90 94 89 85 85 103 114 116 122 127 138 142
61 33 37 76 87 80 85 95 108 129 123 137 136 142 153 125 81 51 -21 -67 -75 -70 -47 -46 -55 -75 -78 -76 12 55 64 77 79 81 86 98 96 113 144 155 161 163 176 177
54 22 53 119 96 90 131 114 112 111 141 152 146 155 158 141 98 36 14 -12 -32 -47 -52 -50 -55 -66 -78 -84 -36 24 48 59 53 51 43 54 90 95 109 117 127 138 157 157
94 54 56 85 110 135 154 139 137 141 153 151 142 133 138 119 101 72 25 6 -11 -3 -34 -40 -50 -55 -82 -88 4 39 46 56 62 64 71 54 54 74 101 119 118 122 140 157
68 34 67 51 38 172 219 187 163 166 142 133 126 113 101 76 84 72 56 44 19 -0 -22 -36 -25 -17 -29 -40 4 39 46 62 57 64 53 54 61 76 79 74 74 66 81 113
128 82 110 98 71 122 185 160 152 135 123 119 93 80 60 50 65 63 68 32 26 28 9 -2 -16 -5 -2 14 59 74 71 69 74 79 71 71 76 67 73 74 47 58 65 82
223 242 174 157 83 124 151 138 135 129 115 115 99 73 52 63 63 57 66 36 32 32 28 25 18 13 -0 24 54 67 68 78 76 73 65 70 89 89 80 76 72 62 72 67
235 262 186 136 185 180 188 206 177 146 124 117 113 98 82 63 48 40 61 64 53 49 44 40 29 20 17 19 32 62 63 77 93 87 79 65 64 74 80 67 69 69 66 69
77 165 221 210 203 215 234 200 173 133 134 128 128 125 97 74 66 61 79 89 90 89 83 75 72 58 62 61 63 90 91 96 98 100 97 91 79 73 70 68 66 64 74 78
267 259 267 198 240 252 207 190 161 145 146 154 118 118 103 75 74 85 87 84 87 81 78 77 81 81 78 81 89 79 85 96 102 103 90 79 76 75 79 75 69 69 67 69
241 226 262 216 275 284 233 193 167 160 171 168 134 138 107 90 88 86 76 79 79 80 80 84 92 100 98 102 96 97 100 93 90 87 87 85 75 70 69 75 74 77 72 80
194 227 245 213 199 218 224 190 166 164 182 183 159 127 105 96 98 91 100 97 100 110 123 117 105 109 109 102 98 106 108 101 100 102 94 75 68 51 47 46 46 48 62 70
155 190 198 223 217 221 209 187 189 194 184 201 165 134 110 104 109 111 114 114 118 119 109 113 117 116 108 103 92 113 111 111 110 108 108 95 74 56 46 41 40 24 29 57
137 188 205 193 200 197 199 209 211 196 201 184 153 123 117 113 126 124 116 121 132 109 111 115 124 116 105 98 98 107 109 107 100 92 89 94 83 77 66 44 26 21 23 29
152 201 212 214 218 214 212 221 191 196 186 151 130 140 137 129 129 120 112 113 119 121 127 125 122 105 103 82 105 113 112 107 96 96 99 93 86 79 75 66 44 12 3 27
169 207 218 214 218 217 243 202 174 168 127 119 135 146 139 136 131 128 126 135 124 115 128 132 120 120 108 108 102 94 91 88 91 103 105 104 94 98 95 86 66 35 10 17
161 208 222 255 281 262 207 162 142 127 132 133 139 140 142 135 127 120 128 134 133 144 150 141 131 119 113 121 105 94 83 76 85 97 103 73 111 111 109 111 97 77 46 41
149 273 294 260 210 186 187 158 152 147 142 152 147 135 131 129 140 147 152 151 159 168 166 162 160 152 152 136 119 110 95 89 89 96 110 112 105 108 108 111 110 107 68 57
194 263 277 213 193 183 163 153 136 137 153 146 149 146 148 146 153 169 169 177 180 178 165 155 152 155 150 140 129 119 102 84 82 95 96 104 117 113 109 106 108 111 109 81
256 276 326 299 190 154 135 120 143 123 120 139 151 140 149 158 171 175 181 178 169 159 154 157 149 131 123 122 117 109 100 96 88 81 80 81 91 102 108 111 111 110 116 101